[[{"header":{"parameterUnit":"m.s-1","parameterCategory":1,"la1":31.0,"la2":29.5877,"lo1":-88.7671,"lo2":-86.6584,"dy":0.0162,"dx":0.0185,"nx":115,"ny":88,"refTime":"2026-05-07T00:00:00:Z","depth":0,"parameterNumber":2,"parameterNumberName":"U-component_of_WINDS"},"data":[0.0,0.0,0.0,0.0,0.0,0.0,0.0,0.0,0.0,0.0,0.0,0.0,0.0,0.0,0.0,0.0,0.0,0.0,0.0,0.0,0.0,0.0,0.0,0.0,0.0,0.0,0.0,0.0,0.0,0.0,0.0,0.0,0.0,0.0,0.0,0.0,0.0,0.0,0.0,0.0,0.0,0.0,0.0,0.0,0.0,0.0,0.0,0.0,0.0,0.0,0.0,0.0,0.0,0.0,0.0,0.0,0.0,0.0,0.0,0.0,0.0,0.0,0.0,0.0,0.0,0.0,0.0,0.0,0.0,0.0,0.0,0.0,0.0,0.0,0.0,0.0,0.0,0.0,0.0,0.0,0.0,0.0,0.0,0.0,0.0,0.0,0.0,0.0,0.0,0.0,0.0,0.0,0.0,0.0,0.0,0.0,0.0,0.0,0.0,0.0,0.0,0.0,0.0,0.0,0.0,0.0,0.0,0.0,0.0,0.0,0.0,0.0,0.0,0.0,0.0,0.0,0.0,0.0,0.0,0.0,0.0,0.0,0.0,0.0,0.0,0.0,0.0,0.0,0.0,0.0,0.0,0.0,0.0,0.0,0.0,0.0,0.0,0.0,0.0,0.0,0.0,0.0,0.0,0.0,0.0,0.0,0.0,0.0,0.0,0.0,0.0,0.0,0.0,0.0,0.0,0.0,0.0,0.0,0.0,0.0,0.0,0.0,0.0,0.0,0.0,0.0,0.0,0.0,0.0,0.0,0.0,0.0,0.0,0.0,0.0,0.0,0.0,0.0,0.0,0.0,0.0,0.0,0.0,0.0,0.0,0.0,0.0,0.0,0.0,0.0,0.0,0.0,0.0,0.0,0.0,0.0,0.0,0.0,0.0,0.0,0.0,0.0,0.0,0.0,0.0,0.0,0.0,0.0,0.0,0.0,0.0,0.0,0.0,0.0,0.0,0.0,0.0,0.0,0.0,0.0,0.0,0.0,0.0,0.0,0.0,0.0,0.0,0.0,0.0,0.0,0.0,0.0,0.0,0.0,0.0,0.0,0.0,0.0,0.0,0.0,0.0,0.0,0.0,0.0,0.0,0.0,0.0,0.0,0.0,0.0,0.0,0.0,0.0,0.0,0.0,0.0,0.0,0.0,0.0,0.0,0.0,0.0,0.0,0.0,0.0,0.0,0.0,0.0,0.0,0.0,0.0,0.0,0.0,0.0,0.0,0.0,0.0,0.0,0.0,0.0,0.0,0.0,0.0,0.0,0.0,0.0,0.0,0.0,0.0,0.0,0.0,0.0,0.0,0.0,0.0,0.0,0.0,0.0,0.0,0.0,0.0,0.0,0.0,0.0,0.0,0.0,0.0,0.0,0.0,0.0,0.0,0.0,0.0,0.0,0.0,0.0,0.0,0.0,0.0,0.0,0.0,0.0,0.0,0.0,0.0,0.0,0.0,0.0,0.0,0.0,0.0,0.0,0.0,0.0,0.0,0.0,0.0,0.0,0.0,0.0,0.0,0.0,0.0,0.0,0.0,0.0,0.0,0.0,0.0,0.0,0.0,0.0,0.0,0.0,0.0,0.0,0.0,0.0,0.0,0.0,0.0,0.0,0.0,0.0,0.0,0.0,0.0,0.0,0.0,0.0,0.0,0.0,0.0,0.0,0.0,0.0,0.0,0.0,0.0,0.0,0.0,0.0,0.0,0.0,0.0,0.0,0.0,0.0,0.0,0.0,0.0,0.0,0.0,0.0,0.0,0.0,0.0,0.0,0.0,0.0,0.0,0.0,0.0,0.0,0.0,0.0,0.0,0.0,0.0,0.0,0.0,0.0,0.0,0.0,0.0,0.0,0.0,0.0,0.0,0.0,0.0,0.0,0.0,0.0,0.0,0.0,0.0,0.0,0.0,0.0,0.0,0.0,0.0,0.0,0.0,0.0,0.0,0.0,0.0,0.0,0.0,0.0,0.0,0.0,0.0,0.0,0.0,0.0,0.0,0.0,0.0,0.0,0.0,0.0,0.0,0.0,0.0,0.0,0.0,0.0,0.0,0.0,0.0,0.0,0.0,0.0,0.0,0.0,0.0,0.0,0.0,0.0,0.0,0.0,0.0,0.0,0.0,0.0,0.0,0.0,0.0,0.0,0.0,0.0,0.0,0.0,0.0,0.0,0.0,0.0,0.0,0.0,0.0,0.0,0.0,0.0,0.0,0.0,0.0,0.0,0.0,0.0,0.0,0.0,0.0,0.0,0.0,0.0,0.0,0.0,0.0,0.0,0.0,0.0,0.0,0.0,0.0,0.0,0.0,0.0,0.0,0.0,0.0,0.0,0.0,0.0,0.0,0.0,0.0,0.0,0.0,0.0,0.0,0.0,0.0,0.0,0.0,0.0,0.0,0.0,0.0,0.0,0.0,0.0,0.0,0.0,0.0,0.0,0.0,0.0,0.0,0.0,0.0,0.0,0.0,0.0,0.0,0.0,0.0,0.0,0.0,0.0,0.0,0.0,0.0,0.0,0.0,0.0,0.0,0.0,0.0,0.0,0.0,0.0,0.0,0.0,0.0,0.0,0.0,0.0,0.0,0.0,0.0,0.0,0.0,0.0,0.0,0.0,0.0,0.0,0.0,0.0,0.0,0.0,0.0,0.0,0.0,0.0,0.0,0.0,0.0,0.0,0.0,0.0,0.0,0.0,0.0,0.0,0.0,0.0,0.0,0.0,0.0,0.0,0.0,0.0,0.0,0.0,0.0,0.0,0.0,0.0,0.0,0.0,0.0,0.0,0.0,0.0,0.0,0.0,0.0,0.0,0.0,0.0,0.0,0.0,0.0,0.0,0.0,0.0,0.0,0.0,0.0,0.0,0.0,0.0,0.0,0.0,0.0,0.0,0.0,0.0,0.0,0.0,0.0,0.0,0.0,0.0,0.0,0.0,0.0,0.0,0.0,0.0,0.0,0.0,0.0,0.0,0.0,0.0,0.0,0.0,0.0,0.0,0.0,0.0,0.0,0.0,0.0,0.0,0.0,0.0,0.0,0.0,0.0,0.0,0.0,0.0,0.0,0.0,0.0,0.0,0.0,0.0,0.0,0.0,0.0,0.0,0.0,0.0,0.0,0.0,0.0,0.0,0.0,0.0,0.0,0.0,0.0,0.0,0.0,0.0,0.0,0.0,0.0,0.0,0.0,0.0,0.0,0.0,0.0,0.0,0.0,0.0,0.0,0.0,0.0,0.0,0.0,0.0,0.0,0.0,0.0,0.0,0.0,0.0,0.0,0.0,0.0,0.0,0.0,0.0,0.0,0.0,0.0,0.0,0.0,0.0,0.0,0.0,0.0,0.0,0.0,0.0,0.0,0.0,0.0,0.0,0.0,0.0,0.0,0.0,0.0,0.0,0.0,0.0,0.0,0.0,0.0,0.0,0.0,0.0,0.0,0.0,0.0,0.0,0.0,0.0,0.0,0.0,0.0,0.0,0.0,0.0,0.0,0.0,0.0,0.0,0.0,0.0,0.0,0.0,0.0,0.0,0.0,0.0,0.0,0.0,0.0,0.0,0.0,0.0,0.0,0.0,0.0,0.0,0.0,0.0,0.0,0.0,0.0,0.0,0.0,0.0,0.0,0.0,0.0,0.0,0.0,0.0,0.0,0.0,0.0,0.0,0.0,0.0,0.0,0.0,0.0,0.0,0.0,0.0,0.0,0.0,0.0,0.0,0.0,0.0,0.0,0.0,0.0,0.0,0.0,0.0,0.0,0.0,0.0,0.0,0.0,0.0,0.0,0.0,0.0,0.0,0.0,0.0,0.0,0.0,0.0,0.0,0.0,0.0,0.0,0.0,0.0,0.0,0.0,0.0,0.0,0.0,0.0,0.0,0.0,0.0,0.0,0.0,0.0,0.0,0.0,0.0,0.0,0.0,0.0,0.0,0.0,0.0,0.0,0.0,0.0,0.0,0.0,0.0,0.0,0.0,0.0,0.0,0.0,0.0,0.0,0.0,0.0,0.0,0.0,0.0,0.0,0.0,0.0,0.0,0.0,0.0,0.0,0.0,0.0,0.0,0.0,0.0,0.0,0.0,0.0,0.0,0.0,0.0,0.0,0.0,0.0,0.0,0.0,0.0,0.0,0.0,0.0,0.0,0.0,0.0,0.0,0.0,0.0,0.0,0.0,0.0,0.0,0.0,0.0,0.0,0.0,0.0,0.0,0.0,0.0,0.0,0.0,0.0,0.0,0.0,0.0,0.0,0.0,0.0,0.0,0.0,0.0,0.0,0.0,0.0,0.0,0.0,-1.4493,0.0,0.0,0.0,0.0,0.0,0.0,0.0,0.0,0.0,0.0,0.0,0.0,0.0,0.0,0.0,0.0,0.0,0.0,0.0,0.0,0.0,0.0,0.0,0.0,0.0,0.0,0.0,0.0,0.0,0.0,0.0,0.0,0.0,0.0,0.0,0.0,0.0,0.0,0.0,0.0,0.0,0.0,0.0,0.0,0.0,0.0,0.0,0.0,0.0,0.0,0.0,0.0,0.0,0.0,0.0,0.0,0.0,0.0,0.0,0.0,0.0,0.0,0.0,0.0,0.0,0.0,0.0,0.0,0.0,0.0,0.0,0.0,0.0,0.0,0.0,0.0,0.0,0.0,0.0,0.0,0.0,0.0,0.0,0.0,0.0,0.0,0.0,0.0,0.0,0.0,0.0,0.0,0.0,0.0,0.0,0.0,0.0,0.0,0.0,0.0,0.0,0.0,0.0,0.0,0.0,0.0,0.0,0.0,0.0,0.0,-1.4645,-1.4651,-1.4592,-1.4537,-1.4493,0.0,0.0,0.0,0.0,0.0,0.0,0.0,0.0,0.0,0.0,0.0,0.0,0.0,0.0,0.0,0.0,0.0,0.0,0.0,0.0,0.0,0.0,0.0,0.0,0.0,0.0,0.0,0.0,0.0,0.0,0.0,0.0,0.0,0.0,0.0,0.0,0.0,0.0,0.0,0.0,0.0,0.0,0.0,0.0,0.0,0.0,0.0,0.0,0.0,0.0,0.0,0.0,0.0,0.0,0.0,0.0,0.0,0.0,0.0,0.0,0.0,0.0,0.0,0.0,0.0,0.0,0.0,0.0,0.0,0.0,0.0,0.0,0.0,0.0,0.0,0.0,0.0,0.0,0.0,0.0,0.0,0.0,0.0,0.0,0.0,0.0,0.0,0.0,0.0,0.0,0.0,0.0,0.0,0.0,0.0,0.0,0.0,0.0,0.0,0.0,0.0,0.0,0.0,0.0,0.0,0.0,0.0,0.0,0.0,0.0,0.0,0.0,-1.5118,-1.506,-1.481,0.0,0.0,0.0,0.0,0.0,0.0,0.0,0.0,0.0,0.0,0.0,0.0,0.0,0.0,0.0,0.0,0.0,0.0,0.0,0.0,0.0,0.0,0.0,0.0,0.0,0.0,0.0,0.0,0.0,0.0,0.0,0.0,0.0,0.0,0.0,0.0,0.0,0.0,0.0,0.0,0.0,0.0,0.0,0.0,0.0,0.0,0.0,0.0,0.0,0.0,0.0,0.0,0.0,0.0,0.0,0.0,0.0,0.0,0.0,0.0,0.0,0.0,0.0,0.0,0.0,0.0,0.0,0.0,0.0,0.0,0.0,0.0,0.0,0.0,0.0,0.0,0.0,0.0,0.0,0.0,0.0,0.0,0.0,0.0,0.0,0.0,0.0,0.0,0.0,0.0,0.0,0.0,0.0,0.0,0.0,0.0,0.0,0.0,0.0,0.0,0.0,0.0,0.0,0.0,0.0,0.0,0.0,0.0,0.0,0.0,-1.5886,-1.5899,-1.6591,0.0,-1.5716,0.0,0.0,0.0,0.0,0.0,0.0,0.0,0.0,0.0,0.0,0.0,0.0,0.0,0.0,0.0,0.0,0.0,0.0,0.0,0.0,0.0,0.0,0.0,0.0,0.0,0.0,0.0,0.0,0.0,0.0,0.0,0.0,0.0,0.0,0.0,0.0,0.0,0.0,0.0,0.0,0.0,0.0,0.0,0.0,0.0,0.0,0.0,0.0,0.0,0.0,0.0,0.0,0.0,0.0,0.0,0.0,0.0,0.0,0.0,0.0,0.0,0.0,0.0,0.0,0.0,0.0,0.0,0.0,0.0,0.0,0.0,0.0,0.0,0.0,0.0,0.0,0.0,0.0,0.0,0.0,0.0,0.0,0.0,0.0,0.0,0.0,0.0,0.0,0.0,0.0,0.0,0.0,0.0,0.0,0.0,0.0,0.0,0.0,0.0,0.0,0.0,0.0,0.0,0.0,0.0,0.0,0.0,0.0,0.0,0.0,-1.7302,-1.8289,-1.8086,-1.7309,0.0,0.0,0.0,0.0,0.0,0.0,0.0,0.0,0.0,0.0,0.0,0.0,0.0,0.0,0.0,0.0,0.0,0.0,0.0,0.0,0.0,0.0,0.0,0.0,0.0,0.0,0.0,0.0,0.0,0.0,0.0,0.0,0.0,0.0,0.0,0.0,0.0,0.0,0.0,0.0,0.0,0.0,0.0,0.0,0.0,0.0,0.0,0.0,0.0,0.0,0.0,0.0,0.0,0.0,0.0,0.0,0.0,0.0,0.0,0.0,0.0,0.0,0.0,0.0,0.0,0.0,0.0,0.0,0.0,0.0,0.0,0.0,0.0,0.0,0.0,0.0,0.0,0.0,0.0,0.0,0.0,0.0,0.0,0.0,0.0,0.0,0.0,0.0,0.0,0.0,0.0,0.0,0.0,0.0,0.0,0.0,0.0,0.0,0.0,0.0,0.0,0.0,0.0,0.0,0.0,0.0,0.0,0.0,0.0,0.0,-1.6975,-1.8173,-1.9677,-1.8742,-1.7513,-1.6243,0.0,0.0,0.0,0.0,0.0,0.0,0.0,0.0,0.0,0.0,0.0,0.0,0.0,0.0,0.0,0.0,0.0,0.0,0.0,0.0,0.0,0.0,0.0,0.0,0.0,0.0,0.0,0.0,0.0,0.0,0.0,0.0,0.0,0.0,0.0,0.0,0.0,0.0,0.0,0.0,0.0,0.0,0.0,0.0,0.0,0.0,0.0,0.0,0.0,0.0,0.0,0.0,0.0,0.0,0.0,0.0,0.0,0.0,0.0,0.0,0.0,0.0,0.0,0.0,0.0,0.0,0.0,0.0,0.0,0.0,0.0,0.0,0.0,0.0,0.0,0.0,0.0,0.0,0.0,0.0,0.0,0.0,0.0,0.0,0.0,0.0,0.0,0.0,0.0,0.0,0.0,0.0,0.0,0.0,0.0,0.0,0.0,0.0,0.0,0.0,0.0,0.0,0.0,0.0,0.0,0.0,0.0,0.0,-1.515,-1.6635,-1.8157,-1.9613,-1.8117,-1.7162,0.0,0.0,0.0,0.0,0.0,0.0,0.0,0.0,0.0,0.0,0.0,0.0,0.0,0.0,0.0,0.0,0.0,0.0,0.0,0.0,0.0,0.0,0.0,0.0,0.0,0.0,0.0,0.0,0.0,0.0,0.0,0.0,0.0,0.0,0.0,0.0,0.0,0.0,0.0,0.0,0.0,0.0,0.0,0.0,0.0,0.0,0.0,0.0,0.0,0.0,0.0,0.0,0.0,0.0,0.0,0.0,0.0,0.0,0.0,0.0,0.0,0.0,0.0,0.0,0.0,0.0,0.0,0.0,0.0,0.0,0.0,0.0,0.0,0.0,0.0,0.0,0.0,0.0,0.0,0.0,0.0,0.0,0.0,0.0,0.0,0.0,0.0,0.0,0.0,0.0,0.0,0.0,0.0,0.0,0.0,0.0,0.0,0.0,0.0,0.0,0.0,0.0,0.0,0.0,0.0,0.0,0.0,0.0,0.0,-1.5843,-1.788,-1.8984,-1.8919,-1.8333,-1.7488,0.0,0.0,0.0,0.0,0.0,0.0,0.0,0.0,0.0,0.0,0.0,0.0,0.0,0.0,0.0,0.0,0.0,0.0,0.0,0.0,0.0,0.0,0.0,0.0,0.0,0.0,0.0,0.0,0.0,0.0,0.0,0.0,0.0,0.0,0.0,0.0,0.0,0.0,0.0,0.0,0.0,0.0,0.0,0.0,0.0,0.0,0.0,0.0,0.0,0.0,0.0,0.0,0.0,0.0,0.0,0.0,0.0,0.0,0.0,0.0,0.0,0.0,0.0,0.0,0.0,0.0,0.0,0.0,0.0,0.0,0.0,0.0,0.0,0.0,0.0,0.0,0.0,0.0,0.0,0.0,0.0,0.0,0.0,0.0,0.0,0.0,0.0,0.0,0.0,0.0,0.0,0.0,0.0,0.0,0.0,0.0,0.0,0.0,0.0,0.0,0.0,0.0,0.0,0.0,0.0,0.0,0.0,0.0,0.0,-1.7419,0.0,-1.9696,-1.9282,-1.8465,-1.7496,0.0,0.0,0.0,0.0,0.0,0.0,0.0,0.0,0.0,0.0,0.0,0.0,0.0,0.0,0.0,0.0,0.0,0.0,0.0,0.0,0.0,0.0,0.0,0.0,0.0,0.0,0.0,0.0,0.0,0.0,0.0,0.0,0.0,0.0,0.0,0.0,0.0,0.0,0.0,0.0,0.0,0.0,0.0,0.0,0.0,0.0,0.0,0.0,0.0,0.0,0.0,0.0,0.0,0.0,0.0,0.0,0.0,0.0,0.0,0.0,0.0,0.0,0.0,0.0,0.0,0.0,0.0,0.0,0.0,0.0,0.0,0.0,0.0,0.0,0.0,0.0,0.0,0.0,0.0,0.0,0.0,0.0,0.0,0.0,0.0,0.0,0.0,0.0,0.0,0.0,0.0,0.0,0.0,0.0,0.0,0.0,0.0,0.0,0.0,0.0,0.0,0.0,0.0,0.0,0.0,0.0,0.0,0.0,-1.7667,-1.9853,-1.9963,-2.0263,-2.0816,-1.8503,-1.7126,0.0,0.0,0.0,0.0,0.0,0.0,0.0,0.0,0.0,0.0,0.0,0.0,0.0,0.0,0.0,0.0,0.0,0.0,0.0,0.0,0.0,0.0,0.0,0.0,0.0,0.0,0.0,0.0,0.0,0.0,0.0,0.0,0.0,0.0,0.0,0.0,0.0,0.0,0.0,0.0,0.0,0.0,0.0,0.0,0.0,0.0,0.0,0.0,0.0,0.0,0.0,0.0,0.0,0.0,0.0,0.0,0.0,0.0,0.0,0.0,0.0,0.0,0.0,0.0,0.0,0.0,0.0,0.0,0.0,0.0,0.0,0.0,0.0,0.0,0.0,0.0,0.0,0.0,0.0,0.0,0.0,0.0,0.0,0.0,0.0,0.0,0.0,0.0,0.0,0.0,0.0,0.0,0.0,0.0,0.0,0.0,0.0,0.0,0.0,0.0,0.0,0.0,0.0,0.0,0.0,0.0,0.0,0.0,0.0,-2.0975,-2.1352,-2.1362,-2.0872,-1.9418,-1.8091,0.0,0.0,0.0,0.0,0.0,0.0,0.0,0.0,0.0,0.0,0.0,0.0,0.0,0.0,0.0,0.0,0.0,0.0,0.0,0.0,0.0,0.0,0.0,0.0,0.0,0.0,0.0,0.0,0.0,0.0,0.0,0.0,0.0,0.0,0.0,0.0,0.0,0.0,0.0,0.0,0.0,0.0,0.0,0.0,0.0,0.0,0.0,0.0,0.0,0.0,0.0,0.0,0.0,0.0,0.0,0.0,0.0,0.0,0.0,0.0,0.0,0.0,0.0,0.0,0.0,0.0,0.0,0.0,0.0,0.0,0.0,0.0,0.0,0.0,0.0,0.0,0.0,0.0,0.0,0.0,0.0,0.0,0.0,0.0,0.0,0.0,0.0,0.0,0.0,0.0,0.0,0.0,0.0,0.0,0.0,0.0,0.0,0.0,0.0,0.0,0.0,0.0,0.0,0.0,0.0,0.0,0.0,0.0,0.0,-2.3992,-2.4363,-2.3956,-2.2719,-2.1097,-1.9481,-1.7851,0.0,0.0,0.0,0.0,0.0,0.0,0.0,0.0,0.0,0.0,0.0,0.0,0.0,0.0,0.0,0.0,0.0,0.0,0.0,0.0,0.0,0.0,0.0,0.0,0.0,0.0,0.0,0.0,0.0,0.0,0.0,0.0,0.0,0.0,0.0,0.0,0.0,0.0,0.0,0.0,0.0,0.0,0.0,0.0,0.0,0.0,0.0,0.0,0.0,0.0,0.0,0.0,0.0,0.0,0.0,0.0,0.0,0.0,0.0,0.0,0.0,0.0,0.0,0.0,0.0,0.0,0.0,0.0,0.0,0.0,0.0,0.0,0.0,0.0,0.0,0.0,0.0,0.0,0.0,0.0,0.0,0.0,0.0,0.0,0.0,0.0,0.0,0.0,0.0,0.0,0.0,0.0,0.0,0.0,0.0,0.0,0.0,0.0,0.0,0.0,0.0,0.0,0.0,0.0,0.0,0.0,0.0,0.0,-2.838,-2.8614,-2.7801,-2.5903,-2.3362,-2.1206,0.0,0.0,0.0,0.0,0.0,0.0,0.0,0.0,0.0,0.0,0.0,0.0,0.0,0.0,0.0,0.0,0.0,0.0,0.0,0.0,0.0,0.0,0.0,0.0,0.0,0.0,0.0,0.0,0.0,0.0,0.0,0.0,0.0,0.0,0.0,0.0,0.0,0.0,0.0,0.0,0.0,0.0,0.0,0.0,0.0,0.0,0.0,0.0,0.0,0.0,0.0,0.0,0.0,0.0,0.0,0.0,0.0,0.0,0.0,0.0,0.0,0.0,0.0,0.0,0.0,0.0,0.0,0.0,0.0,0.0,0.0,0.0,0.0,0.0,0.0,0.0,0.0,0.0,0.0,0.0,0.0,0.0,0.0,0.0,0.0,0.0,0.0,0.0,0.0,0.0,0.0,0.0,0.0,0.0,0.0,0.0,0.0,0.0,0.0,0.0,0.0,0.0,0.0,0.0,0.0,0.0,0.0,0.0,0.0,-2.9863,-3.1675,-3.1233,-2.8367,-2.5805,-2.341,0.0,0.0,0.0,0.0,0.0,0.0,0.0,0.0,0.0,0.0,0.0,0.0,0.0,0.0,0.0,0.0,0.0,0.0,0.0,0.0,0.0,0.0,0.0,0.0,0.0,0.0,0.0,0.0,0.0,0.0,0.0,0.0,0.0,0.0,0.0,0.0,0.0,0.0,0.0,0.0,0.0,0.0,0.0,0.0,0.0,0.0,0.0,0.0,0.0,0.0,0.0,0.0,0.0,0.0,0.0,0.0,0.0,0.0,0.0,0.0,0.0,0.0,0.0,0.0,0.0,0.0,0.0,0.0,0.0,0.0,0.0,0.0,0.0,0.0,0.0,0.0,0.0,0.0,0.0,0.0,0.0,0.0,0.0,0.0,0.0,0.0,0.0,0.0,0.0,0.0,0.0,0.0,0.0,0.0,0.0,0.0,0.0,0.0,0.0,0.0,0.0,0.0,0.0,0.0,0.0,0.0,0.0,0.0,-2.8328,-3.0341,-3.2718,-3.289,-3.0664,-2.7878,-2.5117,0.0,0.0,0.0,0.0,0.0,0.0,0.0,0.0,0.0,0.0,0.0,0.0,0.0,0.0,0.0,0.0,0.0,0.0,0.0,0.0,0.0,0.0,0.0,0.0,0.0,0.0,0.0,0.0,0.0,0.0,0.0,0.0,0.0,0.0,0.0,0.0,0.0,0.0,0.0,0.0,0.0,0.0,0.0,0.0,0.0,0.0,0.0,0.0,0.0,0.0,0.0,0.0,0.0,0.0,0.0,0.0,0.0,0.0,0.0,0.0,0.0,0.0,0.0,0.0,0.0,0.0,0.0,0.0,0.0,0.0,0.0,0.0,0.0,0.0,0.0,0.0,0.0,0.0,0.0,0.0,0.0,0.0,0.0,0.0,0.0,0.0,0.0,0.0,0.0,0.0,0.0,0.0,0.0,0.0,0.0,0.0,0.0,0.0,0.0,0.0,0.0,0.0,0.0,0.0,0.0,0.0,0.0,0.0,-2.8624,-3.032,-3.2596,-3.3408,-3.2546,-2.9567,-2.6502,0.0,0.0,0.0,0.0,0.0,0.0,0.0,0.0,0.0,0.0,0.0,0.0,0.0,0.0,0.0,0.0,0.0,0.0,0.0,0.0,0.0,0.0,0.0,0.0,0.0,0.0,0.0,0.0,0.0,0.0,0.0,0.0,0.0,0.0,0.0,0.0,0.0,0.0,0.0,0.0,0.0,0.0,0.0,0.0,0.0,0.0,0.0,0.0,0.0,0.0,0.0,0.0,0.0,0.0,0.0,0.0,0.0,0.0,0.0,0.0,0.0,0.0,0.0,0.0,0.0,0.0,0.0,0.0,0.0,0.0,0.0,0.0,0.0,0.0,0.0,0.0,0.0,0.0,0.0,0.0,0.0,0.0,0.0,0.0,0.0,0.0,0.0,0.0,0.0,0.0,0.0,0.0,0.0,0.0,0.0,0.0,0.0,0.0,0.0,0.0,0.0,0.0,0.0,0.0,0.0,0.0,0.0,0.0,-2.8881,-3.1091,-3.2889,-3.3421,-3.2619,-3.0106,-2.7831,0.0,0.0,0.0,0.0,0.0,0.0,0.0,0.0,0.0,0.0,0.0,0.0,0.0,0.0,0.0,0.0,0.0,0.0,0.0,0.0,0.0,0.0,0.0,0.0,0.0,0.0,0.0,0.0,0.0,0.0,0.0,0.0,0.0,0.0,0.0,0.0,0.0,0.0,0.0,0.0,0.0,0.0,0.0,0.0,0.0,0.0,0.0,0.0,-1.9063,0.0,0.0,0.0,0.0,0.0,0.0,0.0,0.0,0.0,0.0,0.0,0.0,0.0,0.0,0.0,0.0,0.0,0.0,0.0,0.0,0.0,0.0,0.0,0.0,0.0,0.0,0.0,0.0,0.0,0.0,0.0,0.0,0.0,0.0,0.0,0.0,0.0,0.0,0.0,0.0,0.0,0.0,0.0,0.0,0.0,0.0,0.0,0.0,0.0,0.0,0.0,0.0,0.0,0.0,0.0,0.0,0.0,0.0,0.0,-2.9898,-3.1916,-3.3164,-3.3587,-3.3109,-3.1201,-2.9005,0.0,0.0,0.0,0.0,0.0,0.0,0.0,0.0,0.0,0.0,0.0,0.0,0.0,0.0,0.0,0.0,0.0,0.0,0.0,0.0,0.0,0.0,0.0,0.0,0.0,0.0,0.0,0.0,0.0,0.0,0.0,0.0,0.0,0.0,0.0,0.0,0.0,0.0,0.0,0.0,0.0,0.0,0.0,0.0,0.0,0.0,0.0,0.0,0.0,0.0,0.0,0.0,0.0,0.0,0.0,0.0,0.0,0.0,0.0,0.0,0.0,0.0,0.0,0.0,0.0,0.0,0.0,0.0,0.0,0.0,0.0,0.0,0.0,0.0,0.0,0.0,0.0,0.0,0.0,0.0,0.0,0.0,0.0,0.0,0.0,0.0,0.0,0.0,0.0,0.0,0.0,0.0,0.0,0.0,0.0,0.0,0.0,0.0,0.0,0.0,0.0,0.0,0.0,0.0,0.0,0.0,0.0,-2.8576,-3.098,-3.2546,-3.3385,-3.3752,-3.3605,-3.2063,-2.9769,-2.6712,0.0,0.0,0.0,0.0,0.0,0.0,0.0,0.0,0.0,0.0,0.0,0.0,0.0,0.0,0.0,0.0,0.0,0.0,0.0,0.0,0.0,0.0,0.0,0.0,0.0,0.0,0.0,0.0,0.0,0.0,0.0,0.0,0.0,0.0,0.0,0.0,0.0,0.0,-1.8291,-1.9594,0.0,0.0,0.0,0.0,0.0,0.0,0.0,0.0,-1.9738,0.0,0.0,0.0,0.0,0.0,0.0,0.0,0.0,0.0,0.0,0.0,0.0,0.0,0.0,0.0,0.0,0.0,0.0,0.0,0.0,0.0,0.0,0.0,0.0,0.0,0.0,0.0,0.0,0.0,0.0,0.0,0.0,0.0,0.0,0.0,0.0,0.0,0.0,0.0,0.0,0.0,0.0,0.0,0.0,0.0,0.0,0.0,0.0,0.0,0.0,0.0,0.0,0.0,0.0,0.0,0.0,-2.5374,-2.8558,-3.0968,-3.2564,-3.3385,-3.3495,-3.2784,-3.1225,-2.92,-2.6712,0.0,0.0,0.0,0.0,0.0,0.0,0.0,0.0,0.0,0.0,0.0,0.0,0.0,0.0,0.0,0.0,0.0,0.0,0.0,0.0,0.0,0.0,0.0,0.0,0.0,0.0,0.0,0.0,0.0,0.0,0.0,0.0,0.0,0.0,0.0,0.0,0.0,0.0,0.0,-2.1053,-2.1633,0.0,0.0,0.0,0.0,0.0,0.0,0.0,0.0,-1.9575,0.0,0.0,0.0,0.0,0.0,0.0,0.0,0.0,0.0,0.0,0.0,0.0,0.0,0.0,0.0,0.0,0.0,0.0,0.0,0.0,0.0,0.0,0.0,0.0,0.0,0.0,0.0,0.0,0.0,0.0,0.0,0.0,0.0,0.0,0.0,0.0,0.0,0.0,0.0,0.0,0.0,0.0,0.0,0.0,0.0,0.0,0.0,0.0,0.0,0.0,0.0,0.0,0.0,0.0,0.0,-2.6568,-2.9414,-3.1586,-3.3183,-3.3605,-3.322,-3.199,-3.0418,-2.8448,0.0,0.0,0.0,0.0,0.0,0.0,0.0,0.0,0.0,0.0,0.0,0.0,0.0,0.0,0.0,0.0,0.0,0.0,0.0,0.0,0.0,0.0,0.0,0.0,0.0,0.0,0.0,0.0,0.0,0.0,0.0,0.0,0.0,0.0,0.0,0.0,0.0,0.0,0.0,0.0,-2.2504,-2.3112,-2.2759,0.0,0.0,0.0,0.0,0.0,0.0,-2.0152,-1.9761,0.0,0.0,0.0,0.0,0.0,0.0,0.0,0.0,0.0,0.0,0.0,0.0,0.0,0.0,0.0,0.0,0.0,0.0,0.0,0.0,0.0,0.0,0.0,0.0,0.0,0.0,0.0,0.0,0.0,0.0,0.0,0.0,0.0,0.0,0.0,0.0,0.0,0.0,0.0,0.0,0.0,0.0,0.0,0.0,0.0,0.0,0.0,0.0,0.0,0.0,0.0,0.0,0.0,0.0,0.0,-2.7475,-3.0093,-3.2186,-3.3715,-3.3807,-3.3036,-3.1433,-2.9831,-2.7794,0.0,0.0,0.0,0.0,0.0,0.0,0.0,0.0,0.0,0.0,0.0,0.0,0.0,0.0,0.0,0.0,0.0,0.0,0.0,0.0,0.0,0.0,0.0,0.0,0.0,0.0,0.0,0.0,0.0,0.0,0.0,0.0,0.0,0.0,0.0,0.0,0.0,0.0,0.0,0.0,0.0,-2.4199,-2.4344,-2.364,0.0,0.0,0.0,0.0,-2.1169,-2.0896,0.0,0.0,0.0,0.0,0.0,0.0,0.0,0.0,0.0,0.0,0.0,0.0,0.0,0.0,0.0,0.0,0.0,0.0,0.0,0.0,0.0,0.0,0.0,0.0,0.0,0.0,0.0,0.0,0.0,0.0,0.0,0.0,0.0,0.0,0.0,0.0,0.0,0.0,0.0,0.0,0.0,0.0,0.0,0.0,0.0,0.0,0.0,0.0,0.0,0.0,0.0,0.0,0.0,0.0,0.0,0.0,-2.6704,-2.9806,-3.2186,-3.3715,-3.3807,-3.3018,-3.1433,-2.9849,-2.7537,0.0,0.0,0.0,0.0,0.0,0.0,0.0,0.0,0.0,0.0,0.0,0.0,0.0,0.0,0.0,0.0,0.0,0.0,0.0,0.0,0.0,0.0,0.0,0.0,0.0,0.0,0.0,0.0,0.0,0.0,0.0,0.0,0.0,0.0,0.0,0.0,0.0,0.0,0.0,0.0,0.0,-2.4224,-2.4823,-2.4655,-2.4443,0.0,0.0,-2.3434,-2.4018,-2.3488,0.0,0.0,0.0,0.0,0.0,0.0,0.0,0.0,0.0,0.0,0.0,0.0,0.0,0.0,0.0,0.0,0.0,0.0,0.0,0.0,0.0,0.0,0.0,0.0,0.0,0.0,0.0,0.0,0.0,0.0,0.0,0.0,0.0,0.0,0.0,0.0,0.0,0.0,0.0,0.0,0.0,0.0,0.0,0.0,0.0,0.0,0.0,0.0,0.0,0.0,0.0,0.0,0.0,0.0,0.0,-2.3382,-2.6576,-2.9769,-3.1966,-3.3091,-3.3568,-3.2816,-3.0779,-2.9163,-2.6814,0.0,0.0,0.0,0.0,0.0,0.0,0.0,0.0,0.0,0.0,0.0,0.0,0.0,0.0,0.0,0.0,0.0,0.0,0.0,0.0,0.0,0.0,0.0,0.0,0.0,0.0,0.0,0.0,0.0,0.0,0.0,0.0,0.0,0.0,0.0,0.0,0.0,0.0,0.0,0.0,0.0,0.0,-2.6666,-2.6256,0.0,0.0,0.0,-2.499,-2.5674,0.0,0.0,0.0,0.0,0.0,0.0,0.0,0.0,0.0,0.0,0.0,0.0,0.0,0.0,0.0,0.0,0.0,0.0,0.0,0.0,0.0,0.0,0.0,0.0,0.0,0.0,0.0,0.0,0.0,0.0,0.0,0.0,0.0,0.0,0.0,0.0,0.0,0.0,0.0,0.0,0.0,0.0,0.0,0.0,0.0,0.0,0.0,0.0,0.0,0.0,0.0,0.0,0.0,0.0,0.0,0.0,0.0,-2.6282,-2.9659,-3.1788,-3.2583,-3.3201,-3.254,-3.054,-2.8943,0.0,0.0,0.0,0.0,0.0,0.0,0.0,0.0,0.0,0.0,0.0,0.0,0.0,0.0,0.0,0.0,0.0,0.0,0.0,0.0,0.0,0.0,0.0,0.0,0.0,0.0,0.0,-1.3676,0.0,0.0,0.0,0.0,0.0,0.0,0.0,0.0,0.0,0.0,0.0,0.0,0.0,0.0,-2.6549,-2.7946,-2.7641,-2.7469,0.0,0.0,-2.664,-2.7182,-2.6657,-2.5643,0.0,0.0,0.0,0.0,0.0,0.0,0.0,0.0,0.0,0.0,0.0,0.0,0.0,0.0,0.0,0.0,0.0,0.0,0.0,0.0,0.0,0.0,0.0,0.0,0.0,0.0,0.0,0.0,0.0,0.0,0.0,0.0,0.0,0.0,0.0,0.0,0.0,0.0,0.0,0.0,0.0,0.0,0.0,0.0,0.0,0.0,0.0,0.0,0.0,0.0,0.0,0.0,0.0,0.0,-2.3006,-2.5513,-2.9377,-3.177,-3.2546,-3.2638,-3.2265,-3.1329,-2.9769,-2.7391,0.0,0.0,0.0,0.0,0.0,0.0,0.0,0.0,0.0,0.0,0.0,0.0,0.0,0.0,0.0,0.0,0.0,0.0,0.0,0.0,0.0,0.0,0.0,0.0,0.0,0.0,0.0,0.0,0.0,0.0,0.0,0.0,0.0,0.0,0.0,0.0,0.0,0.0,0.0,0.0,0.0,-2.6442,-2.7828,-2.8505,-2.8874,0.0,-2.884,-2.879,-2.884,-2.818,-2.7148,-2.5677,0.0,0.0,0.0,0.0,0.0,0.0,0.0,0.0,0.0,0.0,0.0,0.0,0.0,0.0,0.0,0.0,0.0,0.0,0.0,0.0,0.0,0.0,0.0,0.0,0.0,0.0,0.0,0.0,0.0,0.0,0.0,0.0,0.0,0.0,0.0,0.0,0.0,0.0,0.0,0.0,0.0,0.0,0.0,0.0,0.0,0.0,0.0,0.0,0.0,0.0,0.0,0.0,0.0,-2.2419,-2.3717,-2.8304,-3.0889,-3.1342,-3.1672,-3.1476,-3.0687,-2.9574,-2.7482,0.0,0.0,0.0,0.0,0.0,0.0,0.0,0.0,0.0,0.0,0.0,0.0,0.0,0.0,0.0,0.0,0.0,0.0,0.0,0.0,0.0,0.0,0.0,0.0,0.0,0.0,0.0,0.0,-1.5443,-1.5781,-1.6231,0.0,0.0,0.0,0.0,0.0,0.0,0.0,0.0,0.0,0.0,-2.725,-2.9641,-3.0586,0.0,0.0,-3.092,-3.0345,-3.0364,-2.8924,-2.73,-2.5846,-2.4154,0.0,0.0,0.0,0.0,0.0,0.0,0.0,0.0,0.0,0.0,0.0,0.0,0.0,0.0,0.0,0.0,0.0,0.0,0.0,0.0,0.0,0.0,0.0,0.0,0.0,0.0,0.0,0.0,0.0,0.0,0.0,0.0,0.0,0.0,0.0,0.0,0.0,0.0,0.0,0.0,0.0,0.0,0.0,0.0,0.0,0.0,0.0,0.0,0.0,0.0,0.0,0.0,-2.1981,-2.2577,-2.7572,-3.0143,-3.0118,-3.073,-3.0779,-3.021,-2.9427,-2.7592,0.0,0.0,0.0,0.0,0.0,0.0,0.0,0.0,0.0,0.0,0.0,0.0,0.0,0.0,0.0,0.0,0.0,0.0,0.0,0.0,0.0,0.0,0.0,0.0,0.0,0.0,0.0,0.0,-1.6147,-1.6458,-1.6976,0.0,0.0,0.0,0.0,0.0,0.0,0.0,0.0,0.0,0.0,-2.796,-3.0497,-3.1684,-3.2412,-3.2696,-3.2053,-3.1481,-3.1224,-2.9482,-2.7722,-2.6438,0.0,0.0,0.0,0.0,0.0,0.0,0.0,0.0,0.0,0.0,0.0,0.0,0.0,0.0,0.0,0.0,0.0,0.0,0.0,0.0,0.0,0.0,0.0,0.0,0.0,0.0,0.0,-1.4444,0.0,0.0,-1.3439,0.0,0.0,0.0,0.0,0.0,0.0,0.0,0.0,0.0,0.0,0.0,0.0,0.0,0.0,0.0,0.0,0.0,0.0,0.0,0.0,0.0,0.0,-2.1783,-2.2471,-2.7379,-2.9667,-2.9107,-2.9807,-3.0191,-3.0155,-2.9409,-2.7842,-2.5384,0.0,0.0,0.0,0.0,0.0,0.0,0.0,0.0,0.0,0.0,0.0,0.0,0.0,0.0,0.0,0.0,0.0,0.0,0.0,0.0,0.0,0.0,0.0,0.0,0.0,0.0,-1.6682,-1.7304,-1.7715,0.0,0.0,0.0,0.0,0.0,0.0,0.0,0.0,0.0,0.0,-2.642,-2.8348,-2.9937,-3.1396,-3.2124,-3.1427,-3.1853,-3.2022,-3.1292,-2.9941,-2.8669,0.0,0.0,0.0,0.0,0.0,0.0,0.0,0.0,0.0,0.0,0.0,0.0,0.0,0.0,0.0,0.0,0.0,0.0,0.0,0.0,0.0,0.0,0.0,0.0,0.0,0.0,0.0,-1.6743,-1.6616,0.0,0.0,0.0,0.0,0.0,0.0,0.0,0.0,0.0,0.0,0.0,-2.2385,-2.2393,0.0,0.0,0.0,0.0,0.0,0.0,0.0,0.0,0.0,0.0,0.0,0.0,-2.1348,-2.3371,-2.6549,-2.8464,-2.898,-2.9265,-2.9409,-2.9409,-2.8631,-2.6814,-2.3896,0.0,0.0,0.0,0.0,0.0,0.0,0.0,0.0,0.0,0.0,0.0,0.0,0.0,0.0,0.0,0.0,0.0,0.0,0.0,0.0,0.0,0.0,0.0,0.0,0.0,-1.6891,0.0,0.0,0.0,0.0,0.0,0.0,0.0,0.0,0.0,0.0,0.0,-2.4492,-2.6437,-2.823,-2.9888,-3.1343,-3.2391,-3.2949,0.0,0.0,0.0,0.0,0.0,0.0,0.0,0.0,0.0,0.0,0.0,0.0,0.0,0.0,-2.3541,-2.2947,-2.205,-2.1281,-2.0941,0.0,0.0,0.0,0.0,0.0,0.0,0.0,0.0,0.0,0.0,0.0,0.0,0.0,0.0,-1.9079,0.0,-1.7907,0.0,0.0,0.0,0.0,0.0,0.0,0.0,0.0,-2.404,-2.4795,-2.5018,-2.4938,-2.461,0.0,-2.3971,-2.2598,0.0,0.0,0.0,0.0,0.0,0.0,0.0,0.0,-2.1481,-2.3514,-2.6218,-2.8025,-2.8827,-2.8948,-2.8858,-2.8594,-2.7541,-2.5841,-2.3511,-2.2089,-2.0859,0.0,0.0,0.0,0.0,0.0,0.0,0.0,0.0,0.0,0.0,0.0,0.0,0.0,0.0,0.0,0.0,0.0,0.0,0.0,0.0,0.0,0.0,0.0,-1.7557,0.0,0.0,0.0,0.0,0.0,0.0,0.0,0.0,0.0,-2.2747,-2.4188,-2.5998,-2.796,-2.9313,-3.0632,-3.2107,0.0,0.0,0.0,0.0,0.0,0.0,0.0,-2.8782,-2.8206,-2.7001,-2.6143,-2.6198,-2.6078,-2.5957,-2.5942,0.0,0.0,-2.5074,-2.4317,-2.3657,-2.3115,-2.2338,-2.2058,-2.2888,-2.4782,-2.6019,0.0,0.0,0.0,0.0,0.0,0.0,0.0,0.0,-2.1633,-2.1507,0.0,-1.9713,0.0,0.0,0.0,0.0,0.0,-2.1378,0.0,0.0,-2.6349,-2.7332,-2.7465,-2.6918,-2.6574,-2.6417,-2.6209,-2.5267,-2.3581,-2.0753,0.0,0.0,0.0,0.0,0.0,0.0,-2.2106,-2.3027,-2.6361,-2.829,-2.8587,-2.8821,-2.8558,-2.7714,-2.6219,-2.5044,-2.4208,-2.34,-2.2235,-2.0658,-1.9764,0.0,0.0,0.0,0.0,0.0,0.0,0.0,0.0,0.0,0.0,0.0,0.0,0.0,0.0,0.0,0.0,0.0,0.0,0.0,0.0,-1.8082,0.0,0.0,0.0,0.0,0.0,0.0,0.0,0.0,0.0,0.0,-2.3861,-2.5523,-2.7351,-2.8874,0.0,0.0,0.0,0.0,-3.3389,-3.3389,-3.3998,-3.4015,-3.2865,-3.185,-3.0771,-2.9552,0.0,0.0,-2.7781,-2.6964,-2.6543,-2.7045,-2.6961,-2.6582,-2.5833,-2.5771,-2.5576,-2.4824,-2.4891,-2.5136,-2.4995,-2.6218,-2.7139,-2.4048,0.0,0.0,0.0,0.0,-2.3035,-2.3763,-2.4366,-2.4225,-2.3998,-2.3667,-2.2095,0.0,0.0,0.0,0.0,0.0,0.0,-2.4541,-2.6149,-2.7505,-2.8238,-2.8427,-2.8349,-2.794,-2.7248,-2.7055,-2.6135,-2.4539,-2.3027,-2.1309,-1.9416,0.0,0.0,0.0,0.0,-2.2142,-2.3792,-2.6029,-2.7661,-2.8588,-2.8293,-2.7475,-2.6127,-2.5631,-2.5026,-2.4208,-2.3428,-2.2786,-2.229,-2.0382,0.0,0.0,0.0,0.0,0.0,0.0,0.0,0.0,0.0,0.0,0.0,0.0,0.0,0.0,0.0,0.0,0.0,0.0,0.0,-1.8161,-1.965,-2.0213,0.0,0.0,0.0,0.0,0.0,0.0,0.0,0.0,0.0,-2.7317,-2.8383,-2.9482,0.0,0.0,-3.2002,-3.2949,-3.3271,-3.3389,-3.3389,-3.3575,0.0,-3.2814,-3.2307,-3.1675,-3.0804,-3.049,-3.0063,-2.9194,-2.8429,-2.7976,-2.8132,-2.772,-2.728,-2.7085,-2.6738,-2.6585,-2.6636,-2.625,-2.6077,-2.6665,-2.7265,-2.7508,-2.6599,-2.425,-2.4425,-2.4473,-2.4492,-2.5273,-2.5825,-2.6182,-2.6259,-2.6109,-2.5708,-2.4386,-2.3332,-2.2477,-2.1701,0.0,0.0,0.0,-2.5533,-2.6751,-2.7927,-2.8563,-2.8761,-2.8935,-2.8679,-2.8069,-2.7556,-2.6784,-2.5751,-2.476,-2.3584,-2.2107,0.0,0.0,-2.0252,-2.1454,-2.2698,-2.3998,-2.576,-2.6956,-2.7435,-2.6974,-2.6271,-2.5358,-2.5031,-2.4675,-2.4218,-2.3731,-2.3336,-2.3006,-2.1877,-2.0599,0.0,0.0,0.0,0.0,0.0,0.0,0.0,0.0,0.0,0.0,0.0,-1.3726,-1.4436,0.0,0.0,0.0,-1.6796,-1.8166,-1.9684,-2.0906,0.0,0.0,0.0,0.0,0.0,0.0,0.0,-2.4692,-2.6686,-2.8356,-2.9193,-3.0008,-3.0801,-3.1549,-3.2022,-3.2682,-3.3694,0.0,-3.3926,-3.4204,-3.4194,-3.4093,-3.3854,-3.3304,-3.259,-3.1704,-3.1235,-3.0789,-3.0114,-2.9415,-2.8921,-2.8622,-2.8263,-2.7914,-2.7645,-2.732,-2.7204,-2.752,-2.7084,-2.6898,-2.7498,-2.7585,-2.7584,-2.8492,-2.7644,-2.6782,-2.6337,-2.6284,-2.7091,-2.7392,-2.7361,-2.7812,-2.7751,-2.7249,-2.6371,-2.5451,-2.4457,-2.3797,0.0,-2.3833,-2.5436,-2.6342,-2.6729,-2.7843,-2.8464,-2.8669,-2.8888,-2.8912,-2.8743,-2.7822,-2.7264,-2.701,-2.6059,-2.5522,-2.5291,-2.2415,-2.1219,-2.1794,-2.2926,-2.3609,-2.3901,-2.561,-2.619,-2.561,-2.5246,-2.5049,-2.4967,-2.4346,-2.3985,-2.3988,-2.4061,-2.3768,-2.3061,-2.3768,-2.2684,-1.9399,0.0,0.0,0.0,0.0,0.0,0.0,0.0,0.0,0.0,0.0,0.0,0.0,0.0,0.0,0.0,-1.7896,0.0,-2.1173,-2.2006,0.0,0.0,0.0,-2.2786,-2.3594,-2.486,-2.5657,-2.5559,0.0,0.0,-2.9854,-3.0685,-3.1565,-3.2293,-3.2378,-3.2919,-3.437,-3.459,-3.48,-3.5307,-3.5321,-3.5304,-3.5239,-3.4449,-3.3371,-3.2289,-3.1514,-3.0952,-3.0601,-3.0073,-2.9445,-2.8936,-2.8727,-2.8427,-2.7735,-2.7615,-2.766,-2.76,-2.757,-2.7555,-2.758,-2.758,-2.7595,-2.9752,-2.9471,-2.8667,-2.7873,-2.7252,-2.8082,-2.8403,-2.8342,-2.8259,-2.7961,-2.7467,-2.6493,-2.5495,-2.4491,-2.4321,-2.4588,-2.5225,-2.5802,-2.6493,-2.7305,-2.7837,-2.8224,-2.8388,-2.86,-2.865,-2.8556,-2.8216,-2.7651,-2.6881,-2.6443,-2.5866,-2.5051,-2.3688,-2.3343,-2.3996,-2.4171,-2.436,-2.454,-2.5683,-2.5775,-2.4749,-2.473,-2.4199,-2.3175,-2.3067,-2.283,-2.2391,-2.296,-2.3208,-2.3024,-2.3786,-2.3436,-2.1735,-1.9654,0.0,0.0,0.0,0.0,0.0,0.0,0.0,0.0,0.0,-1.5028,-1.6887,0.0,-1.7563,0.0,-2.0504,-2.1651,-2.2006,-2.3207,0.0,0.0,-2.3983,-2.4491,-2.5777,-2.6217,-2.6996,-2.8485,-2.9517,-3.0303,-3.0782,-3.1549,-3.231,-3.3034,-3.3136,-3.366,-3.5092,-3.5329,-3.5329,-3.5327,-3.5015,-3.4857,-3.497,-3.4487,-3.3604,-3.2658,-3.1847,-3.1346,-3.1254,-3.0717,-3.0223,-3.0043,-2.9654,-2.8963,-2.7869,-2.8004,-2.8139,-2.772,-2.7585,-2.7585,-2.7585,-2.7585,-2.7585,-2.9879,-3.0118,-2.9335,-2.8666,-2.8193,-2.8699,-2.8858,-2.881,-2.8562,-2.8169,-2.7678,-2.6763,-2.6038,-2.5489,-2.5489,-2.5725,-2.6148,-2.6262,-2.666,-2.7294,-2.7565,-2.7797,-2.7989,-2.8197,-2.8259,-2.8237,-2.8156,-2.78,-2.7215,-2.6962,-2.6532,-2.5911,-2.4663,-2.442,-2.5084,-2.4399,-2.3924,-2.3735,-2.4325,-2.4336,-2.3759,-2.386,-2.3448,-2.2425,-2.2486,-2.2276,-2.1689,-2.21,-2.2511,-2.2857,-2.3721,-2.3499,-2.1996,-2.0557,-1.9028,0.0,0.0,0.0,0.0,0.0,0.0,0.0,0.0,0.0,0.0,0.0,-1.9063,-2.0863,-2.1806,-2.282,-2.4139,-2.5015,-2.5743,-2.642,-2.6505,-2.6826,-2.7656,-2.801,-2.8604,-2.9585,-3.0217,-3.0735,-3.1173,-3.1853,-3.2564,-3.3305,-3.3694,-3.4303,-3.5329,-3.5616,-3.5509,-3.5314,-3.4913,-3.4496,-3.4275,-3.3498,-3.2848,-3.2471,-3.1896,-3.15,-3.148,-3.1197,-3.0866,-3.0524,-3.0223,-2.9744,-2.8921,-2.8607,-2.8487,-2.8233,-2.7854,-2.7615,-2.7585,-2.7585,-2.7585,-2.9574,-3.0136,-2.9335,-2.8987,-2.8987,-2.8987,-2.8987,-2.8964,-2.8724,-2.8344,-2.7826,-2.7068,-2.6725,-2.6758,-2.6742,-2.6741,-2.6741,-2.6758,-2.6858,-2.704,-2.7211,-2.7413,-2.7565,-2.7757,-2.7858,-2.7858,-2.784,-2.7786,-2.7642,-2.738,-2.7211,-2.6985,-2.5431,-2.4931,-2.5389,-2.4086,-2.31,-2.253,-2.262,-2.2647,-2.2673,-2.2813,-2.2534,-2.1883,-2.1961,-2.1749,-2.115,-2.1214,-2.1593,-2.2327,-2.3488,-2.3248,-2.1289,-2.0956,-1.9856,0.0,-1.729,0.0,0.0,0.0,0.0,0.0,0.0,0.0,0.0,-1.9553,-2.045,-2.2429,-2.2767,-2.3917,-2.6471,-2.686,-2.7537,-2.8807,-2.8993,-2.9027,-2.9162,-2.9719,-3.0057,-2.9907,-3.0666,-3.1207,-3.1427,-3.2022,-3.2733,-3.3491,-3.4218,-3.4878,-3.5447,-3.56,-3.5549,-3.5337,-3.4899,-3.4226,-3.3382,-3.2302,-3.1712,-3.1994,-3.1792,-3.1492,-3.1481,-3.1481,-3.1301,-3.0806,-3.0644,-3.0494,-3.0285,-2.94,-2.8801,-2.876,-2.8143,-2.7615,-2.7585,-2.7585,-2.7585,-3.0051,-3.0136,-2.9317,-2.8987,-2.8987,-2.8987,-2.8987,-2.8994,-2.8755,-2.8313,-2.7698,-2.7182,-2.6958,-2.6942,-2.6942,-2.6974,-2.7021,-2.7085,-2.7135,-2.7166,-2.7308,-2.7402,-2.7432,-2.7524,-2.7569,-2.7585,-2.7569,-2.7461,-2.7291,-2.7181,-2.707,-2.6891,-2.591,-2.5152,-2.4694,0.0,0.0,0.0,-2.2671,-2.2102,-2.1561,-2.1657,-2.112,-1.9908,-1.9987,0.0,-1.9204,-1.9776,-2.0206,-2.0402,-2.2596,0.0,0.0,0.0,0.0,0.0,0.0,0.0,0.0,0.0,0.0,0.0,-2.2361,-2.226,-2.253,-2.3086,-2.3611,-2.4068,-2.5169,-2.6082,-2.664,-2.7842,-2.8671,-2.8942,-2.8993,-2.9247,-2.9803,-3.0021,-3.0294,-3.0852,-3.1089,-3.1512,-3.2273,-3.2882,-3.3457,-3.4134,-3.4928,-3.5408,-3.5487,-3.5549,-3.5526,-3.5291,-3.4546,-3.3678,-3.283,-3.2035,-3.1539,-3.1611,-3.1582,-3.1509,-3.1496,-3.1496,-3.1496,-3.1271,-3.1316,-3.1077,-3.0537,-2.9879,-2.9175,-2.8757,-2.8083,-2.7585,-2.7585,-2.7585,-2.7585,-2.9861,0.0,-2.9335,-2.8987,0.0,-2.8987,-2.8987,-2.8994,-2.8822,-2.8639,-2.8394,-2.7908,-2.7718,-2.7734,-2.7701,-2.7575,-2.7353,-2.7489,-2.7504,-2.7461,-2.7384,-2.7307,-2.7246,-2.7133,-2.7085,-2.7119,-2.7119,-2.7037,-2.6956,-2.6907,-2.6875,-2.6809,-2.598,-2.5423,-2.5017,-2.3951,-2.3224,-2.2868,-2.2482,-2.2124,-2.1752,-2.1844,-2.1396,-2.0382,-2.0073,0.0,0.0,0.0,0.0,0.0,0.0,0.0,0.0,0.0,0.0,-1.9792,-1.9384,-1.9704,-2.1008,-2.113,-2.211,-2.4306,-2.5169,-2.5101,-2.4034,-2.4508,-2.505,-2.5557,-2.6708,-2.7689,-2.8332,-2.9093,-2.9685,-3.0042,-3.0093,-3.0243,-3.0565,-3.0632,-3.0801,-3.1106,-3.119,-3.1529,-3.2391,-3.3034,-3.3677,-3.4404,-3.5148,-3.5532,-3.5429,-3.5429,-3.5321,-3.4906,-3.4732,-3.4043,-3.283,-3.1979,-3.1496,-3.1496,-3.1496,-3.1496,-3.1496,-3.1496,-3.1421,-3.1092,-3.1002,-3.0821,-3.0178,-2.9535,-2.8996,-2.8637,-2.8064,-2.7615,-2.7585,-2.7585,-2.7585,-2.939,-2.9934,-2.928,-2.8987,-2.8987,-2.8987,-2.8987,-2.8994,0.0,0.0,0.0,-2.8662,-2.8475,-2.8402,-2.8475,-2.8204,-2.7733,-2.7883,-2.7915,-2.7728,-2.7472,-2.7274,-2.7119,-2.6842,-2.6708,-2.6708,-2.6708,-2.6708,-2.6708,-2.6708,-2.6708,-2.664,-2.6099,-2.5676,-2.5338,-2.3934,-2.2902,-2.2347,-2.2313,-2.2229,-2.2124,-2.2163,-2.1857,-2.1161,-2.0624,-2.0078,-1.9521,-1.892,-1.9185,-2.0368,-1.9378,-1.9527,-2.1238,-2.0582,-2.0223,-2.0426,-2.0475,-2.1145,-2.2564,-2.2818,-2.3784,-2.5846,-2.7114,-2.7046,-2.5203,-2.5575,-2.6201,-2.7029,-2.7977,-2.8973,-3.0006,-3.0226,-3.0531,-3.1123,-3.119,-3.1173,-3.1173,-3.119,-3.1173,-3.119,-3.119,-3.1529,-3.2429,-3.3034,-3.3744,-3.4556,-3.525,-3.5487,-3.5251,-3.5111,-3.4842,-3.4358,-3.4643,-3.4561,-3.3002,-3.1979,-3.1553,-3.1496,-3.1496,-3.1496,-3.1496,-3.1406,-3.1092,-3.0657,-3.0432,-3.0148,-2.9696,-2.9101,-2.8622,-2.8592,-2.8053,-2.7585,-2.7585,-2.7585,-2.7585,-2.9078,-2.9152,-2.906,-2.8987,-2.8987,-2.8987,-2.8987,-2.8982,-2.8798,-2.8654,-2.8533,-2.88,-2.8564,-2.8023,-2.8634,-2.8635,-2.8132,-2.8251,-2.8192,-2.7957,-2.7683,-2.743,-2.7165,-2.6858,-2.6708,-2.6708,-2.6708,-2.6708,-2.6708,-2.6708,-2.6708,-2.6691,-2.659,-2.5896,-2.4626,-2.3207,-2.2398,-2.2313,-2.2313,-2.1989,-2.1376,-2.1373,-2.0983,-2.0238,-2.0137,-2.0014,-1.9907,-1.9818,-1.9852,-2.0085,-2.0317,-2.0398,-2.0255,-2.0568,-2.0807,-2.1061,-2.1661,-2.2632,-2.4085,-2.4797,-2.5812,-2.73,-2.7689,-2.7655,-2.7401,-2.8027,-2.8519,-2.8688,-2.9347,-2.9886,-3.0142,-3.0666,-3.1038,-3.1157,-3.119,-3.119,-3.119,-3.119,-3.119,-3.119,-3.119,-3.1749,-3.2949,-3.3339,-3.3947,-3.5098,-3.5476,-3.5418,-3.4913,-3.4537,-3.421,-3.3919,-3.4399,-3.4202,-3.2911,-3.1979,-3.1553,-3.1496,-3.1481,-3.1421,-3.1421,-3.0972,-3.0597,-3.0477,-3.0013,-2.9696,-2.9517,-2.9041,-2.8607,-2.8487,-2.7979,-2.7615,-2.76,-2.7615,-2.763,-2.8987,-2.8987,-2.8987,-2.8987,-2.8987,-2.8987,-2.8987,-2.8994,-2.8905,-2.9028,-2.9264,-2.9313,-2.9161,-2.8917,-2.9183,-2.903,-2.8479,-2.8644,-2.8594,-2.8304,-2.7943,-2.7627,-2.734,-2.6907,-2.6708,-2.6708,-2.6708,-2.6708,-2.6708,-2.6708,-2.6708,-2.6657,-2.6302,-2.5558,-2.4491,-2.3427,-2.2699,-2.2313,-2.2313,-2.2127,-2.1803,-2.1803,-2.1634,-2.1248,-2.0889,-2.0653,-2.0653,-2.0221,-2.02,-2.0636,-2.0729,-2.0933,-2.1231,-2.1471,-2.1654,-2.1803,-2.2479,-2.3376,-2.4423,-2.593,-2.708,-2.7756,-2.8584,-2.9058,-2.9041,-2.9008,-2.9179,-2.955,-2.9922,-3.0294,-3.0649,-3.1004,-3.119,-3.119,-3.119,-3.119,-3.119,-3.119,-3.119,-3.119,-3.119,-3.1765,-3.322,-3.3656,-3.4249,-3.5368,-3.5509,-3.5234,-3.4714,-3.4317,-3.3892,-3.3559,-3.3517,-3.323,-3.2492,-3.191,-3.1553,-3.1496,-3.1182,-3.1016,-3.0913,-3.0432,-2.9924,-2.9535,-2.922,-2.8948,-2.8648,-2.8304,-2.8094,-2.8034,-2.7854,-2.7615,-2.7615,-2.7869,-2.8019,-2.8987,-2.8987,-2.8987,-2.8987,-2.8987,-2.8987,-2.8987,-2.8987,-2.8987,-2.9295,-2.9721,-2.9668,-2.9602,-2.9515,-2.9588,-2.9324,-2.8816,-2.8917,-2.8858,-2.86,-2.8165,-2.7815,-2.7491,-2.7005,-2.6758,-2.6742,-2.6725,-2.6708,-2.6708,-2.6708,-2.6708,-2.6607,-2.5795,-2.505,-2.4491,-2.3611,-2.2868,-2.233,-2.2313,-2.2313,-2.2313,-2.2313,-2.2313,-2.2262,-2.1735,-2.1431,-2.1414,-2.0856,-2.0809,-2.1376,-2.1238,-2.1478,-2.2229,-2.2313,-2.2364,-2.2581,-2.3241,-2.4051,-2.4998,-2.6725,-2.7874,-2.8094,-2.9328,-3.0156,-3.0277,-2.982,-2.9738,-3.0243,-3.0362,-3.0615,-3.1038,-3.119,-3.119,-3.119,-3.119,-3.119,-3.119,-3.119,-3.119,-3.119,-3.119,-3.1749,-3.3055,-3.3761,-3.4406,-3.5295,-3.5452,-3.5165,-3.4769,-3.4292,-3.3848,-3.3277,-3.2645,-3.2231,-3.2023,-3.1754,-3.145,-3.1331,-3.0868,-3.0552,-3.0313,-2.9789,-2.9265,-2.8771,-2.8487,-2.8233,-2.7735,-2.763,-2.7645,-2.766,-2.7615,-2.766,-2.7884,-2.8203,-2.8323,-2.8987,-2.8987,-2.8987,-2.8987,-2.8987,-2.8987,-2.8987,-2.8987,-2.8987,-2.903,-2.916,-2.9573,-2.9432,-2.9022,-2.951,-2.9428,-2.89,-2.8964,-2.8881,-2.8669,-2.8281,-2.794,-2.7672,-2.7182,-2.6942,-2.6876,-2.6758,-2.6708,-2.6708,-2.6708,-2.6708,-2.6539,-2.5303,-2.4592,-2.4355,-2.3122,-2.2378,-2.2313,-2.2313,-2.2313,-2.2313,-2.2313,-2.2313,-2.2313,-2.2229,-2.2195,-2.2144,-2.2127,-2.211,-2.2178,-2.2161,-2.2195,-2.2279,-2.2313,-2.2584,-2.3257,-2.3983,-2.4998,-2.637,-2.7317,-2.8128,-2.8839,-2.9651,-3.0412,-3.0987,-3.1004,-3.0987,-3.1038,-3.1072,-3.1089,-3.119,-3.119,-3.119,-3.119,-3.119,-3.119,-3.119,-3.119,-3.119,-3.119,-3.119,-3.1749,-3.3085,-3.3596,-3.4172,-3.5414,-3.5543,-3.5383,-3.5095,-3.4602,-3.3935,-3.313,-3.2256,-3.171,-3.1596,-3.1553,-3.1227,-3.0733,-3.0537,-3.0193,-2.9699,-2.916,-2.8637,-2.8427,-2.8098,-2.7735,-2.7675,-2.7585,-2.7585,-2.7585,-2.7645,-2.7779,-2.8319,-2.8592,-2.8412,-2.8987,-2.8987,-2.8987,-2.8987,-2.8987,-2.8987,-2.8987,-2.8987,-2.8987,-2.8987,-2.903,-2.9229,-2.918,-2.8942,-2.9217,-2.9174,-2.8952,-2.8994,-2.8923,-2.8731,-2.8425,-2.8129,-2.784,-2.7398,-2.7135,-2.6989,-2.6791,-2.6708,-2.6708,-2.6708,-2.6708,-2.6539,-2.5218,-2.4508,-2.4389,-2.3038,-2.2313,-2.2313,-2.2313,-2.2313,-2.2313,-2.2313,-2.2313,-2.2313,-2.2313,-2.2313,-2.2313,-2.2313,-2.2313,-2.2313,-2.2313,-2.2313,-2.2313,-2.2716,-2.3071,-2.3444,-2.4509,-2.5795,-2.7266,-2.8061,-2.8856,-2.9583,-3.0345,-3.0886,-3.1157,-3.119,-3.119,-3.119,-3.119,-3.119,-3.119,-3.119,-3.119,-3.119,-3.119,-3.1207,-3.119,-3.1207,-3.119,-3.119,-3.119,-3.1765,-3.3169,-3.4146,-3.489,-3.5515,-3.5571,-3.5481,-3.5373,-3.4977,-3.4121,-3.3026,-3.2126,-3.168,-3.1488,-3.1122,-3.0808,-3.0462,-2.9849,-2.9235,-2.9026,-2.8442,-2.8019,-2.8019,-2.7779,-2.76,-2.76,-2.7585,-2.7585,-2.7585,-2.763,-2.7794,-2.8457,-2.8906,-2.8966,-2.8987,-2.8987,-2.8987,-2.8987,-2.8987,-2.8987,-2.8987,-2.8987,-2.8987,-2.8987,-2.8987,-2.8987,-2.8987,-2.8987,-2.8987,-2.8987,-2.8987,-2.8987,-2.8929,-2.881,-2.8583,-2.8334,-2.8055,-2.7607,-2.7272,-2.7101,-2.6825,-2.6708,-2.6708,-2.6708,-2.6708,-2.6488,-2.5235,-2.4508,-2.4338,-2.3038,-2.2313,-2.2313,-2.2313,-2.2313,-2.2313,-2.2313,-2.2313,-2.2313,-2.2313,-2.2313,-2.2313,-2.2313,-2.2313,-2.2313,-2.2496,-2.2598,-2.2617,-2.3291,-2.3782,-2.4069,-2.5186,-2.6454,-2.7722,-2.8552,-2.9313,-3.0057,-3.0784,-3.119,-3.119,-3.119,-3.119,-3.119,-3.119,-3.119,-3.119,-3.119,-3.119,-3.1207,-3.1362,-3.1495,-3.1532,-3.163,-3.185,-3.1799,-3.1952,-3.2256,-3.3558,-3.4721,-3.5566,-3.5583,-3.5577,-3.5532,-3.5441,-3.5031,-3.4219,-3.2976,-3.2316,-3.1686,-3.114,-3.0597,-3.0253,-2.9849,-2.9131,-2.8667,-2.8397,-2.7854,-2.7615,-2.7779,-2.7645,-2.7585,-2.7585,-2.7585,-2.7585,-2.7585,-2.7615,-2.7914,-2.8786,-2.928,-2.9699,-2.8987,-2.8987,-2.8987,-2.8987,-2.8987,-2.8987,-2.8987,-2.8987,-2.8987,-2.8987,-2.8987,-2.8987,-2.8987,-2.8987,-2.8987,-2.8987,-2.8987,-2.8987,-2.897,-2.8893,-2.8755,-2.8543,-2.8273,-2.7818,-2.7461,-2.7197,-2.6858,-2.6708,-2.6708,-2.6708,-2.6708,-2.6607,-2.5218,-2.4508,-2.4305,-2.3038,-2.2313,-2.2313,-2.2313,-2.2313,-2.2313,-2.2313,-2.2313,-2.2313,-2.2313,-2.2313,-2.2313,-2.2313,-2.2313,-2.2313,-2.2902,-2.3291,-2.3408,-2.4036,-2.4745,-2.5439,-2.6184,-2.6979,-2.779,-2.8586,-2.9348,-3.0091,-3.0801,-3.119,-3.119,-3.119,-3.119,-3.119,-3.119,-3.119,-3.119,-3.119,-3.1224,-3.1309,-3.1853,-3.2158,-3.2259,-3.2763,-3.3237,-3.322,-3.3169,-3.3491,-3.4303,-3.5131,-3.5532,-3.5577,-3.5526,-3.5429,-3.5205,-3.4739,-3.3987,-3.3196,-3.248,-3.1757,-3.0162,-2.9861,-2.949,-2.9041,-2.8786,-2.8368,-2.7959,-2.76,-2.76,-2.7585,-2.7585,-2.7585,-2.7585,-2.7585,-2.7585,-2.7585,-2.7585,-2.8019,-2.8846,-2.9355,-2.9876,-2.8987,-2.8987,-2.8987,-2.8987,-2.8987,-2.8987,-2.8987,-2.8987,-2.8987,-2.8987,-2.8987,-2.8987,-2.8987,-2.8987,-2.8987,-2.8987,-2.8987,-2.8987,-2.8994,-2.8952,-2.8905,-2.8749,-2.8453,-2.8014,-2.7639,-2.7371,-2.694,-2.6708,-2.6708,-2.6708,-2.6708,-2.6454,-2.5235,-2.4508,-2.4237,-2.3038,-2.2313,-2.2313,-2.2313,-2.2313,-2.2313,-2.2313,-2.2313,-2.2313,-2.2313,-2.2313,-2.2313,-2.2313,-2.2313,-2.2313,-2.2564,-2.2919,-2.3444,-2.4558,-2.5524,-2.6218,-2.6556,-2.7249,-2.8383,-2.884,-2.9534,-3.0666,-3.1021,-3.119,-3.119,-3.119,-3.119,-3.119,-3.119,-3.119,-3.119,-3.119,-3.1413,-3.1836,-3.2141,-3.2547,-3.2899,-3.3254,-3.3389,-3.3457,-3.3761,-3.4257,-3.4573,-3.5126,-3.5583,-3.56,-3.5458,-3.5211,-3.4873,-3.4366,-3.3627,-3.2484,-3.1824,-3.0994,-2.9267,-2.9412,-2.9397,-2.8757,-2.8308,-2.8019,-2.763,-2.76,-2.7585,-2.7585,-2.7585,-2.7585,-2.7585,-2.7585,-2.7585,-2.7585,-2.7585,-2.7959,-2.8757,-2.916,-2.9891,-2.939,-2.9335,-2.9115,-2.8987,-2.8987,-2.8987,-2.8987,-2.8987,-2.8987,-2.8987,-2.8987,-2.8987,-2.8987,-2.8987,-2.8987,-2.8987,-2.8987,-2.8987,-2.8994,-2.8952,-2.8959,-2.8792,-2.8466,-2.8041,-2.7683,-2.7371,-2.6923,-2.6708,-2.6708,-2.6708,-2.6708,-2.6607,-2.5439,-2.4728,-2.4338,-2.3257,-2.2567,-2.2364,-2.2313,-2.2313,-2.2313,-2.2313,-2.2313,-2.2313,-2.2313,-2.2313,-2.2313,-2.2313,-2.2313,-2.233,-2.253,-2.3091,-2.4103,-2.527,-2.6167,-2.6623,-2.6691,-2.7368,-2.8722,-2.8993,-2.9653,-3.1021,-3.119,-3.119,-3.119,-3.119,-3.119,-3.119,-3.1207,-3.1241,-3.1515,-3.1565,-3.1769,-3.2276,-3.2716,-3.319,-3.3694,-3.3981,-3.4134,-3.4247,-3.4547,-3.4778,-3.4801,-3.5161,-3.5345,-3.5356,-3.5158,-3.4794,-3.4423,-3.3869,-3.3198,-3.204,-3.1665,-3.0937,-2.9823,-2.9681,-2.9112,-2.8438,-2.8109,-2.775,-2.7645,-2.763,-2.763,-2.7615,-2.76,-2.76,-2.76,-2.76,-2.763,-2.7645,-2.7645,-2.7884,-2.8442,-2.8865,-2.9612,-3.0191,-2.9971,-2.9347,-2.8987,-2.8987,-2.8987,-2.8987,-2.8987,-2.8987,-2.8987,-2.8987,-2.8987,-2.8987,-2.8987,-2.8987,-2.8987,-2.8987,-2.8987,-2.897,-2.8905,-2.8822,-2.8612,-2.83,-2.7876,-2.7489,-2.7181,-2.6858,-2.6691,-2.6708,-2.6708,-2.6708,-2.6556,-2.5913,-2.5186,-2.4541,-2.3799,-2.3038,-2.2519,-2.2417,-2.2479,-2.233,-2.2479,-2.2516,-2.2465,-2.2482,-2.2465,-2.2381,-2.233,-2.2313,-2.2381,-2.297,-2.4069,-2.5287,-2.6184,-2.6674,-2.6691,-2.6725,-2.7486,-2.8739,-2.9061,-2.9754,-3.0903,-3.119,-3.119,-3.119,-3.119,-3.119,-3.119,-3.1309,-3.1512,-3.2107,-3.2361,-3.2462,-3.2462,-3.3546,-3.4252,-3.4573,-3.5115,-3.5549,-3.5464,-3.5391,-3.5412,-3.5297,-3.5102,-3.5001,-3.4811,-3.4505,-3.4159,-3.3815,-3.3256,-3.268,-3.2213,-3.1784,-3.1108,-3.0531,-2.9939,-2.8948,-2.8079,-2.7854,-2.7615,-2.775,-2.7794,-2.7794,-2.7779,-2.7914,-2.7914,-2.7934,-2.7949,-2.8038,-2.8038,-2.7934,-2.8008,-2.8577,-2.9119,-2.9379,-3.0375,-2.9409,-2.9115,-2.8987,-2.8987,-2.8987,-2.8987,-2.8987,-2.8987,-2.8987,-2.8987,-2.8987,-2.8987,-2.8987,-2.8987,-2.8987,-2.8987,-2.9005,-2.8959,-2.8803,-2.8626,-2.8378,-2.8055,-2.7636,-2.7243,-2.6907,-2.6758,-2.6708,-2.6708,-2.6708,-2.6708,-2.6573,-2.5981,-2.5524,-2.5203,-2.4508,-2.3585,-2.2557,-2.3317,-2.3808,-2.3809,-2.3805,-2.3814,-2.3814,-2.3831,-2.3596,-2.3071,-2.2567,-2.233,-2.233,-2.3004,-2.4069,-2.5406,-2.6302,-2.6691,-2.6742,-2.7215,-2.7875,-2.8874,-2.9482,-3.0142,-3.097,-3.119,-3.119,-3.119,-3.119,-3.1207,-3.1292,-3.1788,-3.23,-3.2449,-3.3275,-3.3715,-3.38,-3.424,-3.4742,-3.5109,-3.543,-3.5583,-3.5577,-3.5458,-3.5211,-3.488,-3.4642,-3.4374,-3.4061,-3.3758,-3.3439,-3.306,-3.2726,-3.2231,-3.1811,-3.1564,-3.1402,-3.0834,-3.0298,-2.9564,-2.8738,-2.8289,-2.7959,-2.8019,-2.8139,-2.8094,-2.8139,-2.8259,-2.8319,-2.8323,-2.8371,-2.8491,-2.8461,-2.8381,-2.8657,-2.9107,-2.9505,-2.9849,-3.0375,-2.9445,-2.9133,-2.8987,-2.8987,-2.8987,-2.8987,-2.8987,-2.8987,-2.8987,-2.8987,-2.8987,-2.8987,-2.8987,-2.8987,-2.8987,-2.8987,-2.8987,-2.8912,-2.8694,-2.8438,-2.8188,-2.7858,-2.7382,-2.6988,-2.6758,-2.6708,-2.6708,-2.6708,-2.6708,-2.6708,-2.659,-2.6218,-2.5862,-2.5609,-2.5135,-2.4278,-2.3427,-2.4007,-2.4766,-2.5073,-2.4766,-2.4508,-2.4491,-2.4491,-2.4135,-2.3444,-2.319,-2.2987,-2.2953,-2.3646,-2.4678,-2.5575,-2.6285,-2.681,-2.7148,-2.757,-2.8264,-2.9262,-2.9837,-3.0429,-3.1021,-3.119,-3.119,-3.119,-3.119,-3.1275,-3.1684,-3.2235,-3.2795,-3.3228,-3.3867,-3.4595,-3.4895,-3.4912,-3.5092,-3.5515,-3.5577,-3.5526,-3.5418,-3.5205,-3.4818,-3.4423,-3.402,-3.3707,-3.3355,-3.3066,-3.283,-3.2492,-3.2247,-3.1868,-3.1611,-3.1538,-3.1315,-3.1016,-3.0597,-3.0178,-2.9535,-2.8936,-2.8607,-2.8457,-2.8678,-2.8753,-2.8858,-2.8978,-2.8978,-2.8981,-2.9032,-2.911,-2.8978,-2.8968,-2.9134,-2.9532,-3.0214,-3.0546,-3.0191,-3.0044,-2.9317,-2.8987,-2.8987,-2.8987,-2.8987,-2.8987,-2.8987,-2.8987,-2.8987,-2.8987,-2.8987,-2.8987,-2.8987,-2.8987,-2.8987,-2.8987,-2.8846,-2.8594,-2.8295,-2.7982,-2.755,-2.7119,-2.6859,-2.6708,-2.6708,-2.6708,-2.6708,-2.6708,-2.6708,-2.6674,-2.6607,-2.6353,-2.5862,-2.5676,-2.5321,-2.4743,-2.4709,-2.5408,-2.6425,-2.5441,-2.4728,-2.4762,-2.4778,-2.4423,-2.3763,-2.4,-2.4085,-2.3799,-2.478,-2.5423,-2.5795,-2.637,-2.7182,-2.7705,-2.7841,-2.8737,-2.9734,-3.0209,-3.0531,-3.1106,-3.119,-3.119,-3.119,-3.1326,-3.1616,-3.2124,-3.2639,-3.332,-3.4121,-3.4573,-3.4928,-3.5447,-3.5464,-3.5532,-3.5583,-3.5526,-3.5389,-3.5182,-3.4787,-3.4284,-3.3841,-3.3403,-3.3044,-3.2749,-3.2477,-3.2287,-3.2163,-3.1925,-3.1712,-3.1597,-3.1496,-3.1421,-3.1167,-3.1017,-3.0614,-3.0163,-2.9699,-2.9564,-2.9205,-2.9325,-2.9307,-2.9427,-2.9564,-2.9621,-2.9714,-2.9806,-2.9884,-2.9918,-2.9856,-2.9729,-3.0051,-3.0757,-3.0981,-2.9849,-2.9299,-2.9078,-2.8987,-2.8987,-2.8987,-2.8987,-2.8987,-2.8987,-2.8987,-2.8987,-2.8987,-2.8987,-2.8987,-2.8987,-2.8987,-2.8987,-2.8987,-2.8864,-2.8556,-2.8165,-2.7589,-2.7084,-2.6841,-2.6742,-2.6691,-2.6708,-2.6708,-2.6708,-2.6708,-2.6708,-2.6708,-2.6691,-2.6607,-2.642,-2.637,-2.6334,-2.616,-2.6114,-2.6213,-2.6495,-2.6349,-2.6132,-2.6116,-2.6065,-2.5422,-2.4372,-2.4389,-2.4745,-2.5033,-2.5136,-2.5693,-2.6404,-2.7249,-2.779,-2.8027,-2.8889,-2.96,-3.0072,-3.0598,-3.0987,-3.114,-3.119,-3.119,-3.1207,-3.1718,-3.2039,-3.2496,-3.3279,-3.4104,-3.4523,-3.4979,-3.5363,-3.5532,-3.5616,-3.5616,-3.5594,-3.5435,-3.5228,-3.4833,-3.4366,-3.3764,-3.315,-3.2711,-3.237,-3.2007,-3.1853,-3.1768,-3.1754,-3.1726,-3.1568,-3.1553,-3.1496,-3.1496,-3.1436,-3.1331,-3.1077,-3.0687,-3.0522,-3.0687,-3.0342,-3.0148,-2.9909,-2.9741,-2.9968,-3.0058,-3.0402,-3.0629,-3.0718,-3.0629,-3.0763,-3.0702,-3.0868,-3.1356,-3.1326,-2.9427,-2.8987,-2.8987,-2.8987,-2.8987,-2.8987,-2.8987,-2.8987,-2.8987,-2.8987,-2.8987,-2.8987,-2.8987,-2.8987,-2.8987,-2.8987,-2.8987,-2.8987,-2.8846,-2.8536,-2.8003,-2.7367,-2.6858,-2.6708,-2.6708,-2.6708,-2.6708,-2.6708,-2.6708,-2.6708,-2.6708,-2.6708,-2.6708,-2.6708,-2.6657,-2.6691,-2.6708,-2.6689,-2.6708,-2.6707,-2.6705,-2.6707,-2.6691,-2.6607,-2.6437,-2.5727,-2.5017,-2.4677,-2.4965,-2.5761,-2.5964,-2.6234,-2.708,-2.7773,-2.8348,-2.8703,-2.9632,-3.0192,-3.0581,-3.0987,-3.1157,-3.119,-3.119,-3.1376,-3.163,-3.209,-3.2378,-3.3309,-3.4066,-3.4573,-3.4979,-3.5363,-3.5566,-3.5616,-3.5616,-3.56,-3.5616,-3.535,-3.4984,-3.448,-3.3935,-3.3314,-3.252,-3.2219,-3.1912,-3.1655,-3.1582,-3.1553,-3.1524,-3.1496,-3.1496,-3.1496,-3.1496,-3.1496,-3.1496,-3.1421,-3.1391,-3.1017,-3.0957,-3.1212,-3.1092,-3.0821,-3.0657,-3.0432,-3.0492,-3.0567,-3.0776,-3.0928,-3.0943,-3.1002,-3.1361,-3.1496,-3.1496,-3.1496,-3.1496,-2.8987,-2.8987,-2.8987,-2.8987,-2.8987,-2.8987,-2.8987,-2.8987,-2.8987,-2.8987,-2.8987,-2.8987,-2.8987,-2.8987,-2.8987,-2.8987,-2.8987,-2.8987,-2.8773,-2.8388,-2.7832,-2.7213,-2.6758,-2.6708,-2.6708,-2.6708,-2.6708,-2.6708,-2.6708,-2.6708,-2.6708,-2.6708,-2.6708,-2.6708,-2.6708,-2.6708,-2.6708,-2.6708,-2.6708,-2.6471,-2.6336,-2.6336,-2.6369,-2.6116,-2.5541,-2.5473,-2.527,-2.4998,-2.5117,-2.6623,-2.6691,-2.6979,-2.7689,-2.8111,-2.8939,-2.9786,-3.0159,-3.0565,-3.1004,-3.114,-3.119,-3.119,-3.119,-3.1512,-3.2056,-3.2412,-3.2983,-3.4095,-3.4501,-3.4891,-3.5211,-3.547,-3.5464,-3.5458,-3.5487,-3.5509,-3.5464,-3.5251,-3.4818,-3.4194,-3.3537,-3.2884,-3.233,-3.194,-3.1698,-3.1568,-3.1496,-3.1496,-3.1496,-3.1496,-3.1496,-3.1496,-3.1496,-3.1496,-3.1496,-3.1481,-3.1481,-3.1361,-3.1301,-3.1406,-3.1406,-3.1256,-3.1301,-3.1182,-3.0717,-3.0567,-3.0717,-3.0866,-3.0883,-3.1224,-3.1462,-3.148,-3.1496,-3.1496,-3.1496,-2.8987,-2.8987,-2.8987,-2.8987,-2.8987,-2.8987,-2.8987,-2.8987,-2.8987,-2.8987,-2.8987,-2.8987,-2.8987,-2.8987,-2.8987,-2.8987,-2.8975,-2.894,-2.8663,-2.8024,-2.7701,-2.7197,-2.6808,-2.6708,-2.6708,-2.6708,-2.6708,-2.6708,-2.6708,-2.6708,-2.6708,-2.6708,-2.6708,-2.6708,-2.6708,-2.6708,-2.6708,-2.6691,-2.6674,-2.6084,-2.5378,-2.5611,-2.5575,-2.5066,-2.4374,-2.4628,-2.5253,-2.4897,-2.5252,-2.6302,-2.6742,-2.7046,-2.7942,-2.9482,-3.026,-3.026,-3.0683,-3.1021,-3.1157,-3.119,-3.119,-3.119,-3.1224,-3.1512,-3.2242,-3.2852,-3.3465,-3.429,-3.4807,-3.5023,-3.4981,-3.5048,-3.5024,-3.5001,-3.5024,-3.5008,-3.5024,-3.497,-3.4569,-3.3869,-3.3209,-3.2559,-3.1796,-3.1668,-3.1539,-3.1496,-3.1496,-3.1496,-3.1496,-3.1496,-3.1496,-3.1496,-3.1496,-3.1496,-3.1496,-3.1496,-3.1496,-3.1496,-3.1496,-3.1496,-3.1496,-3.1301,-3.1182,-3.0928,-3.0612,-3.0537,-3.0387,-3.0475,-3.0417,-3.0981,-3.1489,-3.1507,-3.1495,-3.1509,-3.1496,-2.8987,-2.8987,-2.8987,-2.8987,-2.8987,-2.8987,-2.8987,-2.8987,-2.8987,-2.8987,-2.8987,-2.8987,-2.8987,-2.8987,-2.8987,-2.8987,-2.8952,-2.8864,-2.8487,-2.794,-2.7612,-2.7197,-2.6808,-2.6708,-2.6708,-2.6708,-2.6708,-2.6708,-2.6708,-2.6708,-2.6708,-2.6708,-2.6708,-2.6708,-2.6708,-2.6691,-2.6708,-2.659,-2.6319,-2.5713,-2.5042,-2.4937,-2.4746,-2.422,-2.3932,-2.4372,-2.4915,-2.5101,-2.5642,-2.6387,-2.6708,-2.7097,-2.8163,-2.9973,-3.0835,-3.0818,-3.092,-3.119,-3.119,-3.119,-3.119,-3.119,-3.119,-3.185,-3.251,-3.322,-3.3845,-3.4494,-3.4835,-3.4809,-3.4374,-3.4284,-3.4284,-3.4284,-3.4301,-3.4284,-3.4309,-3.4431,-3.4252,-3.354,-3.2949,-3.2312,-3.1781,-3.1553,-3.1496,-3.1496,-3.1496,-3.1496,-3.1496,-3.1496,-3.1496,-3.1496,-3.1496,-3.1496,-3.1496,-3.1496,-3.1496,-3.1496,-3.1496,-3.1496,-3.1496,-3.1197,-3.0868,-3.0567,-3.0208,-2.9864,-2.9744,-2.9846,-3.0201,-3.0988,-3.1438,-3.1474,-3.1493,-3.1481,-3.1496,-2.8987,-2.8987,-2.8987,-2.8987,-2.8987,-2.8987,-2.8987,-2.8987,-2.8987,-2.8987,-2.8987,-2.8987,-2.8987,-2.8987,-2.8987,-2.8987,-2.8935,-2.8712,-2.8357,-2.7911,-2.7612,-2.7197,-2.6808,-2.6708,-2.6708,-2.6708,-2.6708,-2.6708,-2.6708,-2.6708,-2.6708,-2.6708,-2.6708,-2.6708,-2.6708,-2.6691,-2.6556,-2.6285,-2.5914,-2.5173,-2.462,-2.4329,-2.4019,-2.3731,-2.3881,-2.4406,-2.4847,-2.5287,-2.5913,-2.6623,-2.6708,-2.73,-2.8501,-3.0006,-3.119,-3.1157,-3.1173,-3.1173,-3.119,-3.119,-3.119,-3.119,-3.136,-3.1982,-3.2959,-3.3486,-3.404,-3.4449,-3.4666,-3.4119,-3.3598,-3.3537,-3.3521,-3.3521,-3.3495,-3.3469,-3.3515,-3.37,-3.3489,-3.3203,-3.2691,-3.2158,-3.1752,-3.1496,-3.1496,-3.1496,-3.1496,-3.1496,-3.1496,-3.1496,-3.1496,-3.1496,-3.1496,-3.1496,-3.1496,-3.1496,-3.1496,-3.1496,-3.1496,-3.1496,-3.1391,-3.0806,-3.0372,-3.0088,-2.9744,-2.934,-2.9056,-2.9056,-2.9687,-3.08,-3.1386,-3.1483,-3.1504,-3.1509,-3.1496,-2.8987,-2.8987,-2.8987,-2.8987,-2.8987,-2.8987,-2.8987,-2.8987,-2.8987,-2.8987,-2.8987,-2.8987,-2.8987,-2.8987,-2.8987,-2.8987,-2.8929,-2.8712,-2.8308,-2.7841,-2.7507,-2.7093,-2.6554,-2.6404,-2.6522,-2.6708,-2.6657,-2.6607,-2.6691,-2.6708,-2.6708,-2.6708,-2.6708,-2.6708,-2.6708,-2.6657,-2.6336,-2.5881,-2.5559,-2.4752,-2.3713,-2.3437,-2.3596,-2.3393,-2.368,-2.4323,-2.5203,-2.5541,-2.5947,-2.6607,-2.6691,-2.7503,-2.8824,-3.0362,-3.1089,-3.119,-3.119,-3.119,-3.119,-3.119,-3.119,-3.1309,-3.1701,-3.2334,-3.3106,-3.3611,-3.401,-3.4104,-3.3901,-3.3293,-3.3002,-3.2895,-3.2922,-3.2922,-3.2895,-3.2895,-3.2891,-3.2823,-3.2761,-3.2594,-3.2308,-3.2086,-3.1737,-3.1496,-3.1496,-3.1496,-3.1496,-3.1496,-3.1496,-3.1496,-3.1496,-3.1496,-3.1496,-3.1496,-3.1496,-3.1496,-3.1496,-3.1496,-3.1496,-3.1496,-3.1167,-3.0328,-2.9861,-2.9879,-2.931,-2.8607,-2.8427,-2.8397,-2.8764,-2.9579,-3.0466,-3.1416,-3.1503,-3.1496,-3.1496,-2.8987,-2.8987,-2.8987,-2.8987,-2.8987,-2.8987,-2.8987,-2.8987,-2.8987,-2.8987,-2.8987,-2.8987,-2.8987,-2.8987,-2.8987,-2.8987,-2.8917,-2.8712,-2.8128,-2.7483,-2.7017,-2.6385,-2.5724,-2.5608,-2.5557,-2.5675,-2.5896,-2.6353,-2.6674,-2.6708,-2.6708,-2.6708,-2.6708,-2.6708,-2.6708,-2.6691,-2.6404,-2.5914,-2.5339,-2.458,-2.3375,-2.3211,-2.2972,-2.3376,-2.3816,-2.4543,-2.5389,-2.6048,-2.6522,-2.7046,-2.6909,-2.7735,-2.9124,-3.0378,-3.119,-3.119,-3.119,-3.119,-3.119,-3.119,-3.119,-3.1275,-3.1901,-3.2512,-3.3045,-3.3467,-3.3702,-3.3447,-3.3113,-3.252,-3.2176,-3.216,-3.2132,-3.2132,-3.2191,-3.2191,-3.2148,-3.2059,-3.212,-3.2211,-3.2088,-3.1917,-3.1638,-3.1496,-3.1496,-3.1496,-3.1496,-3.1496,-3.1496,-3.1496,-3.1496,-3.1496,-3.1496,-3.1496,-3.1496,-3.1496,-3.1496,-3.1496,-3.1496,-3.1496,-3.1227,-3.0507,-3.0223,-3.0178,-2.9325,-2.8349,-2.7974,-2.7979,-2.8193,-2.8503,-2.9612,-3.0646,-3.1209,-3.1496,-3.1496,-2.8987,-2.8987,-2.8987,-2.8987,-2.8987,-2.8987,-2.8987,-2.8987,-2.8987,-2.8987,-2.8987,-2.8987,-2.8994,-2.8982,-2.894,-2.8917,-2.8863,-2.8492,-2.7668,-2.691,-2.6289,-2.551,-2.48,-2.4508,-2.4643,-2.4863,-2.5101,-2.5761,-2.6319,-2.6607,-2.6691,-2.6708,-2.6708,-2.6573,-2.6454,-2.6573,-2.6573,-2.5947,-2.5406,-2.4694,-2.4034,-2.3088,-2.2767,-2.3543,-2.4203,-2.488,-2.5845,-2.6319,-2.6962,-2.7468,-2.77,-2.8101,-2.9531,-3.0651,-3.1173,-3.119,-3.119,-3.119,-3.1224,-3.1444,-3.1529,-3.152,-3.2246,-3.2752,-3.2951,-3.3228,-3.3139,-3.2598,-3.2302,-3.2023,-3.171,-3.1553,-3.1643,-3.1837,-3.1852,-3.1838,-3.2135,-3.2209,-3.2207,-3.2179,-3.1973,-3.1809,-3.1661,-3.1496,-3.1496,-3.1496,-3.1496,-3.1496,-3.1496,-3.1496,-3.1496,-3.1496,-3.1496,-3.1496,-3.1496,-3.1496,-3.1496,-3.1496,-3.1496,-3.1496,-3.1241,-3.0838,-3.0672,-3.0372,-2.9487,-2.8573,-2.8094,-2.7884,-2.8397,-2.8895,-2.9385,-3.0103,-3.1062,-3.1481,-3.1496,-2.8987,-2.8987,-2.8987,-2.8987,-2.8987,-2.8987,-2.8987,-2.8987,-2.8987,-2.8987,-2.8987,-2.8975,-2.8952,-2.8881,-2.8773,-2.87,-2.8388,-2.771,-2.7023,-2.6391,-2.5602,-2.4886,-2.4452,-2.4523,-2.4254,-2.4254,-2.4491,-2.505,-2.5693,-2.6302,-2.6674,-2.6674,-2.6657,-2.6454,-2.6116,-2.6471,-2.6014,-2.5168,-2.5253,-2.4847,-2.3746,-2.2868,-2.3257,-2.4051,-2.4575,-2.5168,-2.6234,-2.6657,-2.708,-2.7874,-2.8821,-2.9362,-2.9856,-3.0668,-3.1089,-3.119,-3.119,-3.119,-3.1343,-3.1735,-3.206,-3.2193,-3.3012,-3.3517,-3.3319,-3.2958,-3.2723,-3.2308,-3.201,-3.1769,-3.1568,-3.154,-3.1809,-3.2123,-3.2318,-3.2662,-3.2931,-3.2706,-3.2661,-3.2557,-3.2482,-3.2139,-3.1855,-3.1661,-3.1496,-3.1496,-3.1511,-3.154,-3.1525,-3.1555,-3.1496,-3.1496,-3.1496,-3.1496,-3.1496,-3.1496,-3.1496,-3.1496,-3.1496,-3.1496,-3.1316,-3.1062,-3.0778,-3.0357,-2.9549,-2.9247,-2.9116,-2.9037,-2.9042,-2.9259,-2.9719,-3.0436,-3.1228,-3.1436,-3.1496,-2.8987,-2.8987,-2.8987,-2.8987,-2.8987,-2.8987,-2.8987,-2.8987,-2.8987,-2.8987,-2.8987,-2.9005,-2.8863,-2.8633,-2.8482,-2.8339,-2.8013,-2.7179,-2.6372,-2.5677,-2.4815,-2.3973,-2.3364,-2.3272,-2.3257,-2.346,-2.3746,-2.4288,-2.4983,-2.5693,-2.6218,-2.6674,-2.6691,-2.6607,-2.6116,-2.6522,-2.6336,-2.5913,-2.5609,-2.505,-2.422,-2.3797,-2.4019,-2.505,-2.5101,-2.571,-2.6404,-2.6725,-2.7334,-2.8282,-2.9317,-2.9997,-3.0451,-3.0956,-3.119,-3.119,-3.119,-3.1393,-3.1782,-3.2141,-3.2352,-3.2679,-3.3272,-3.3448,-3.3051,-3.2734,-3.2342,-3.1824,-3.1697,-3.1598,-3.1689,-3.1869,-3.2153,-3.2512,-3.2931,-3.3215,-3.3484,-3.3425,-3.329,-3.3154,-3.3016,-3.2824,-3.2661,-3.2542,-3.2467,-3.2392,-3.2213,-3.2004,-3.1869,-3.1705,-3.1615,-3.1496,-3.1496,-3.1496,-3.1496,-3.1496,-3.1496,-3.1496,-3.1496,-3.1496,-3.1466,-3.1256,-3.1002,-3.0836,-3.0387,-3.0193,-3.0165,-2.9879,-2.9574,-2.9791,-3.0071,-3.0693,-3.1259,-3.1451,-3.1496,-2.8987,-2.8987,-2.8987,-2.8987,-2.8987,-2.8987,-2.8987,-2.8987,-2.8987,-2.8994,-2.8959,-2.887,-2.8639,-2.8347,-2.8143,-2.7982,-2.7744,-2.6704,-2.583,-2.4947,-2.3984,-2.3098,-2.2688,-2.2412,-2.2412,-2.2313,-2.2902,-2.3528,-2.4237,-2.4982,-2.5794,-2.6623,-2.6691,-2.6522,-2.6488,-2.659,-2.6573,-2.6505,-2.5879,-2.5321,-2.4829,-2.4525,-2.4864,-2.5338,-2.5676,-2.5947,-2.6573,-2.6708,-2.7418,-2.8706,-2.9234,-2.9929,-3.0871,-3.1123,-3.119,-3.119,-3.119,-3.1624,-3.2141,-3.2572,-3.2714,-3.3007,-3.3123,-3.3102,-3.2605,-3.2358,-3.2275,-3.1867,-3.1883,-3.1913,-3.2049,-3.2512,-3.2871,-3.32,-3.3514,-3.3724,-3.3933,-3.4069,-3.4204,-3.4246,-3.4168,-3.4034,-3.384,-3.3673,-3.3526,-3.3379,-3.3051,-3.2572,-3.2153,-3.1809,-3.1645,-3.1496,-3.1496,-3.1496,-3.1496,-3.1496,-3.1496,-3.1496,-3.1496,-3.1496,-3.1466,-3.1466,-3.1346,-3.1152,-3.0986,-3.0943,-3.0838,-3.0447,-3.0103,-3.0466,-3.0768,-3.0857,-3.1169,-3.1362,-3.1496,-2.8987,-2.8987,-2.8987,-2.8987,-2.8987,-2.8987,-2.8987,-2.8987,-2.8987,-2.894,-2.8827,-2.8576,-2.8299,-2.8027,-2.7797,-2.7604,-2.7404,-2.5828,-2.5138,-2.4371,-2.3386,-2.2629,-2.231,-2.2313,-2.2313,-2.2313,-2.2533,-2.2919,-2.3494,-2.4271,-2.5371,-2.6488,-2.6623,-2.6251,-2.6201,-2.6488,-2.6674,-2.659,-2.6065,-2.5744,-2.5389,-2.5117,-2.505,-2.5524,-2.571,-2.5947,-2.664,-2.6793,-2.7435,-2.8908,-2.918,-2.986,-3.0939,-3.1157,-3.119,-3.1171,-3.1151,-3.1692,-3.2416,-3.2765,-3.3028,-3.3165,-3.3054,-3.2716,-3.24,-3.2044,-3.2013,-3.2407,-3.2482,-3.2706,-3.3066,-3.3455,-3.3634,-3.3888,-3.4173,-3.4532,-3.4756,-3.4966,-3.51,-3.5295,-3.5158,-3.4859,-3.4799,-3.4556,-3.4317,-3.4158,-3.3245,-3.2706,-3.2093,-3.1735,-3.16,-3.1496,-3.1496,-3.1496,-3.1496,-3.1496,-3.1496,-3.1496,-3.1496,-3.1496,-3.1496,-3.1496,-3.1496,-3.1436,-3.1256,-3.1391,-3.1421,-3.0928,-3.0748,-3.1197,-3.1407,-3.1274,-3.1244,-3.1407,-3.1496,-2.8558,-2.8987,-2.8987,-2.8987,-2.8987,-2.8987,-2.8987,-2.8987,-2.9005,-2.8839,-2.8577,-2.8286,-2.794,-2.7622,-2.7378,-2.6919,-2.6267,-2.5263,-2.4586,-2.3792,-2.2909,-2.2409,-2.2313,-2.233,-2.2313,-2.2313,-2.2347,-2.2685,-2.341,-2.3831,-2.4712,-2.5676,-2.642,-2.6539,-2.6522,-2.6505,-2.664,-2.6657,-2.6437,-2.6268,-2.6218,-2.6082,-2.5981,-2.6218,-2.6285,-2.6387,-2.6742,-2.7199,-2.7977,-2.8738,-2.9225,-3.0123,-3.0954,-3.114,-3.1151,-3.1109,-3.1069,-3.1612,-3.2354,-3.2622,-3.274,-3.2793,-3.264,-3.2428,-3.2366,-3.2375,-3.2661,-3.2991,-3.335,-3.3589,-3.344,-3.3844,-3.4249,-3.4533,-3.4816,-3.5175,-3.5355,-3.5459,-3.5489,-3.5444,-3.5444,-3.534,-3.5355,-3.5385,-3.513,-3.4816,-3.3814,-3.2901,-3.2333,-3.1809,-3.172,-3.1585,-3.157,-3.1511,-3.1496,-3.1496,-3.1496,-3.1496,-3.1496,-3.1496,-3.1496,-3.1496,-3.1496,-3.1496,-3.1496,-3.1481,-3.1421,-3.1271,-3.1286,-3.1451,-3.1496,-3.1466,-3.1481,-3.1496,-3.1496,-2.8136,-2.862,-2.8638,-2.8785,-2.8987,-2.8987,-2.8987,-2.8987,-2.8987,-2.8791,-2.8412,-2.8106,-2.7757,-2.7382,-2.7116,-2.6751,-2.6044,-2.5285,-2.4675,-2.3983,-2.3323,-2.2719,-2.255,-2.2431,-2.2313,-2.2313,-2.233,-2.2634,-2.2987,-2.3492,-2.4338,-2.5287,-2.6184,-2.6573,-2.6674,-2.6708,-2.6708,-2.6708,-2.6708,-2.6708,-2.6657,-2.664,-2.6623,-2.664,-2.6623,-2.664,-2.6877,-2.7317,-2.8112,-2.8855,-2.9548,-3.0273,-3.085,-3.1171,-3.1112,-3.1022,-3.107,-3.1394,-3.1922,-3.2402,-3.2483,-3.2493,-3.2284,-3.2273,-3.2451,-3.2662,-3.2871,-3.3724,-3.4083,-3.4218,-3.3963,-3.4562,-3.4786,-3.5026,-3.5145,-3.5415,-3.5429,-3.5489,-3.5489,-3.5474,-3.5489,-3.5489,-3.5489,-3.5459,-3.519,-3.4921,-3.4322,-3.3499,-3.2931,-3.2437,-3.1989,-3.1839,-3.1675,-3.1585,-3.1496,-3.1496,-3.1496,-3.1496,-3.1496,-3.1496,-3.1496,-3.1496,-3.1496,-3.1496,-3.1496,-3.1496,-3.1451,-3.1361,-3.1391,-3.1481,-3.1496,-3.1496,-3.1496,-3.1496,-3.1496,-2.7798,-2.7824,-2.7842,-2.8282,-2.8822,-2.8968,-2.8968,-2.8987,-2.8964,-2.8779,-2.8448,-2.8079,-2.7728,-2.7402,-2.7136,-2.6737,-2.6301,-2.5744,-2.5304,-2.4814,-2.39,-2.3444,-2.319,-2.2919,-2.2699,-2.2364,-2.255,-2.2733,-2.2564,-2.3712,-2.4423,-2.5049,-2.6048,-2.6708,-2.6708,-2.6708,-2.6708,-2.6708,-2.6708,-2.6708,-2.6708,-2.6708,-2.6708,-2.6708,-2.6708,-2.6708,-2.686,-2.7621,-2.8349,-2.8941,-2.982,-3.0528,-3.1033,-3.1117,-3.1035,-3.0868,-3.1059,-3.1355,-3.1694,-3.2367,-3.245,-3.2185,-3.194,-3.2057,-3.2377,-3.2647,-3.3125,-3.4083,-3.4518,-3.4816,-3.51,-3.5385,-3.5355,-3.537,-3.5459,-3.5489,-3.5489,-3.5489,-3.5489,-3.5489,-3.5489,-3.5489,-3.5489,-3.5415,-3.513,-3.4893,-3.4608,-3.4098,-3.3529,-3.3006,-3.2527,-3.2123,-3.1929,-3.169,-3.16,-3.1525,-3.1496,-3.1496,-3.1496,-3.1496,-3.1496,-3.1496,-3.1496,-3.1496,-3.1496,-3.1496,-3.1496,-3.1481,-3.1496,-3.1496,-3.1496,-3.1496,-3.1496,-3.1496,-3.1496,-2.7016,-2.7053,-2.7567,-2.7658,-2.7501,-2.7989,-2.8491,-2.8938,-2.8881,-2.87,-2.8412,-2.8093,-2.7725,-2.7382,-2.7115,-2.6719,-2.6047,-2.5845,-2.5473,-2.4847,-2.4306,-2.4203,-2.3983,-2.378,-2.3441,-2.3274,-2.3376,-2.3359,-2.3105,-2.4152,-2.4812,-2.5406,-2.6116,-2.6623,-2.6708,-2.6708,-2.6708,-2.6708,-2.6708,-2.6708,-2.6708,-2.6708,-2.6708,-2.6708,-2.6708,-2.6725,-2.686,-2.7858,-2.8671,-2.9196,-3.0057,-3.083,-3.1021,-3.0998,-3.0723,-3.0596,-3.069,-3.0951,-3.1305,-3.1765,-3.1962,-3.1811,-3.1728,-3.1897,-3.2378,-3.2946,-3.3619,-3.4337,-3.4876,-3.5205,-3.5429,-3.5459,-3.5444,-3.5444,-3.5489,-3.5489,-3.5489,-3.5489,-3.5489,-3.5489,-3.5489,-3.5457,-3.5457,-3.5392,-3.5153,-3.4959,-3.4735,-3.4622,-3.4158,-3.3574,-3.3051,-3.2587,-3.2243,-3.1914,-3.1705,-3.1615,-3.1525,-3.1496,-3.1496,-3.1496,-3.1496,-3.1496,-3.1496,-3.1496,-3.1496,-3.1496,-3.1496,-3.1496,-3.1496,-3.1496,-3.1496,-3.1496,-3.1496,-3.1496,-3.1496,-2.6172,-2.6245,-2.6751,-2.6851,-2.6741,-2.7457,-2.8253,-2.889,-2.8888,-2.8718,-2.8476,-2.8246,-2.7915,-2.755,-2.7255,-2.6916,-2.6128,-2.6063,-2.5896,-2.5235,-2.4965,-2.4914,-2.4846,-2.4643,-2.4135,-2.4017,-2.4135,-2.4186,-2.3864,-2.4526,-2.5253,-2.5947,-2.6454,-2.6657,-2.6708,-2.6708,-2.6708,-2.6708,-2.6708,-2.6708,-2.6708,-2.6708,-2.6708,-2.6708,-2.6742,-2.681,-2.7351,-2.8163,-2.9128,-2.9617,-3.0342,-3.1078,-3.0938,-3.0683,-3.0381,-3.0201,-3.0274,-3.0573,-3.0902,-3.1432,-3.1623,-3.1553,-3.1496,-3.1944,-3.2617,-3.3215,-3.3963,-3.4666,-3.5205,-3.54,-3.5489,-3.5489,-3.5489,-3.5489,-3.5489,-3.5489,-3.5489,-3.5489,-3.5489,-3.5489,-3.5311,-3.5311,-3.5279,-3.5294,-3.5154,-3.5023,-3.4907,-3.4793,-3.4663,-3.4171,-3.3633,-3.3185,-3.2557,-3.2064,-3.1809,-3.1675,-3.1585,-3.1511,-3.1496,-3.1496,-3.1496,-3.1496,-3.1496,-3.1496,-3.1496,-3.1496,-3.1496,-3.1496,-3.1496,-3.1496,-3.1496,-3.1496,-3.1496,-3.1496,-3.1496,-2.5403,-2.5384,-2.5403,-2.5852,-2.6539,-2.72,-2.8062,-2.8828,-2.8782,-2.8651,-2.8548,-2.8288,-2.7996,-2.7741,-2.7562,-2.7289,-2.6936,-2.6839,-2.6639,-2.6386,-2.5862,-2.5727,-2.5439,-2.51,-2.4846,-2.4643,-2.4711,-2.4948,-2.4677,-2.527,-2.5998,-2.6437,-2.6623,-2.6708,-2.6708,-2.6708,-2.6708,-2.6708,-2.6708,-2.6708,-2.6708,-2.6708,-2.6708,-2.6708,-2.6725,-2.7063,-2.7637,-2.843,-2.9224,-2.9916,-3.0709,-3.0878,-3.0797,-3.0477,-3.0054,-2.9822,-2.9903,-3.0232,-3.0614,-3.1179,-3.1599,-3.169,-3.166,-3.2347,-3.2961,-3.3455,-3.4188,-3.4801,-3.531,-3.5415,-3.5489,-3.5489,-3.5489,-3.5489,-3.5489,-3.5489,-3.5489,-3.5489,-3.5489,-3.5377,-3.5118,-3.4971,-3.4824,-3.4806,-3.4787,-3.4762,-3.4644,-3.4743,-3.465,-3.4701,-3.4195,-3.3886,-3.3185,-3.2243,-3.1959,-3.1809,-3.16,-3.1496,-3.1496,-3.1496,-3.1496,-3.1496,-3.1496,-3.1496,-3.1496,-3.1496,-3.1496,-3.1496,-3.1496,-3.1496,-3.1496,-3.1496,-3.1496,-3.1496,-3.1496,-2.5062,-2.4622,-2.5154,-2.5209,-2.5016,-2.576,-2.6531,-2.7226,-2.7259,-2.7237,-2.7211,-2.7651,-2.7711,-2.7404,-2.7688,-2.7539,-2.7305,-2.7069,-2.6874,-2.6639,-2.6437,-2.6387,-2.6268,-2.6031,-2.5727,-2.5592,-2.5625,-2.5659,-2.5524,-2.6031,-2.637,-2.6674,-2.6708,-2.6708,-2.6708,-2.6708,-2.6708,-2.6708,-2.6708,-2.6776,-2.6776,-2.681,-2.6826,-2.6877,-2.6911,-2.7316,-2.7922,-2.8453,-2.9118,-2.9761,-3.0366,-3.0555,-3.0262,-2.9979,-2.9634,-2.9353,-2.9622,-3.0081,-3.0505,-3.1107,-3.166,-3.2034,-3.2198,-3.2273,-3.2931,-3.3664,-3.4352,-3.4906,-3.534,-3.5459,-3.5489,-3.5489,-3.5489,-3.5489,-3.5457,-3.5424,-3.5392,-3.5359,-3.5326,-3.5001,-3.4725,-3.4341,-3.4225,-3.4225,-3.4206,-3.4274,-3.4356,-3.439,-3.4514,-3.4512,-3.4614,-3.4263,-3.3708,-3.2721,-3.2183,-3.1959,-3.169,-3.1496,-3.1496,-3.1496,-3.1496,-3.1496,-3.1496,-3.1496,-3.1496,-3.1496,-3.1496,-3.1496,-3.1496,-3.1496,-3.1496,-3.1496,-3.1496,-3.1496,-3.1511,-2.463,-2.4291,-2.4713,-2.464,-2.4337,-2.4713,-2.5246,-2.5713,-2.6319,-2.6602,-2.6693,-2.7353,-2.753,-2.7465,-2.787,-2.7911,-2.7519,-2.734,-2.7119,-2.6875,-2.6792,-2.6691,-2.6708,-2.6674,-2.6404,-2.6336,-2.6336,-2.6353,-2.6218,-2.6353,-2.6691,-2.6708,-2.6708,-2.6708,-2.6708,-2.6708,-2.6708,-2.6708,-2.6742,-2.6928,-2.708,-2.7199,-2.7283,-2.7503,-2.752,-2.7889,-2.8333,-2.8767,-2.9125,-2.9593,-3.0126,-2.993,-2.9617,-2.9289,-2.8858,-2.8687,-2.932,-2.9717,-3.0178,-3.1017,-3.1735,-3.2348,-3.2751,-3.3095,-3.344,-3.4083,-3.4562,-3.5011,-3.528,-3.5489,-3.5489,-3.5489,-3.5489,-3.5489,-3.5424,-3.5359,-3.5261,-3.5195,-3.4935,-3.4587,-3.4187,-3.3728,-3.3575,-3.361,-3.3575,-3.352,-3.352,-3.3555,-3.3831,-3.4086,-3.4339,-3.4401,-3.3877,-3.323,-3.2691,-3.2138,-3.1735,-3.1525,-3.1496,-3.1496,-3.1496,-3.1496,-3.1496,-3.1496,-3.1496,-3.1496,-3.1496,-3.1496,-3.1496,-3.154,-3.157,-3.1526,-3.154,-3.1496,-3.1511,-2.4218,-2.4199,-2.4199,-2.4254,-2.4199,-2.4254,-2.4291,-2.4365,-2.5695,-2.6363,-2.6444,-2.7226,-2.7447,-2.7392,-2.8,-2.8201,-2.7886,-2.7657,-2.7355,-2.7006,-2.6941,-2.6842,-2.6725,-2.6691,-2.6607,-2.6657,-2.6674,-2.6623,-2.6674,-2.6708,-2.6708,-2.6708,-2.6708,-2.6708,-2.6708,-2.6708,-2.6708,-2.6725,-2.6962,-2.7233,-2.7825,-2.8062,-2.823,-2.8739,-2.8889,-2.9087,-2.934,-2.9466,-2.9428,-2.9648,-2.9585,-2.9287,-2.8935,-2.859,-2.8103,-2.8354,-2.909,-2.9633,-3.0148,-3.0928,-3.1839,-3.2527,-3.314,-3.3724,-3.4203,-3.4547,-3.4966,-3.516,-3.5444,-3.5489,-3.5489,-3.5489,-3.5489,-3.5424,-3.5326,-3.5067,-3.4773,-3.4491,-3.3968,-3.3575,-3.3108,-3.2684,-3.2577,-3.2577,-3.2563,-3.2591,-3.264,-3.2662,-3.284,-3.3248,-3.3794,-3.4167,-3.3994,-3.3478,-3.308,-3.2497,-3.1839,-3.157,-3.1525,-3.1496,-3.1496,-3.1496,-3.1496,-3.1496,-3.1496,-3.1496,-3.1496,-3.1511,-3.1585,-3.1721,-3.1735,-3.1646,-3.1631,-3.1824,-3.16,-2.4199,-2.4199,-2.4199,-2.4199,-2.4199,-2.4199,-2.4199,-2.4208,-2.4557,-2.485,-2.5034,-2.6169,-2.6881,-2.7042,-2.8185,-2.85,-2.8242,-2.7957,-2.7622,-2.7322,-2.7135,-2.694,-2.6741,-2.6742,-2.6725,-2.6708,-2.6708,-2.6708,-2.6708,-2.6708,-2.6708,-2.6708,-2.6708,-2.6708,-2.6708,-2.6725,-2.6809,-2.6757,-2.7485,-2.7893,-2.8404,-2.8673,-2.8874,-2.9061,-2.9144,-2.9349,-2.9443,-2.9223,-2.9301,-2.9466,-2.9095,-2.8748,-2.8438,-2.8088,-2.8102,-2.8449,-2.9112,-2.9669,-3.0313,-3.1017,-3.1899,-3.2796,-3.3499,-3.4247,-3.4801,-3.51,-3.531,-3.5429,-3.5489,-3.5489,-3.5457,-3.5457,-3.5424,-3.5279,-3.51,-3.4658,-3.4211,-3.3581,-3.3003,-3.2506,-3.2001,-3.1783,-3.1649,-3.1613,-3.1576,-3.1563,-3.1563,-3.1599,-3.1649,-3.2001,-3.2847,-3.3322,-3.3901,-3.3627,-3.3266,-3.2781,-3.2123,-3.169,-3.1585,-3.154,-3.1511,-3.1496,-3.1496,-3.1496,-3.1496,-3.1496,-3.1511,-3.1525,-3.1645,-3.19,-3.2139,-3.2154,-3.2662,-3.2961,-3.2317,-2.4199,-2.4199,-2.4199,-2.4199,-2.4199,-2.4199,-2.4199,-2.4199,-2.4199,-2.4199,-2.4428,-2.5786,-2.6602,-2.6859,-2.8169,-2.8755,-2.852,-2.8286,-2.7929,-2.7609,-2.7353,-2.7103,-2.6957,-2.6809,-2.6742,-2.6708,-2.6708,-2.6708,-2.6708,-2.6708,-2.6708,-2.6708,-2.6708,-2.6725,-2.6776,-2.6928,-2.6994,-2.6786,-2.8022,-2.8891,-2.927,-2.9522,-2.9754,-2.9786,-3.0002,-3.0015,-2.9665,-2.9429,-2.9143,-2.8979,-2.8504,-2.8213,-2.7974,-2.78,-2.8036,-2.8558,-2.919,-2.9849,-3.0507,-3.1182,-3.1974,-3.2766,-3.3425,-3.4023,-3.4696,-3.4996,-3.537,-3.5489,-3.5344,-3.5311,-3.5148,-3.5115,-3.4997,-3.4817,-3.437,-3.3851,-3.3248,-3.2577,-3.2101,-3.1713,-3.1307,-3.1095,-3.102,-3.102,-3.0983,-3.0934,-3.0884,-3.0908,-3.0884,-3.0934,-3.1746,-3.2431,-3.3022,-3.3587,-3.3532,-3.2999,-3.2378,-3.2004,-3.178,-3.163,-3.1615,-3.154,-3.1496,-3.166,-3.166,-3.1496,-3.1511,-3.175,-3.1959,-3.2243,-3.2497,-3.2705,-3.3334,-3.3937,-3.3472,-2.4199,-2.4199,-2.4199,-2.4199,-2.4199,-2.4199,-2.4199,-2.4199,-2.4199,-2.4199,-2.4428,-2.5897,-2.6521,-2.7123,-2.8171,-2.8554,-2.8706,-2.8525,-2.8224,-2.7929,-2.7672,-2.7369,-2.7119,-2.6957,-2.6842,-2.6741,-2.6708,-2.6708,-2.6708,-2.6708,-2.6708,-2.6708,-2.6725,-2.6759,-2.7012,-2.7316,-2.7533,-2.7814,-2.8814,-3.0198,-3.0559,-3.0607,-3.0649,-3.0917,-3.1131,-3.0915,-3.0351,-2.9777,-2.9157,-2.8638,-2.8116,-2.7835,-2.77,-2.768,-2.8225,-2.8727,-2.928,-2.9968,-3.0642,-3.1227,-3.1854,-3.2467,-3.3066,-3.3664,-3.4354,-3.4726,-3.5068,-3.5058,-3.4946,-3.4942,-3.4776,-3.4572,-3.4404,-3.4079,-3.3485,-3.2932,-3.2218,-3.1589,-3.1209,-3.0874,-3.0697,-3.0444,-3.0444,-3.0482,-3.0444,-3.0394,-3.0355,-3.0355,-3.0394,-3.0495,-3.0897,-3.1533,-3.2118,-3.2684,-3.3318,-3.3343,-3.2749,-3.2602,-3.2363,-3.1989,-3.1824,-3.2108,-3.2198,-3.2019,-3.1974,-3.2034,-3.2064,-3.2273,-3.2467,-3.2781,-3.3441,-3.3875,-3.4068,-3.4553,-3.4571,-2.4199,-2.4199,-2.4199,-2.4199,-2.4199,-2.4199,-2.4199,-2.4199,-2.4199,-2.4199,-2.4593,-2.5768,-2.6602,-2.6675,-2.8278,-2.891,-2.8881,-2.8761,-2.8576,-2.8295,-2.8,-2.7639,-2.7307,-2.7038,-2.6891,-2.6775,-2.6708,-2.6708,-2.6708,-2.6708,-2.6708,-2.6708,-2.6742,-2.7012,-2.757,-2.7873,-2.8192,-2.859,-2.9317,-3.0552,-3.0956,-3.1004,-3.0996,-3.1038,-3.0975,-3.0593,-3.0097,-2.9489,-2.8951,-2.8438,-2.7974,-2.7675,-2.7645,-2.7764,-2.8349,-2.9011,-2.9564,-3.0238,-3.0898,-3.1316,-3.1854,-3.2258,-3.2781,-3.3051,-3.3529,-3.3734,-3.3908,-3.379,-3.3806,-3.4097,-3.4028,-3.3722,-3.349,-3.2904,-3.2299,-3.1733,-3.1082,-3.0633,-3.0267,-3.0164,-3.0113,-3.0024,-3.0024,-3.0024,-3.0024,-2.9998,-2.9998,-3.0037,-3.0037,-3.0101,-3.0152,-3.073,-3.1303,-3.2024,-3.2738,-3.35,-3.3315,-3.3146,-3.3004,-3.2736,-3.2751,-3.308,-3.308,-3.2736,-3.2856,-3.3021,-3.3035,-3.2856,-3.3289,-3.3694,-3.4618,-3.5163,-3.514,-3.506,-3.5003]},{"header":{"parameterUnit":"m.s-1","parameterCategory":1,"la1":31.0,"la2":29.5877,"lo1":-88.7671,"lo2":-86.6584,"dy":0.0162,"dx":0.0185,"nx":115,"ny":88,"refTime":"2026-05-07T00:00:00:Z","depth":0,"parameterNumber":3,"parameterNumberName":"V-component_of_WINDS"},"data":[0.0,0.0,0.0,0.0,0.0,0.0,0.0,0.0,0.0,0.0,0.0,0.0,0.0,0.0,0.0,0.0,0.0,0.0,0.0,0.0,0.0,0.0,0.0,0.0,0.0,0.0,0.0,0.0,0.0,0.0,0.0,0.0,0.0,0.0,0.0,0.0,0.0,0.0,0.0,0.0,0.0,0.0,0.0,0.0,0.0,0.0,0.0,0.0,0.0,0.0,0.0,0.0,0.0,0.0,0.0,0.0,0.0,0.0,0.0,0.0,0.0,0.0,0.0,0.0,0.0,0.0,0.0,0.0,0.0,0.0,0.0,0.0,0.0,0.0,0.0,0.0,0.0,0.0,0.0,0.0,0.0,0.0,0.0,0.0,0.0,0.0,0.0,0.0,0.0,0.0,0.0,0.0,0.0,0.0,0.0,0.0,0.0,0.0,0.0,0.0,0.0,0.0,0.0,0.0,0.0,0.0,0.0,0.0,0.0,0.0,0.0,0.0,0.0,0.0,0.0,0.0,0.0,0.0,0.0,0.0,0.0,0.0,0.0,0.0,0.0,0.0,0.0,0.0,0.0,0.0,0.0,0.0,0.0,0.0,0.0,0.0,0.0,0.0,0.0,0.0,0.0,0.0,0.0,0.0,0.0,0.0,0.0,0.0,0.0,0.0,0.0,0.0,0.0,0.0,0.0,0.0,0.0,0.0,0.0,0.0,0.0,0.0,0.0,0.0,0.0,0.0,0.0,0.0,0.0,0.0,0.0,0.0,0.0,0.0,0.0,0.0,0.0,0.0,0.0,0.0,0.0,0.0,0.0,0.0,0.0,0.0,0.0,0.0,0.0,0.0,0.0,0.0,0.0,0.0,0.0,0.0,0.0,0.0,0.0,0.0,0.0,0.0,0.0,0.0,0.0,0.0,0.0,0.0,0.0,0.0,0.0,0.0,0.0,0.0,0.0,0.0,0.0,0.0,0.0,0.0,0.0,0.0,0.0,0.0,0.0,0.0,0.0,0.0,0.0,0.0,0.0,0.0,0.0,0.0,0.0,0.0,0.0,0.0,0.0,0.0,0.0,0.0,0.0,0.0,0.0,0.0,0.0,0.0,0.0,0.0,0.0,0.0,0.0,0.0,0.0,0.0,0.0,0.0,0.0,0.0,0.0,0.0,0.0,0.0,0.0,0.0,0.0,0.0,0.0,0.0,0.0,0.0,0.0,0.0,0.0,0.0,0.0,0.0,0.0,0.0,0.0,0.0,0.0,0.0,0.0,0.0,0.0,0.0,0.0,0.0,0.0,0.0,0.0,0.0,0.0,0.0,0.0,0.0,0.0,0.0,0.0,0.0,0.0,0.0,0.0,0.0,0.0,0.0,0.0,0.0,0.0,0.0,0.0,0.0,0.0,0.0,0.0,0.0,0.0,0.0,0.0,0.0,0.0,0.0,0.0,0.0,0.0,0.0,0.0,0.0,0.0,0.0,0.0,0.0,0.0,0.0,0.0,0.0,0.0,0.0,0.0,0.0,0.0,0.0,0.0,0.0,0.0,0.0,0.0,0.0,0.0,0.0,0.0,0.0,0.0,0.0,0.0,0.0,0.0,0.0,0.0,0.0,0.0,0.0,0.0,0.0,0.0,0.0,0.0,0.0,0.0,0.0,0.0,0.0,0.0,0.0,0.0,0.0,0.0,0.0,0.0,0.0,0.0,0.0,0.0,0.0,0.0,0.0,0.0,0.0,0.0,0.0,0.0,0.0,0.0,0.0,0.0,0.0,0.0,0.0,0.0,0.0,0.0,0.0,0.0,0.0,0.0,0.0,0.0,0.0,0.0,0.0,0.0,0.0,0.0,0.0,0.0,0.0,0.0,0.0,0.0,0.0,0.0,0.0,0.0,0.0,0.0,0.0,0.0,0.0,0.0,0.0,0.0,0.0,0.0,0.0,0.0,0.0,0.0,0.0,0.0,0.0,0.0,0.0,0.0,0.0,0.0,0.0,0.0,0.0,0.0,0.0,0.0,0.0,0.0,0.0,0.0,0.0,0.0,0.0,0.0,0.0,0.0,0.0,0.0,0.0,0.0,0.0,0.0,0.0,0.0,0.0,0.0,0.0,0.0,0.0,0.0,0.0,0.0,0.0,0.0,0.0,0.0,0.0,0.0,0.0,0.0,0.0,0.0,0.0,0.0,0.0,0.0,0.0,0.0,0.0,0.0,0.0,0.0,0.0,0.0,0.0,0.0,0.0,0.0,0.0,0.0,0.0,0.0,0.0,0.0,0.0,0.0,0.0,0.0,0.0,0.0,0.0,0.0,0.0,0.0,0.0,0.0,0.0,0.0,0.0,0.0,0.0,0.0,0.0,0.0,0.0,0.0,0.0,0.0,0.0,0.0,0.0,0.0,0.0,0.0,0.0,0.0,0.0,0.0,0.0,0.0,0.0,0.0,0.0,0.0,0.0,0.0,0.0,0.0,0.0,0.0,0.0,0.0,0.0,0.0,0.0,0.0,0.0,0.0,0.0,0.0,0.0,0.0,0.0,0.0,0.0,0.0,0.0,0.0,0.0,0.0,0.0,0.0,0.0,0.0,0.0,0.0,0.0,0.0,0.0,0.0,0.0,0.0,0.0,0.0,0.0,0.0,0.0,0.0,0.0,0.0,0.0,0.0,0.0,0.0,0.0,0.0,0.0,0.0,0.0,0.0,0.0,0.0,0.0,0.0,0.0,0.0,0.0,0.0,0.0,0.0,0.0,0.0,0.0,0.0,0.0,0.0,0.0,0.0,0.0,0.0,0.0,0.0,0.0,0.0,0.0,0.0,0.0,0.0,0.0,0.0,0.0,0.0,0.0,0.0,0.0,0.0,0.0,0.0,0.0,0.0,0.0,0.0,0.0,0.0,0.0,0.0,0.0,0.0,0.0,0.0,0.0,0.0,0.0,0.0,0.0,0.0,0.0,0.0,0.0,0.0,0.0,0.0,0.0,0.0,0.0,0.0,0.0,0.0,0.0,0.0,0.0,0.0,0.0,0.0,0.0,0.0,0.0,0.0,0.0,0.0,0.0,0.0,0.0,0.0,0.0,0.0,0.0,0.0,0.0,0.0,0.0,0.0,0.0,0.0,0.0,0.0,0.0,0.0,0.0,0.0,0.0,0.0,0.0,0.0,0.0,0.0,0.0,0.0,0.0,0.0,0.0,0.0,0.0,0.0,0.0,0.0,0.0,0.0,0.0,0.0,0.0,0.0,0.0,0.0,0.0,0.0,0.0,0.0,0.0,0.0,0.0,0.0,0.0,0.0,0.0,0.0,0.0,0.0,0.0,0.0,0.0,0.0,0.0,0.0,0.0,0.0,0.0,0.0,0.0,0.0,0.0,0.0,0.0,0.0,0.0,0.0,0.0,0.0,0.0,0.0,0.0,0.0,0.0,0.0,0.0,0.0,0.0,0.0,0.0,0.0,0.0,0.0,0.0,0.0,0.0,0.0,0.0,0.0,0.0,0.0,0.0,0.0,0.0,0.0,0.0,0.0,0.0,0.0,0.0,0.0,0.0,0.0,0.0,0.0,0.0,0.0,0.0,0.0,0.0,0.0,0.0,0.0,0.0,0.0,0.0,0.0,0.0,0.0,0.0,0.0,0.0,0.0,0.0,0.0,0.0,0.0,0.0,0.0,0.0,0.0,0.0,0.0,0.0,0.0,0.0,0.0,0.0,0.0,0.0,0.0,0.0,0.0,0.0,0.0,0.0,0.0,0.0,0.0,0.0,0.0,0.0,0.0,0.0,0.0,0.0,0.0,0.0,0.0,0.0,0.0,0.0,0.0,0.0,0.0,0.0,0.0,0.0,0.0,0.0,0.0,0.0,0.0,0.0,0.0,0.0,0.0,0.0,0.0,0.0,0.0,0.0,0.0,0.0,0.0,0.0,0.0,0.0,0.0,0.0,0.0,0.0,0.0,0.0,0.0,0.0,0.0,0.0,0.0,0.0,0.0,0.0,0.0,0.0,0.0,0.0,0.0,0.0,0.0,0.0,0.0,0.0,0.0,0.0,0.0,0.0,0.0,0.0,0.0,0.0,0.0,0.0,0.0,0.0,0.0,0.0,0.0,0.0,0.0,0.0,0.0,0.0,0.0,0.0,0.0,0.0,0.0,0.0,0.0,0.0,0.0,0.0,0.0,0.0,0.0,0.0,0.0,0.0,0.0,0.0,0.0,0.0,0.0,0.0,0.0,0.0,0.0,0.0,0.0,0.0,0.0,0.0,0.0,0.0,0.0,0.0,0.0,0.0,0.0,0.0,-0.5293,0.0,0.0,0.0,0.0,0.0,0.0,0.0,0.0,0.0,0.0,0.0,0.0,0.0,0.0,0.0,0.0,0.0,0.0,0.0,0.0,0.0,0.0,0.0,0.0,0.0,0.0,0.0,0.0,0.0,0.0,0.0,0.0,0.0,0.0,0.0,0.0,0.0,0.0,0.0,0.0,0.0,0.0,0.0,0.0,0.0,0.0,0.0,0.0,0.0,0.0,0.0,0.0,0.0,0.0,0.0,0.0,0.0,0.0,0.0,0.0,0.0,0.0,0.0,0.0,0.0,0.0,0.0,0.0,0.0,0.0,0.0,0.0,0.0,0.0,0.0,0.0,0.0,0.0,0.0,0.0,0.0,0.0,0.0,0.0,0.0,0.0,0.0,0.0,0.0,0.0,0.0,0.0,0.0,0.0,0.0,0.0,0.0,0.0,0.0,0.0,0.0,0.0,0.0,0.0,0.0,0.0,0.0,0.0,0.0,0.0,-0.4794,-0.4778,-0.4953,-0.5112,-0.5293,0.0,0.0,0.0,0.0,0.0,0.0,0.0,0.0,0.0,0.0,0.0,0.0,0.0,0.0,0.0,0.0,0.0,0.0,0.0,0.0,0.0,0.0,0.0,0.0,0.0,0.0,0.0,0.0,0.0,0.0,0.0,0.0,0.0,0.0,0.0,0.0,0.0,0.0,0.0,0.0,0.0,0.0,0.0,0.0,0.0,0.0,0.0,0.0,0.0,0.0,0.0,0.0,0.0,0.0,0.0,0.0,0.0,0.0,0.0,0.0,0.0,0.0,0.0,0.0,0.0,0.0,0.0,0.0,0.0,0.0,0.0,0.0,0.0,0.0,0.0,0.0,0.0,0.0,0.0,0.0,0.0,0.0,0.0,0.0,0.0,0.0,0.0,0.0,0.0,0.0,0.0,0.0,0.0,0.0,0.0,0.0,0.0,0.0,0.0,0.0,0.0,0.0,0.0,0.0,0.0,0.0,0.0,0.0,0.0,0.0,0.0,0.0,-0.4857,-0.5094,-0.5336,0.0,0.0,0.0,0.0,0.0,0.0,0.0,0.0,0.0,0.0,0.0,0.0,0.0,0.0,0.0,0.0,0.0,0.0,0.0,0.0,0.0,0.0,0.0,0.0,0.0,0.0,0.0,0.0,0.0,0.0,0.0,0.0,0.0,0.0,0.0,0.0,0.0,0.0,0.0,0.0,0.0,0.0,0.0,0.0,0.0,0.0,0.0,0.0,0.0,0.0,0.0,0.0,0.0,0.0,0.0,0.0,0.0,0.0,0.0,0.0,0.0,0.0,0.0,0.0,0.0,0.0,0.0,0.0,0.0,0.0,0.0,0.0,0.0,0.0,0.0,0.0,0.0,0.0,0.0,0.0,0.0,0.0,0.0,0.0,0.0,0.0,0.0,0.0,0.0,0.0,0.0,0.0,0.0,0.0,0.0,0.0,0.0,0.0,0.0,0.0,0.0,0.0,0.0,0.0,0.0,0.0,0.0,0.0,0.0,0.0,-0.4687,-0.471,-0.5053,0.0,-0.5469,0.0,0.0,0.0,0.0,0.0,0.0,0.0,0.0,0.0,0.0,0.0,0.0,0.0,0.0,0.0,0.0,0.0,0.0,0.0,0.0,0.0,0.0,0.0,0.0,0.0,0.0,0.0,0.0,0.0,0.0,0.0,0.0,0.0,0.0,0.0,0.0,0.0,0.0,0.0,0.0,0.0,0.0,0.0,0.0,0.0,0.0,0.0,0.0,0.0,0.0,0.0,0.0,0.0,0.0,0.0,0.0,0.0,0.0,0.0,0.0,0.0,0.0,0.0,0.0,0.0,0.0,0.0,0.0,0.0,0.0,0.0,0.0,0.0,0.0,0.0,0.0,0.0,0.0,0.0,0.0,0.0,0.0,0.0,0.0,0.0,0.0,0.0,0.0,0.0,0.0,0.0,0.0,0.0,0.0,0.0,0.0,0.0,0.0,0.0,0.0,0.0,0.0,0.0,0.0,0.0,0.0,0.0,0.0,0.0,0.0,-0.4778,-0.4943,-0.5165,-0.5312,0.0,0.0,0.0,0.0,0.0,0.0,0.0,0.0,0.0,0.0,0.0,0.0,0.0,0.0,0.0,0.0,0.0,0.0,0.0,0.0,0.0,0.0,0.0,0.0,0.0,0.0,0.0,0.0,0.0,0.0,0.0,0.0,0.0,0.0,0.0,0.0,0.0,0.0,0.0,0.0,0.0,0.0,0.0,0.0,0.0,0.0,0.0,0.0,0.0,0.0,0.0,0.0,0.0,0.0,0.0,0.0,0.0,0.0,0.0,0.0,0.0,0.0,0.0,0.0,0.0,0.0,0.0,0.0,0.0,0.0,0.0,0.0,0.0,0.0,0.0,0.0,0.0,0.0,0.0,0.0,0.0,0.0,0.0,0.0,0.0,0.0,0.0,0.0,0.0,0.0,0.0,0.0,0.0,0.0,0.0,0.0,0.0,0.0,0.0,0.0,0.0,0.0,0.0,0.0,0.0,0.0,0.0,0.0,0.0,0.0,-0.4489,-0.4848,-0.5272,-0.5286,-0.5312,-0.5376,0.0,0.0,0.0,0.0,0.0,0.0,0.0,0.0,0.0,0.0,0.0,0.0,0.0,0.0,0.0,0.0,0.0,0.0,0.0,0.0,0.0,0.0,0.0,0.0,0.0,0.0,0.0,0.0,0.0,0.0,0.0,0.0,0.0,0.0,0.0,0.0,0.0,0.0,0.0,0.0,0.0,0.0,0.0,0.0,0.0,0.0,0.0,0.0,0.0,0.0,0.0,0.0,0.0,0.0,0.0,0.0,0.0,0.0,0.0,0.0,0.0,0.0,0.0,0.0,0.0,0.0,0.0,0.0,0.0,0.0,0.0,0.0,0.0,0.0,0.0,0.0,0.0,0.0,0.0,0.0,0.0,0.0,0.0,0.0,0.0,0.0,0.0,0.0,0.0,0.0,0.0,0.0,0.0,0.0,0.0,0.0,0.0,0.0,0.0,0.0,0.0,0.0,0.0,0.0,0.0,0.0,0.0,0.0,-0.3742,-0.4244,-0.4908,-0.5717,-0.5474,-0.5452,0.0,0.0,0.0,0.0,0.0,0.0,0.0,0.0,0.0,0.0,0.0,0.0,0.0,0.0,0.0,0.0,0.0,0.0,0.0,0.0,0.0,0.0,0.0,0.0,0.0,0.0,0.0,0.0,0.0,0.0,0.0,0.0,0.0,0.0,0.0,0.0,0.0,0.0,0.0,0.0,0.0,0.0,0.0,0.0,0.0,0.0,0.0,0.0,0.0,0.0,0.0,0.0,0.0,0.0,0.0,0.0,0.0,0.0,0.0,0.0,0.0,0.0,0.0,0.0,0.0,0.0,0.0,0.0,0.0,0.0,0.0,0.0,0.0,0.0,0.0,0.0,0.0,0.0,0.0,0.0,0.0,0.0,0.0,0.0,0.0,0.0,0.0,0.0,0.0,0.0,0.0,0.0,0.0,0.0,0.0,0.0,0.0,0.0,0.0,0.0,0.0,0.0,0.0,0.0,0.0,0.0,0.0,0.0,0.0,-0.3785,-0.4499,-0.5065,-0.5447,-0.5365,-0.5326,0.0,0.0,0.0,0.0,0.0,0.0,0.0,0.0,0.0,0.0,0.0,0.0,0.0,0.0,0.0,0.0,0.0,0.0,0.0,0.0,0.0,0.0,0.0,0.0,0.0,0.0,0.0,0.0,0.0,0.0,0.0,0.0,0.0,0.0,0.0,0.0,0.0,0.0,0.0,0.0,0.0,0.0,0.0,0.0,0.0,0.0,0.0,0.0,0.0,0.0,0.0,0.0,0.0,0.0,0.0,0.0,0.0,0.0,0.0,0.0,0.0,0.0,0.0,0.0,0.0,0.0,0.0,0.0,0.0,0.0,0.0,0.0,0.0,0.0,0.0,0.0,0.0,0.0,0.0,0.0,0.0,0.0,0.0,0.0,0.0,0.0,0.0,0.0,0.0,0.0,0.0,0.0,0.0,0.0,0.0,0.0,0.0,0.0,0.0,0.0,0.0,0.0,0.0,0.0,0.0,0.0,0.0,0.0,0.0,-0.4082,0.0,-0.5277,-0.5597,-0.547,-0.5433,0.0,0.0,0.0,0.0,0.0,0.0,0.0,0.0,0.0,0.0,0.0,0.0,0.0,0.0,0.0,0.0,0.0,0.0,0.0,0.0,0.0,0.0,0.0,0.0,0.0,0.0,0.0,0.0,0.0,0.0,0.0,0.0,0.0,0.0,0.0,0.0,0.0,0.0,0.0,0.0,0.0,0.0,0.0,0.0,0.0,0.0,0.0,0.0,0.0,0.0,0.0,0.0,0.0,0.0,0.0,0.0,0.0,0.0,0.0,0.0,0.0,0.0,0.0,0.0,0.0,0.0,0.0,0.0,0.0,0.0,0.0,0.0,0.0,0.0,0.0,0.0,0.0,0.0,0.0,0.0,0.0,0.0,0.0,0.0,0.0,0.0,0.0,0.0,0.0,0.0,0.0,0.0,0.0,0.0,0.0,0.0,0.0,0.0,0.0,0.0,0.0,0.0,0.0,0.0,0.0,0.0,0.0,0.0,-0.3775,-0.4652,-0.5024,-0.5572,-0.6265,-0.5878,-0.5751,0.0,0.0,0.0,0.0,0.0,0.0,0.0,0.0,0.0,0.0,0.0,0.0,0.0,0.0,0.0,0.0,0.0,0.0,0.0,0.0,0.0,0.0,0.0,0.0,0.0,0.0,0.0,0.0,0.0,0.0,0.0,0.0,0.0,0.0,0.0,0.0,0.0,0.0,0.0,0.0,0.0,0.0,0.0,0.0,0.0,0.0,0.0,0.0,0.0,0.0,0.0,0.0,0.0,0.0,0.0,0.0,0.0,0.0,0.0,0.0,0.0,0.0,0.0,0.0,0.0,0.0,0.0,0.0,0.0,0.0,0.0,0.0,0.0,0.0,0.0,0.0,0.0,0.0,0.0,0.0,0.0,0.0,0.0,0.0,0.0,0.0,0.0,0.0,0.0,0.0,0.0,0.0,0.0,0.0,0.0,0.0,0.0,0.0,0.0,0.0,0.0,0.0,0.0,0.0,0.0,0.0,0.0,0.0,0.0,-0.465,-0.5348,-0.5924,-0.6282,-0.6474,-0.6429,0.0,0.0,0.0,0.0,0.0,0.0,0.0,0.0,0.0,0.0,0.0,0.0,0.0,0.0,0.0,0.0,0.0,0.0,0.0,0.0,0.0,0.0,0.0,0.0,0.0,0.0,0.0,0.0,0.0,0.0,0.0,0.0,0.0,0.0,0.0,0.0,0.0,0.0,0.0,0.0,0.0,0.0,0.0,0.0,0.0,0.0,0.0,0.0,0.0,0.0,0.0,0.0,0.0,0.0,0.0,0.0,0.0,0.0,0.0,0.0,0.0,0.0,0.0,0.0,0.0,0.0,0.0,0.0,0.0,0.0,0.0,0.0,0.0,0.0,0.0,0.0,0.0,0.0,0.0,0.0,0.0,0.0,0.0,0.0,0.0,0.0,0.0,0.0,0.0,0.0,0.0,0.0,0.0,0.0,0.0,0.0,0.0,0.0,0.0,0.0,0.0,0.0,0.0,0.0,0.0,0.0,0.0,0.0,0.0,-0.5982,-0.6499,-0.6869,-0.7054,-0.7239,-0.7066,-0.6519,0.0,0.0,0.0,0.0,0.0,0.0,0.0,0.0,0.0,0.0,0.0,0.0,0.0,0.0,0.0,0.0,0.0,0.0,0.0,0.0,0.0,0.0,0.0,0.0,0.0,0.0,0.0,0.0,0.0,0.0,0.0,0.0,0.0,0.0,0.0,0.0,0.0,0.0,0.0,0.0,0.0,0.0,0.0,0.0,0.0,0.0,0.0,0.0,0.0,0.0,0.0,0.0,0.0,0.0,0.0,0.0,0.0,0.0,0.0,0.0,0.0,0.0,0.0,0.0,0.0,0.0,0.0,0.0,0.0,0.0,0.0,0.0,0.0,0.0,0.0,0.0,0.0,0.0,0.0,0.0,0.0,0.0,0.0,0.0,0.0,0.0,0.0,0.0,0.0,0.0,0.0,0.0,0.0,0.0,0.0,0.0,0.0,0.0,0.0,0.0,0.0,0.0,0.0,0.0,0.0,0.0,0.0,0.0,-0.8373,-0.834,-0.8334,-0.8385,-0.8101,-0.7692,0.0,0.0,0.0,0.0,0.0,0.0,0.0,0.0,0.0,0.0,0.0,0.0,0.0,0.0,0.0,0.0,0.0,0.0,0.0,0.0,0.0,0.0,0.0,0.0,0.0,0.0,0.0,0.0,0.0,0.0,0.0,0.0,0.0,0.0,0.0,0.0,0.0,0.0,0.0,0.0,0.0,0.0,0.0,0.0,0.0,0.0,0.0,0.0,0.0,0.0,0.0,0.0,0.0,0.0,0.0,0.0,0.0,0.0,0.0,0.0,0.0,0.0,0.0,0.0,0.0,0.0,0.0,0.0,0.0,0.0,0.0,0.0,0.0,0.0,0.0,0.0,0.0,0.0,0.0,0.0,0.0,0.0,0.0,0.0,0.0,0.0,0.0,0.0,0.0,0.0,0.0,0.0,0.0,0.0,0.0,0.0,0.0,0.0,0.0,0.0,0.0,0.0,0.0,0.0,0.0,0.0,0.0,0.0,0.0,-0.9595,-1.0215,-1.0186,-0.9457,-0.9043,-0.8492,0.0,0.0,0.0,0.0,0.0,0.0,0.0,0.0,0.0,0.0,0.0,0.0,0.0,0.0,0.0,0.0,0.0,0.0,0.0,0.0,0.0,0.0,0.0,0.0,0.0,0.0,0.0,0.0,0.0,0.0,0.0,0.0,0.0,0.0,0.0,0.0,0.0,0.0,0.0,0.0,0.0,0.0,0.0,0.0,0.0,0.0,0.0,0.0,0.0,0.0,0.0,0.0,0.0,0.0,0.0,0.0,0.0,0.0,0.0,0.0,0.0,0.0,0.0,0.0,0.0,0.0,0.0,0.0,0.0,0.0,0.0,0.0,0.0,0.0,0.0,0.0,0.0,0.0,0.0,0.0,0.0,0.0,0.0,0.0,0.0,0.0,0.0,0.0,0.0,0.0,0.0,0.0,0.0,0.0,0.0,0.0,0.0,0.0,0.0,0.0,0.0,0.0,0.0,0.0,0.0,0.0,0.0,0.0,-0.9513,-1.0447,-1.1345,-1.1445,-1.0708,-0.9975,-0.9111,0.0,0.0,0.0,0.0,0.0,0.0,0.0,0.0,0.0,0.0,0.0,0.0,0.0,0.0,0.0,0.0,0.0,0.0,0.0,0.0,0.0,0.0,0.0,0.0,0.0,0.0,0.0,0.0,0.0,0.0,0.0,0.0,0.0,0.0,0.0,0.0,0.0,0.0,0.0,0.0,0.0,0.0,0.0,0.0,0.0,0.0,0.0,0.0,0.0,0.0,0.0,0.0,0.0,0.0,0.0,0.0,0.0,0.0,0.0,0.0,0.0,0.0,0.0,0.0,0.0,0.0,0.0,0.0,0.0,0.0,0.0,0.0,0.0,0.0,0.0,0.0,0.0,0.0,0.0,0.0,0.0,0.0,0.0,0.0,0.0,0.0,0.0,0.0,0.0,0.0,0.0,0.0,0.0,0.0,0.0,0.0,0.0,0.0,0.0,0.0,0.0,0.0,0.0,0.0,0.0,0.0,0.0,0.0,-1.0383,-1.1035,-1.1864,-1.2201,-1.1886,-1.0762,-0.9646,0.0,0.0,0.0,0.0,0.0,0.0,0.0,0.0,0.0,0.0,0.0,0.0,0.0,0.0,0.0,0.0,0.0,0.0,0.0,0.0,0.0,0.0,0.0,0.0,0.0,0.0,0.0,0.0,0.0,0.0,0.0,0.0,0.0,0.0,0.0,0.0,0.0,0.0,0.0,0.0,0.0,0.0,0.0,0.0,0.0,0.0,0.0,0.0,0.0,0.0,0.0,0.0,0.0,0.0,0.0,0.0,0.0,0.0,0.0,0.0,0.0,0.0,0.0,0.0,0.0,0.0,0.0,0.0,0.0,0.0,0.0,0.0,0.0,0.0,0.0,0.0,0.0,0.0,0.0,0.0,0.0,0.0,0.0,0.0,0.0,0.0,0.0,0.0,0.0,0.0,0.0,0.0,0.0,0.0,0.0,0.0,0.0,0.0,0.0,0.0,0.0,0.0,0.0,0.0,0.0,0.0,0.0,0.0,-1.0476,-1.1316,-1.1971,-1.2164,-1.1913,-1.0995,-1.0164,0.0,0.0,0.0,0.0,0.0,0.0,0.0,0.0,0.0,0.0,0.0,0.0,0.0,0.0,0.0,0.0,0.0,0.0,0.0,0.0,0.0,0.0,0.0,0.0,0.0,0.0,0.0,0.0,0.0,0.0,0.0,0.0,0.0,0.0,0.0,0.0,0.0,0.0,0.0,0.0,0.0,0.0,0.0,0.0,0.0,0.0,0.0,0.0,-0.9609,0.0,0.0,0.0,0.0,0.0,0.0,0.0,0.0,0.0,0.0,0.0,0.0,0.0,0.0,0.0,0.0,0.0,0.0,0.0,0.0,0.0,0.0,0.0,0.0,0.0,0.0,0.0,0.0,0.0,0.0,0.0,0.0,0.0,0.0,0.0,0.0,0.0,0.0,0.0,0.0,0.0,0.0,0.0,0.0,0.0,0.0,0.0,0.0,0.0,0.0,0.0,0.0,0.0,0.0,0.0,0.0,0.0,0.0,0.0,-1.0882,-1.1617,-1.2071,-1.2225,-1.2051,-1.1356,-1.0593,0.0,0.0,0.0,0.0,0.0,0.0,0.0,0.0,0.0,0.0,0.0,0.0,0.0,0.0,0.0,0.0,0.0,0.0,0.0,0.0,0.0,0.0,0.0,0.0,0.0,0.0,0.0,0.0,0.0,0.0,0.0,0.0,0.0,0.0,0.0,0.0,0.0,0.0,0.0,0.0,0.0,0.0,0.0,0.0,0.0,0.0,0.0,0.0,0.0,0.0,0.0,0.0,0.0,0.0,0.0,0.0,0.0,0.0,0.0,0.0,0.0,0.0,0.0,0.0,0.0,0.0,0.0,0.0,0.0,0.0,0.0,0.0,0.0,0.0,0.0,0.0,0.0,0.0,0.0,0.0,0.0,0.0,0.0,0.0,0.0,0.0,0.0,0.0,0.0,0.0,0.0,0.0,0.0,0.0,0.0,0.0,0.0,0.0,0.0,0.0,0.0,0.0,0.0,0.0,0.0,0.0,0.0,-1.0401,-1.1276,-1.1886,-1.2151,-1.2285,-1.2231,-1.167,-1.0835,-0.9755,0.0,0.0,0.0,0.0,0.0,0.0,0.0,0.0,0.0,0.0,0.0,0.0,0.0,0.0,0.0,0.0,0.0,0.0,0.0,0.0,0.0,0.0,0.0,0.0,0.0,0.0,0.0,0.0,0.0,0.0,0.0,0.0,0.0,0.0,0.0,0.0,0.0,0.0,-0.6793,-0.7916,0.0,0.0,0.0,0.0,0.0,0.0,0.0,0.0,-1.0801,0.0,0.0,0.0,0.0,0.0,0.0,0.0,0.0,0.0,0.0,0.0,0.0,0.0,0.0,0.0,0.0,0.0,0.0,0.0,0.0,0.0,0.0,0.0,0.0,0.0,0.0,0.0,0.0,0.0,0.0,0.0,0.0,0.0,0.0,0.0,0.0,0.0,0.0,0.0,0.0,0.0,0.0,0.0,0.0,0.0,0.0,0.0,0.0,0.0,0.0,0.0,0.0,0.0,0.0,0.0,0.0,-0.9204,-1.0394,-1.131,-1.1893,-1.2151,-1.2191,-1.1973,-1.1404,-1.0628,-0.9755,0.0,0.0,0.0,0.0,0.0,0.0,0.0,0.0,0.0,0.0,0.0,0.0,0.0,0.0,0.0,0.0,0.0,0.0,0.0,0.0,0.0,0.0,0.0,0.0,0.0,0.0,0.0,0.0,0.0,0.0,0.0,0.0,0.0,0.0,0.0,0.0,0.0,0.0,0.0,-0.8936,-0.966,0.0,0.0,0.0,0.0,0.0,0.0,0.0,0.0,-1.133,0.0,0.0,0.0,0.0,0.0,0.0,0.0,0.0,0.0,0.0,0.0,0.0,0.0,0.0,0.0,0.0,0.0,0.0,0.0,0.0,0.0,0.0,0.0,0.0,0.0,0.0,0.0,0.0,0.0,0.0,0.0,0.0,0.0,0.0,0.0,0.0,0.0,0.0,0.0,0.0,0.0,0.0,0.0,0.0,0.0,0.0,0.0,0.0,0.0,0.0,0.0,0.0,0.0,0.0,0.0,-0.9637,-1.0669,-1.1496,-1.2078,-1.2231,-1.2091,-1.1643,-1.1109,-1.0354,0.0,0.0,0.0,0.0,0.0,0.0,0.0,0.0,0.0,0.0,0.0,0.0,0.0,0.0,0.0,0.0,0.0,0.0,0.0,0.0,0.0,0.0,0.0,0.0,0.0,0.0,0.0,0.0,0.0,0.0,0.0,0.0,0.0,0.0,0.0,0.0,0.0,0.0,0.0,0.0,-0.996,-1.0839,-1.0764,0.0,0.0,0.0,0.0,0.0,0.0,-1.1343,-1.1438,0.0,0.0,0.0,0.0,0.0,0.0,0.0,0.0,0.0,0.0,0.0,0.0,0.0,0.0,0.0,0.0,0.0,0.0,0.0,0.0,0.0,0.0,0.0,0.0,0.0,0.0,0.0,0.0,0.0,0.0,0.0,0.0,0.0,0.0,0.0,0.0,0.0,0.0,0.0,0.0,0.0,0.0,0.0,0.0,0.0,0.0,0.0,0.0,0.0,0.0,0.0,0.0,0.0,0.0,0.0,-1.0,-1.0916,-1.1675,-1.2271,-1.2305,-1.2024,-1.1402,-1.0894,-1.0151,0.0,0.0,0.0,0.0,0.0,0.0,0.0,0.0,0.0,0.0,0.0,0.0,0.0,0.0,0.0,0.0,0.0,0.0,0.0,0.0,0.0,0.0,0.0,0.0,0.0,0.0,0.0,0.0,0.0,0.0,0.0,0.0,0.0,0.0,0.0,0.0,0.0,0.0,0.0,0.0,0.0,-1.1868,-1.2104,-1.2241,0.0,0.0,0.0,0.0,-1.1644,-1.1852,0.0,0.0,0.0,0.0,0.0,0.0,0.0,0.0,0.0,0.0,0.0,0.0,0.0,0.0,0.0,0.0,0.0,0.0,0.0,0.0,0.0,0.0,0.0,0.0,0.0,0.0,0.0,0.0,0.0,0.0,0.0,0.0,0.0,0.0,0.0,0.0,0.0,0.0,0.0,0.0,0.0,0.0,0.0,0.0,0.0,0.0,0.0,0.0,0.0,0.0,0.0,0.0,0.0,0.0,0.0,0.0,-0.9719,-1.0848,-1.1675,-1.2271,-1.2305,-1.2017,-1.1402,-1.0901,-1.0057,0.0,0.0,0.0,0.0,0.0,0.0,0.0,0.0,0.0,0.0,0.0,0.0,0.0,0.0,0.0,0.0,0.0,0.0,0.0,0.0,0.0,0.0,0.0,0.0,0.0,0.0,0.0,0.0,0.0,0.0,0.0,0.0,0.0,0.0,0.0,0.0,0.0,0.0,0.0,0.0,0.0,-1.2343,-1.2887,-1.3247,-1.3514,0.0,0.0,-1.2956,-1.3554,-1.3458,0.0,0.0,0.0,0.0,0.0,0.0,0.0,0.0,0.0,0.0,0.0,0.0,0.0,0.0,0.0,0.0,0.0,0.0,0.0,0.0,0.0,0.0,0.0,0.0,0.0,0.0,0.0,0.0,0.0,0.0,0.0,0.0,0.0,0.0,0.0,0.0,0.0,0.0,0.0,0.0,0.0,0.0,0.0,0.0,0.0,0.0,0.0,0.0,0.0,0.0,0.0,0.0,0.0,0.0,0.0,-0.851,-0.9673,-1.0835,-1.1595,-1.2044,-1.2218,-1.1944,-1.1202,-1.0615,-0.976,0.0,0.0,0.0,0.0,0.0,0.0,0.0,0.0,0.0,0.0,0.0,0.0,0.0,0.0,0.0,0.0,0.0,0.0,0.0,0.0,0.0,0.0,0.0,0.0,0.0,0.0,0.0,0.0,0.0,0.0,0.0,0.0,0.0,0.0,0.0,0.0,0.0,0.0,0.0,0.0,0.0,0.0,-1.4291,-1.4554,0.0,0.0,0.0,-1.4175,-1.4711,0.0,0.0,0.0,0.0,0.0,0.0,0.0,0.0,0.0,0.0,0.0,0.0,0.0,0.0,0.0,0.0,0.0,0.0,0.0,0.0,0.0,0.0,0.0,0.0,0.0,0.0,0.0,0.0,0.0,0.0,0.0,0.0,0.0,0.0,0.0,0.0,0.0,0.0,0.0,0.0,0.0,0.0,0.0,0.0,0.0,0.0,0.0,0.0,0.0,0.0,0.0,0.0,0.0,0.0,0.0,0.0,0.0,-0.9566,-1.0795,-1.157,-1.1899,-1.2084,-1.1844,-1.1116,-1.0534,0.0,0.0,0.0,0.0,0.0,0.0,0.0,0.0,0.0,0.0,0.0,0.0,0.0,0.0,0.0,0.0,0.0,0.0,0.0,0.0,0.0,0.0,0.0,0.0,0.0,0.0,0.0,-0.7876,0.0,0.0,0.0,0.0,0.0,0.0,0.0,0.0,0.0,0.0,0.0,0.0,0.0,0.0,-1.4302,-1.5371,-1.5638,-1.5859,0.0,0.0,-1.5381,-1.5693,-1.5391,-1.4842,0.0,0.0,0.0,0.0,0.0,0.0,0.0,0.0,0.0,0.0,0.0,0.0,0.0,0.0,0.0,0.0,0.0,0.0,0.0,0.0,0.0,0.0,0.0,0.0,0.0,0.0,0.0,0.0,0.0,0.0,0.0,0.0,0.0,0.0,0.0,0.0,0.0,0.0,0.0,0.0,0.0,0.0,0.0,0.0,0.0,0.0,0.0,0.0,0.0,0.0,0.0,0.0,0.0,0.0,-0.8345,-0.9223,-1.0656,-1.1563,-1.1886,-1.1919,-1.1744,-1.1403,-1.0835,-1.0003,0.0,0.0,0.0,0.0,0.0,0.0,0.0,0.0,0.0,0.0,0.0,0.0,0.0,0.0,0.0,0.0,0.0,0.0,0.0,0.0,0.0,0.0,0.0,0.0,0.0,0.0,0.0,0.0,0.0,0.0,0.0,0.0,0.0,0.0,0.0,0.0,0.0,0.0,0.0,0.0,0.0,-1.462,-1.5624,-1.6251,-1.6629,0.0,-1.6609,-1.658,-1.6609,-1.6269,-1.5713,-1.4862,0.0,0.0,0.0,0.0,0.0,0.0,0.0,0.0,0.0,0.0,0.0,0.0,0.0,0.0,0.0,0.0,0.0,0.0,0.0,0.0,0.0,0.0,0.0,0.0,0.0,0.0,0.0,0.0,0.0,0.0,0.0,0.0,0.0,0.0,0.0,0.0,0.0,0.0,0.0,0.0,0.0,0.0,0.0,0.0,0.0,0.0,0.0,0.0,0.0,0.0,0.0,0.0,0.0,-0.8243,-0.8956,-1.0407,-1.1243,-1.1369,-1.1489,-1.1456,-1.1169,-1.0801,-1.0037,0.0,0.0,0.0,0.0,0.0,0.0,0.0,0.0,0.0,0.0,0.0,0.0,0.0,0.0,0.0,0.0,0.0,0.0,0.0,0.0,0.0,0.0,0.0,0.0,0.0,0.0,0.0,0.0,-0.8916,-0.9111,-0.9348,0.0,0.0,0.0,0.0,0.0,0.0,0.0,0.0,0.0,0.0,-1.5496,-1.6941,-1.757,0.0,0.0,-1.7852,-1.7519,-1.7486,-1.6699,-1.5801,-1.496,-1.3945,0.0,0.0,0.0,0.0,0.0,0.0,0.0,0.0,0.0,0.0,0.0,0.0,0.0,0.0,0.0,0.0,0.0,0.0,0.0,0.0,0.0,0.0,0.0,0.0,0.0,0.0,0.0,0.0,0.0,0.0,0.0,0.0,0.0,0.0,0.0,0.0,0.0,0.0,0.0,0.0,0.0,0.0,0.0,0.0,0.0,0.0,0.0,0.0,0.0,0.0,0.0,0.0,-0.841,-0.8979,-1.0412,-1.112,-1.1074,-1.1223,-1.1202,-1.0995,-1.0747,-1.0077,0.0,0.0,0.0,0.0,0.0,0.0,0.0,0.0,0.0,0.0,0.0,0.0,0.0,0.0,0.0,0.0,0.0,0.0,0.0,0.0,0.0,0.0,0.0,0.0,0.0,0.0,0.0,0.0,-0.9299,-0.9502,-0.9776,0.0,0.0,0.0,0.0,0.0,0.0,0.0,0.0,0.0,0.0,-1.6143,-1.7607,-1.8247,-1.8666,-1.8877,-1.8506,-1.813,-1.8027,-1.7021,-1.6046,-1.5341,0.0,0.0,0.0,0.0,0.0,0.0,0.0,0.0,0.0,0.0,0.0,0.0,0.0,0.0,0.0,0.0,0.0,0.0,0.0,0.0,0.0,0.0,0.0,0.0,0.0,0.0,0.0,-0.8381,0.0,0.0,-0.7739,0.0,0.0,0.0,0.0,0.0,0.0,0.0,0.0,0.0,0.0,0.0,0.0,0.0,0.0,0.0,0.0,0.0,0.0,0.0,0.0,0.0,0.0,-0.8912,-0.9394,-1.075,-1.1388,-1.121,-1.107,-1.0989,-1.0975,-1.074,-1.0134,-0.9176,0.0,0.0,0.0,0.0,0.0,0.0,0.0,0.0,0.0,0.0,0.0,0.0,0.0,0.0,0.0,0.0,0.0,0.0,0.0,0.0,0.0,0.0,0.0,0.0,0.0,0.0,-0.9583,-0.999,-1.0254,0.0,0.0,0.0,0.0,0.0,0.0,0.0,0.0,0.0,0.0,-1.5254,-1.6408,-1.7328,-1.8081,-1.85,-1.8144,-1.8344,-1.8442,-1.8066,-1.7243,-1.6594,0.0,0.0,0.0,0.0,0.0,0.0,0.0,0.0,0.0,0.0,0.0,0.0,0.0,0.0,0.0,0.0,0.0,0.0,0.0,0.0,0.0,0.0,0.0,0.0,0.0,0.0,0.0,-0.9594,-0.9618,0.0,0.0,0.0,0.0,0.0,0.0,0.0,0.0,0.0,0.0,0.0,-0.9646,-0.9019,0.0,0.0,0.0,0.0,0.0,0.0,0.0,0.0,0.0,0.0,0.0,0.0,-0.9338,-1.0071,-1.0828,-1.1248,-1.127,-1.0905,-1.074,-1.074,-1.0421,-0.976,-0.8697,0.0,0.0,0.0,0.0,0.0,0.0,0.0,0.0,0.0,0.0,0.0,0.0,0.0,0.0,0.0,0.0,0.0,0.0,0.0,0.0,0.0,0.0,0.0,0.0,0.0,-0.9728,0.0,0.0,0.0,0.0,0.0,0.0,0.0,0.0,0.0,0.0,0.0,-1.4141,-1.5264,-1.6299,-1.7256,-1.8096,-1.8701,-1.9023,0.0,0.0,0.0,0.0,0.0,0.0,0.0,0.0,0.0,0.0,0.0,0.0,0.0,0.0,-1.8023,-1.7449,-1.6466,-1.5568,-1.4971,0.0,0.0,0.0,0.0,0.0,0.0,0.0,0.0,0.0,0.0,0.0,0.0,0.0,0.0,-1.074,0.0,-1.0312,0.0,0.0,0.0,0.0,0.0,0.0,0.0,0.0,-1.1019,-1.0717,-1.0235,-0.9698,-0.9355,0.0,-0.9382,-0.8873,0.0,0.0,0.0,0.0,0.0,0.0,0.0,0.0,-1.0131,-1.0809,-1.1264,-1.1501,-1.1392,-1.0859,-1.0539,-1.0408,-0.999,-0.9406,-0.8557,-0.8067,-0.7618,0.0,0.0,0.0,0.0,0.0,0.0,0.0,0.0,0.0,0.0,0.0,0.0,0.0,0.0,0.0,0.0,0.0,0.0,0.0,0.0,0.0,0.0,0.0,-1.0137,0.0,0.0,0.0,0.0,0.0,0.0,0.0,0.0,0.0,-1.31,-1.3965,-1.501,-1.6143,-1.6924,-1.7686,-1.849,0.0,0.0,0.0,0.0,0.0,0.0,0.0,-1.6827,-1.7032,-1.716,-1.7509,-1.843,-1.9165,-1.9783,-2.0314,0.0,0.0,-1.99,-1.8999,-1.8193,-1.7617,-1.7025,-1.6811,-1.7365,-1.7759,-1.8346,0.0,0.0,0.0,0.0,0.0,0.0,0.0,0.0,-1.1442,-1.1799,0.0,-1.1324,0.0,0.0,0.0,0.0,0.0,-1.1129,0.0,0.0,-1.1354,-1.1182,-1.0853,-1.0098,-0.9903,-1.0207,-1.0523,-1.0401,-0.9828,-0.8332,0.0,0.0,0.0,0.0,0.0,0.0,-1.1294,-1.1638,-1.2048,-1.2081,-1.1622,-1.0919,-1.0394,-1.0087,-0.9511,-0.9084,-0.8811,-0.8517,-0.812,-0.7544,-0.7316,0.0,0.0,0.0,0.0,0.0,0.0,0.0,0.0,0.0,0.0,0.0,0.0,0.0,0.0,0.0,0.0,0.0,0.0,0.0,0.0,-1.0439,0.0,0.0,0.0,0.0,0.0,0.0,0.0,0.0,0.0,0.0,-1.3672,-1.4699,-1.5791,-1.6629,0.0,0.0,0.0,0.0,-1.9277,-1.9277,-1.9629,-1.9639,-1.8975,-1.8389,-1.799,-1.7976,0.0,0.0,-2.0934,-2.0878,-2.0972,-2.1658,-2.1979,-2.201,-2.1628,-2.1244,-2.0804,-2.0057,-1.9755,-1.9727,-1.9749,-1.9892,-2.0358,-1.0177,0.0,0.0,0.0,0.0,-1.0864,-1.1335,-1.1884,-1.2211,-1.2693,-1.322,-1.2469,0.0,0.0,0.0,0.0,0.0,0.0,-1.2102,-1.209,-1.1781,-1.1445,-1.1019,-1.0564,-1.0377,-1.0494,-1.0931,-1.0859,-1.0321,-0.9834,-0.9183,-0.8392,0.0,0.0,0.0,0.0,-1.2022,-1.2287,-1.2346,-1.2207,-1.1878,-1.0825,-1.0,-0.9477,-0.9297,-0.9078,-0.8811,-0.8556,-0.8322,-0.8141,-0.7444,0.0,0.0,0.0,0.0,0.0,0.0,0.0,0.0,0.0,0.0,0.0,0.0,0.0,0.0,0.0,0.0,0.0,0.0,0.0,-1.0459,-1.1316,-1.167,0.0,0.0,0.0,0.0,0.0,0.0,0.0,0.0,0.0,-1.5811,-1.6387,-1.7021,0.0,0.0,-1.8477,-1.9023,-1.9209,-1.9277,-1.9277,-1.9385,0.0,-1.8945,-1.8652,-1.8612,-1.9109,-2.0809,-2.2449,-2.3536,-2.3331,-2.3113,-2.3293,-2.3055,-2.279,-2.2627,-2.2189,-2.1915,-2.2006,-2.1399,-2.0836,-2.1069,-2.1349,-2.1735,-1.0545,-1.045,-1.0588,-1.0673,-1.0777,-1.1087,-1.1431,-1.1829,-1.2454,-1.316,-1.3886,-1.3413,-1.31,-1.2944,-1.2529,0.0,0.0,0.0,-1.2696,-1.251,-1.2035,-1.1577,-1.1185,-1.0782,-1.0687,-1.081,-1.1098,-1.1129,-1.0964,-1.0991,-1.0748,-1.0221,0.0,0.0,-1.0627,-1.2015,-1.2712,-1.2693,-1.2634,-1.2391,-1.1894,-1.0659,-0.9822,-0.9418,-0.9234,-0.9012,-0.8785,-0.8637,-0.8523,-0.8402,-0.7963,-0.7702,0.0,0.0,0.0,0.0,0.0,0.0,0.0,0.0,0.0,0.0,0.0,-0.7905,-0.8356,0.0,0.0,0.0,-0.9697,-1.0488,-1.1336,-1.207,0.0,0.0,0.0,0.0,0.0,0.0,0.0,-1.4184,-1.6035,-1.7123,-1.6897,-1.7282,-1.7783,-1.8169,-1.8442,-1.8822,-1.9453,0.0,-1.9637,-1.9897,-1.9991,-1.9932,-1.9644,-1.9618,-1.9971,-2.1034,-2.2434,-2.3785,-2.488,-2.4682,-2.4268,-2.4017,-2.3715,-2.3371,-2.3145,-2.2772,-2.2575,-2.299,-2.2476,-2.2026,-2.2217,-2.2388,-2.2637,-1.0795,-1.0716,-1.0719,-1.0674,-1.0753,-1.1049,-1.1241,-1.1368,-1.2347,-1.3274,-1.4147,-1.4096,-1.4071,-1.4085,-1.3704,0.0,-1.3245,-1.3525,-1.3349,-1.2785,-1.2179,-1.1717,-1.1365,-1.0909,-1.0846,-1.1178,-1.117,-1.1398,-1.1744,-1.191,-1.2139,-1.2438,-1.1115,-1.0841,-1.168,-1.2905,-1.3324,-1.2876,-1.2979,-1.2597,-1.1671,-1.0554,-0.9899,-0.9678,-0.9224,-0.8908,-0.8731,-0.8758,-0.8651,-0.8422,-0.8651,-0.8594,-0.8184,0.0,0.0,0.0,0.0,0.0,0.0,0.0,0.0,0.0,0.0,0.0,0.0,0.0,0.0,0.0,-1.0332,0.0,-1.2194,-1.2705,0.0,0.0,0.0,-1.3189,-1.3588,-1.4245,-1.4701,-1.4793,0.0,0.0,-1.7236,-1.7672,-1.8178,-1.8598,-1.8646,-1.8958,-1.9844,-1.9971,-2.0193,-2.0797,-2.1118,-2.1108,-2.0757,-2.1162,-2.1983,-2.3244,-2.3801,-2.4401,-2.5394,-2.5234,-2.4707,-2.428,-2.4104,-2.3853,-2.3221,-2.312,-2.3158,-2.3108,-2.3083,-2.307,-2.304,-2.304,-2.3053,-1.0939,-1.0909,-1.0718,-1.0665,-1.07,-1.0991,-1.1188,-1.1343,-1.2104,-1.2964,-1.3807,-1.3865,-1.3951,-1.4104,-1.4007,-1.4053,-1.4235,-1.4082,-1.3865,-1.3651,-1.2907,-1.2382,-1.205,-1.1591,-1.1466,-1.1646,-1.1905,-1.2131,-1.2321,-1.2613,-1.2861,-1.3041,-1.2529,-1.251,-1.3029,-1.364,-1.3782,-1.3498,-1.3477,-1.2781,-1.1442,-1.0914,-1.0272,-0.9481,-0.9174,-0.8706,-0.815,-0.8357,-0.8476,-0.8409,-0.8657,-0.8646,-0.8343,-0.8725,0.0,0.0,0.0,0.0,0.0,0.0,0.0,0.0,0.0,-0.8698,-0.9774,0.0,-1.0166,0.0,-1.1868,-1.25,-1.2705,-1.3398,0.0,0.0,-1.3812,-1.4104,-1.4845,-1.5098,-1.5547,-1.6404,-1.7387,-1.7939,-1.7817,-1.8169,-1.8607,-1.9072,-1.9131,-1.9434,-2.0312,-2.0449,-2.0604,-2.1069,-2.151,-2.1728,-2.1693,-2.288,-2.4025,-2.4554,-2.4938,-2.5441,-2.6167,-2.5774,-2.536,-2.5209,-2.4883,-2.4249,-2.3333,-2.3446,-2.3559,-2.3208,-2.3095,-2.3095,-2.3095,-2.3095,-2.3095,-1.0875,-1.0962,-1.0713,-1.0611,-1.0646,-1.0801,-1.0933,-1.1059,-1.1685,-1.2505,-1.3425,-1.4192,-1.4582,-1.4679,-1.4679,-1.4778,-1.4945,-1.4783,-1.4588,-1.4398,-1.3743,-1.3221,-1.2903,-1.2444,-1.2251,-1.2351,-1.2536,-1.2706,-1.2944,-1.3333,-1.3665,-1.3922,-1.36,-1.3676,-1.4048,-1.391,-1.3639,-1.3258,-1.3036,-1.2467,-1.1524,-1.1221,-1.0624,-0.9751,-0.9458,-0.8943,-0.8244,-0.8373,-0.8557,-0.8688,-0.8722,-0.8757,-0.8748,-0.8805,-0.8547,0.0,0.0,0.0,0.0,0.0,0.0,0.0,0.0,0.0,0.0,0.0,-1.1006,-1.2106,-1.2621,-1.3208,-1.3972,-1.4406,-1.4825,-1.5215,-1.5264,-1.5449,-1.5927,-1.6172,-1.6473,-1.7038,-1.7622,-1.8014,-1.7998,-1.8344,-1.8754,-1.9228,-1.9453,-1.9805,-2.0449,-2.0615,-2.076,-2.1167,-2.1711,-2.2295,-2.274,-2.4338,-2.5433,-2.5312,-2.5599,-2.6024,-2.6414,-2.6235,-2.59,-2.5669,-2.536,-2.4958,-2.4268,-2.4004,-2.3904,-2.369,-2.3321,-2.312,-2.3095,-2.3095,-2.3095,-1.0801,-1.0969,-1.0713,-1.0586,-1.0586,-1.0586,-1.0586,-1.0649,-1.1279,-1.2104,-1.3161,-1.4697,-1.5352,-1.5332,-1.5362,-1.5323,-1.5323,-1.5294,-1.5157,-1.4911,-1.443,-1.4043,-1.3743,-1.3351,-1.3139,-1.3139,-1.313,-1.329,-1.3631,-1.4064,-1.443,-1.4728,-1.4388,-1.4358,-1.4658,-1.3906,-1.327,-1.2812,-1.241,-1.2073,-1.1771,-1.1499,-1.096,-1.0146,-0.9835,-0.9344,-0.8653,-0.8652,-0.8807,-0.9077,-0.8899,-0.8924,-0.9229,-0.9112,-0.8944,0.0,-0.9,0.0,0.0,0.0,0.0,0.0,0.0,0.0,0.0,-1.1289,-1.1807,-1.2949,-1.3145,-1.3809,-1.5245,-1.5508,-1.5859,-1.659,-1.6697,-1.6716,-1.6794,-1.7158,-1.7353,-1.7223,-1.7705,-1.8018,-1.8144,-1.8442,-1.8851,-1.9336,-1.9756,-2.0137,-2.0517,-2.0605,-2.0731,-2.1128,-2.1807,-2.2815,-2.4032,-2.5465,-2.6258,-2.5851,-2.5975,-2.6308,-2.6474,-2.6474,-2.6323,-2.585,-2.577,-2.5644,-2.5468,-2.4669,-2.4167,-2.4186,-2.3615,-2.312,-2.3095,-2.3095,-2.3095,-1.0975,-1.0969,-1.0707,-1.0586,-1.0586,-1.0586,-1.0586,-1.0624,-1.1146,-1.2128,-1.3472,-1.4567,-1.5059,-1.5088,-1.5088,-1.499,-1.4824,-1.4706,-1.4656,-1.4597,-1.433,-1.4151,-1.4091,-1.3911,-1.3821,-1.3791,-1.3821,-1.3992,-1.4321,-1.4529,-1.4775,-1.5098,-1.4809,-1.4521,-1.4221,0.0,0.0,0.0,-1.2958,-1.2537,-1.2105,-1.1851,-1.12,-1.0144,-0.9856,0.0,-0.8726,-0.8883,-0.9023,-0.911,-0.9244,0.0,0.0,0.0,0.0,0.0,0.0,0.0,0.0,0.0,0.0,0.0,-1.291,-1.2852,-1.3008,-1.3295,-1.3597,-1.386,-1.4531,-1.5059,-1.5381,-1.6034,-1.6512,-1.6668,-1.6697,-1.6843,-1.7207,-1.7376,-1.749,-1.7812,-1.7949,-1.8193,-1.8633,-1.8984,-1.9316,-1.9707,-2.0166,-2.0546,-2.0799,-2.0731,-2.077,-2.1205,-2.2327,-2.3582,-2.4683,-2.5769,-2.6465,-2.6349,-2.6383,-2.644,-2.6487,-2.6487,-2.6487,-2.6298,-2.6336,-2.6135,-2.5624,-2.5071,-2.4481,-2.413,-2.3565,-2.3095,-2.3095,-2.3095,-2.3095,-1.0868,0.0,-1.0713,-1.0586,0.0,-1.0586,-1.0586,-1.0624,-1.1028,-1.2009,-1.3467,-1.4489,-1.4932,-1.4902,-1.4923,-1.4662,-1.4201,-1.3893,-1.3863,-1.3992,-1.4142,-1.4291,-1.4449,-1.4617,-1.4706,-1.4686,-1.4686,-1.4795,-1.4942,-1.503,-1.5128,-1.5284,-1.4962,-1.4678,-1.4443,-1.3828,-1.3408,-1.3203,-1.3013,-1.2773,-1.2559,-1.2359,-1.1799,-1.0923,-1.0505,0.0,0.0,0.0,0.0,0.0,0.0,0.0,0.0,0.0,0.0,-1.0496,-1.0552,-1.1063,-1.2129,-1.223,-1.2798,-1.4033,-1.4531,-1.4492,-1.3841,-1.4114,-1.4463,-1.4718,-1.542,-1.5986,-1.6357,-1.6797,-1.7139,-1.7301,-1.733,-1.7461,-1.7646,-1.7686,-1.7783,-1.7959,-1.8008,-1.8203,-1.8701,-1.9072,-1.9443,-1.9863,-2.0293,-2.0722,-2.0974,-2.0974,-2.1118,-2.1759,-2.2073,-2.3016,-2.4683,-2.5838,-2.6487,-2.6487,-2.6487,-2.6487,-2.6487,-2.6487,-2.6424,-2.6147,-2.6072,-2.5862,-2.5322,-2.4782,-2.433,-2.4029,-2.3496,-2.312,-2.3095,-2.3095,-2.3095,-1.0734,-1.0895,-1.0693,-1.0586,-1.0586,-1.0586,-1.0586,-1.0624,0.0,0.0,0.0,-1.4212,-1.4626,-1.4511,-1.4626,-1.4255,-1.3489,-1.3039,-1.3017,-1.3411,-1.3885,-1.4312,-1.4686,-1.5186,-1.542,-1.542,-1.542,-1.542,-1.542,-1.542,-1.542,-1.5381,-1.5068,-1.4824,-1.4629,-1.3818,-1.3223,-1.2935,-1.2915,-1.2866,-1.2773,-1.2667,-1.2335,-1.1699,-1.1256,-1.0788,-1.0298,-0.9928,-1.0013,-1.0659,-1.044,-1.0575,-1.1144,-1.1088,-1.1095,-1.1293,-1.1525,-1.2086,-1.3027,-1.3174,-1.3766,-1.496,-1.5694,-1.5615,-1.4551,-1.4766,-1.5165,-1.5605,-1.6152,-1.677,-1.7324,-1.7451,-1.7627,-1.7969,-1.8008,-1.7998,-1.7998,-1.8008,-1.7998,-1.8008,-1.8008,-1.8203,-1.8676,-1.9072,-1.9482,-1.9951,-2.0352,-2.0799,-2.1233,-2.1464,-2.1825,-2.258,-2.2176,-2.2231,-2.442,-2.5838,-2.6418,-2.6487,-2.6487,-2.6487,-2.6487,-2.6411,-2.6147,-2.5724,-2.5536,-2.5297,-2.4863,-2.4418,-2.4017,-2.3991,-2.354,-2.3095,-2.3095,-2.3095,-2.3095,-1.062,-1.0646,-1.0613,-1.0586,-1.0586,-1.0586,-1.0586,-1.0656,-1.109,-1.1613,-1.2259,-1.343,-1.3701,-1.3291,-1.3735,-1.3505,-1.2636,-1.232,-1.2405,-1.2926,-1.3502,-1.4052,-1.4558,-1.5118,-1.542,-1.542,-1.542,-1.542,-1.542,-1.542,-1.542,-1.541,-1.5352,-1.4951,-1.4182,-1.3398,-1.2964,-1.2915,-1.2915,-1.2695,-1.2311,-1.2278,-1.2054,-1.1626,-1.1567,-1.1468,-1.1378,-1.1298,-1.1318,-1.1421,-1.1407,-1.1423,-1.1518,-1.1519,-1.1652,-1.2037,-1.2443,-1.3066,-1.387,-1.4316,-1.494,-1.5801,-1.6026,-1.6007,-1.586,-1.6182,-1.6424,-1.6521,-1.6943,-1.7298,-1.7402,-1.7705,-1.792,-1.7988,-1.8008,-1.8008,-1.8008,-1.8008,-1.8008,-1.8008,-1.8008,-1.833,-1.9023,-1.9248,-1.96,-2.0264,-2.0585,-2.0915,-2.1711,-2.2268,-2.2697,-2.3095,-2.2446,-2.2745,-2.4576,-2.5838,-2.6418,-2.6487,-2.6474,-2.6424,-2.6424,-2.6047,-2.5674,-2.5573,-2.5184,-2.4863,-2.4713,-2.4368,-2.4004,-2.3904,-2.3477,-2.312,-2.3108,-2.312,-2.3133,-1.0586,-1.0586,-1.0586,-1.0586,-1.0586,-1.0586,-1.0586,-1.0624,-1.0807,-1.1252,-1.1823,-1.267,-1.2869,-1.2649,-1.2917,-1.2585,-1.1833,-1.1428,-1.1553,-1.2197,-1.2956,-1.3662,-1.427,-1.503,-1.542,-1.542,-1.542,-1.542,-1.542,-1.542,-1.542,-1.5391,-1.5186,-1.4756,-1.4104,-1.3525,-1.3105,-1.2915,-1.2915,-1.2807,-1.2588,-1.2588,-1.249,-1.2299,-1.2061,-1.1924,-1.1924,-1.1734,-1.1692,-1.1914,-1.1908,-1.2025,-1.2289,-1.2303,-1.2376,-1.2588,-1.2978,-1.3496,-1.4065,-1.4971,-1.5674,-1.6065,-1.6545,-1.6819,-1.6809,-1.6748,-1.6804,-1.7061,-1.7275,-1.749,-1.7695,-1.79,-1.8008,-1.8008,-1.8008,-1.8008,-1.8008,-1.8008,-1.8008,-1.8008,-1.8008,-1.834,-1.918,-1.9284,-1.9624,-2.042,-2.076,-2.1223,-2.1956,-2.2606,-2.3239,-2.3717,-2.3742,-2.4143,-2.5158,-2.5955,-2.6418,-2.6487,-2.6223,-2.6025,-2.5996,-2.5536,-2.5109,-2.4782,-2.4519,-2.4236,-2.3985,-2.3697,-2.3521,-2.3471,-2.3321,-2.312,-2.312,-2.3333,-2.3459,-1.0586,-1.0586,-1.0586,-1.0586,-1.0586,-1.0586,-1.0586,-1.0586,-1.0586,-1.088,-1.1409,-1.2024,-1.2186,-1.2037,-1.2218,-1.1885,-1.1206,-1.0776,-1.0933,-1.1591,-1.2466,-1.323,-1.3932,-1.4854,-1.5332,-1.5362,-1.5391,-1.542,-1.542,-1.542,-1.542,-1.5361,-1.4893,-1.4463,-1.4104,-1.3597,-1.3203,-1.2925,-1.2915,-1.2915,-1.2915,-1.2915,-1.2915,-1.2886,-1.2549,-1.2373,-1.2363,-1.2041,-1.2044,-1.2311,-1.2355,-1.2525,-1.2866,-1.2915,-1.2944,-1.3037,-1.3418,-1.3851,-1.4397,-1.543,-1.6134,-1.6261,-1.6975,-1.7455,-1.748,-1.7217,-1.7126,-1.7461,-1.7529,-1.7676,-1.792,-1.8008,-1.8008,-1.8008,-1.8008,-1.8008,-1.8008,-1.8008,-1.8008,-1.8008,-1.8008,-1.833,-1.9036,-1.9296,-1.9664,-2.0429,-2.0935,-2.1339,-2.1832,-2.2644,-2.3372,-2.4177,-2.4993,-2.5523,-2.5816,-2.6176,-2.6389,-2.6348,-2.5959,-2.5636,-2.5435,-2.4996,-2.4556,-2.4142,-2.3904,-2.369,-2.3221,-2.3133,-2.3145,-2.3158,-2.312,-2.3158,-2.3346,-2.3665,-2.3766,-1.0586,-1.0586,-1.0586,-1.0586,-1.0586,-1.0586,-1.0586,-1.0586,-1.0586,-1.0638,-1.0794,-1.1575,-1.1668,-1.1322,-1.1736,-1.1518,-1.0877,-1.0649,-1.087,-1.1365,-1.2151,-1.2917,-1.3571,-1.4567,-1.5088,-1.5205,-1.5332,-1.542,-1.542,-1.542,-1.542,-1.5322,-1.4572,-1.4163,-1.4026,-1.335,-1.292,-1.2915,-1.2915,-1.2915,-1.2915,-1.2915,-1.2915,-1.2915,-1.2866,-1.2846,-1.2817,-1.2807,-1.2798,-1.2837,-1.2827,-1.2846,-1.2895,-1.2915,-1.3071,-1.3428,-1.3812,-1.4397,-1.5225,-1.5811,-1.6281,-1.665,-1.7119,-1.7559,-1.7891,-1.79,-1.7891,-1.792,-1.7939,-1.7949,-1.8008,-1.8008,-1.8008,-1.8008,-1.8008,-1.8008,-1.8008,-1.8008,-1.8008,-1.8008,-1.8008,-1.833,-1.9102,-1.9348,-1.9679,-2.0498,-2.078,-2.1051,-2.1454,-2.2203,-2.3106,-2.4181,-2.5429,-2.6198,-2.6336,-2.6418,-2.626,-2.5845,-2.5624,-2.5335,-2.4921,-2.4469,-2.4029,-2.3853,-2.3577,-2.3221,-2.317,-2.3095,-2.3095,-2.3095,-2.3145,-2.3258,-2.371,-2.3991,-2.3841,-1.0586,-1.0586,-1.0586,-1.0586,-1.0586,-1.0586,-1.0586,-1.0586,-1.0586,-1.0586,-1.0638,-1.1001,-1.1019,-1.0821,-1.1033,-1.098,-1.0681,-1.0624,-1.0814,-1.1209,-1.181,-1.2451,-1.313,-1.4073,-1.4656,-1.4922,-1.5235,-1.542,-1.542,-1.542,-1.542,-1.5322,-1.4523,-1.4114,-1.4046,-1.3301,-1.2915,-1.2915,-1.2915,-1.2915,-1.2915,-1.2915,-1.2915,-1.2915,-1.2915,-1.2915,-1.2915,-1.2915,-1.2915,-1.2915,-1.2915,-1.2915,-1.2915,-1.3115,-1.332,-1.3535,-1.415,-1.4893,-1.5742,-1.6201,-1.666,-1.708,-1.7519,-1.7832,-1.7988,-1.8008,-1.8008,-1.8008,-1.8008,-1.8008,-1.8008,-1.8008,-1.8008,-1.8008,-1.8008,-1.8018,-1.8008,-1.8018,-1.8008,-1.8008,-1.8008,-1.834,-1.915,-1.9764,-2.0194,-2.0556,-2.0693,-2.0848,-2.0992,-2.1645,-2.2477,-2.3286,-2.4319,-2.5369,-2.613,-2.6172,-2.5908,-2.5561,-2.5046,-2.4531,-2.4356,-2.3866,-2.3459,-2.3459,-2.3258,-2.3108,-2.3108,-2.3095,-2.3095,-2.3095,-2.3133,-2.3271,-2.3879,-2.4255,-2.4305,-1.0586,-1.0586,-1.0586,-1.0586,-1.0586,-1.0586,-1.0586,-1.0586,-1.0586,-1.0586,-1.0586,-1.0586,-1.0586,-1.0586,-1.0586,-1.0586,-1.0586,-1.0586,-1.0744,-1.1059,-1.1476,-1.2027,-1.2712,-1.3614,-1.4273,-1.4677,-1.5177,-1.542,-1.542,-1.542,-1.542,-1.5293,-1.4533,-1.4114,-1.4016,-1.3301,-1.2915,-1.2915,-1.2915,-1.2915,-1.2915,-1.2915,-1.2915,-1.2915,-1.2915,-1.2915,-1.2915,-1.2915,-1.2915,-1.2915,-1.2988,-1.3047,-1.3091,-1.3447,-1.373,-1.3896,-1.4541,-1.5273,-1.6046,-1.6484,-1.6924,-1.7353,-1.7773,-1.8008,-1.8008,-1.8008,-1.8008,-1.8008,-1.8008,-1.8008,-1.8008,-1.8008,-1.8008,-1.8018,-1.8061,-1.8184,-1.8159,-1.8262,-1.8389,-1.8359,-1.8447,-1.8623,-1.9375,-2.0096,-2.0586,-2.0595,-2.0644,-2.0722,-2.0876,-2.152,-2.2328,-2.2983,-2.3804,-2.47,-2.5784,-2.5674,-2.5385,-2.5046,-2.4443,-2.4054,-2.3828,-2.3321,-2.312,-2.3258,-2.3145,-2.3095,-2.3095,-2.3095,-2.3095,-2.3095,-2.312,-2.3371,-2.4155,-2.4569,-2.4921,-1.0586,-1.0586,-1.0586,-1.0586,-1.0586,-1.0586,-1.0586,-1.0586,-1.0586,-1.0586,-1.0586,-1.0586,-1.0586,-1.0586,-1.0586,-1.0586,-1.0586,-1.0586,-1.0688,-1.0839,-1.1146,-1.1677,-1.2367,-1.3268,-1.3992,-1.4499,-1.5118,-1.542,-1.542,-1.542,-1.542,-1.5361,-1.4523,-1.4114,-1.3997,-1.3301,-1.2915,-1.2915,-1.2915,-1.2915,-1.2915,-1.2915,-1.2915,-1.2915,-1.2915,-1.2915,-1.2915,-1.2915,-1.2915,-1.2915,-1.3223,-1.3447,-1.348,-1.3877,-1.425,-1.4687,-1.5117,-1.5576,-1.6085,-1.6504,-1.6902,-1.7373,-1.7783,-1.8008,-1.8008,-1.8008,-1.8008,-1.8008,-1.8008,-1.8008,-1.8008,-1.8008,-1.8027,-1.8076,-1.8344,-1.852,-1.8578,-1.8916,-1.9189,-1.918,-1.915,-1.9336,-1.9805,-2.0283,-2.0566,-2.0644,-2.077,-2.0974,-2.131,-2.2025,-2.2925,-2.3788,-2.4531,-2.5147,-2.4975,-2.5001,-2.4745,-2.4368,-2.4155,-2.3803,-2.3409,-2.3108,-2.3108,-2.3095,-2.3095,-2.3095,-2.3095,-2.3095,-2.3095,-2.3095,-2.3095,-2.3459,-2.4205,-2.4632,-2.5013,-1.0586,-1.0586,-1.0586,-1.0586,-1.0586,-1.0586,-1.0586,-1.0586,-1.0586,-1.0586,-1.0586,-1.0586,-1.0586,-1.0586,-1.0586,-1.0586,-1.0586,-1.0586,-1.0624,-1.0681,-1.0807,-1.1216,-1.1895,-1.2803,-1.3593,-1.421,-1.501,-1.542,-1.542,-1.542,-1.542,-1.5273,-1.4533,-1.4114,-1.3958,-1.3301,-1.2915,-1.2915,-1.2915,-1.2915,-1.2915,-1.2915,-1.2915,-1.2915,-1.2915,-1.2915,-1.2915,-1.2915,-1.2915,-1.2915,-1.3027,-1.3232,-1.3535,-1.4143,-1.4736,-1.5137,-1.5332,-1.5732,-1.6387,-1.6609,-1.7009,-1.7705,-1.791,-1.8008,-1.8008,-1.8008,-1.8008,-1.8008,-1.8008,-1.8008,-1.8008,-1.8008,-1.8091,-1.8334,-1.851,-1.8744,-1.8994,-1.9199,-1.9277,-1.9316,-1.9492,-1.9728,-1.9961,-2.0331,-2.0595,-2.0605,-2.0886,-2.1262,-2.1738,-2.2531,-2.3382,-2.4037,-2.4585,-2.482,-2.4341,-2.4625,-2.4612,-2.413,-2.3753,-2.3459,-2.3133,-2.3108,-2.3095,-2.3095,-2.3095,-2.3095,-2.3095,-2.3095,-2.3095,-2.3095,-2.3095,-2.3409,-2.413,-2.4469,-2.5026,-1.0734,-1.0713,-1.0633,-1.0586,-1.0586,-1.0586,-1.0586,-1.0586,-1.0586,-1.0586,-1.0586,-1.0586,-1.0586,-1.0586,-1.0586,-1.0586,-1.0586,-1.0586,-1.0624,-1.0681,-1.0719,-1.116,-1.1864,-1.2742,-1.3502,-1.421,-1.5001,-1.542,-1.542,-1.542,-1.542,-1.5361,-1.465,-1.4241,-1.4016,-1.3428,-1.3062,-1.2944,-1.2915,-1.2915,-1.2915,-1.2915,-1.2915,-1.2915,-1.2915,-1.2915,-1.2915,-1.2915,-1.2915,-1.2925,-1.3008,-1.3365,-1.3916,-1.459,-1.5107,-1.5371,-1.541,-1.5801,-1.6541,-1.6697,-1.7077,-1.791,-1.8008,-1.8008,-1.8008,-1.8008,-1.8008,-1.8008,-1.8018,-1.8037,-1.8149,-1.8178,-1.8295,-1.8588,-1.8841,-1.9114,-1.9453,-1.9619,-1.9707,-1.9822,-2.0046,-2.0231,-2.0346,-2.066,-2.0924,-2.0982,-2.1387,-2.1901,-2.2408,-2.3169,-2.3954,-2.4529,-2.5075,-2.5108,-2.4803,-2.485,-2.4374,-2.381,-2.3534,-2.3233,-2.3145,-2.3133,-2.3133,-2.312,-2.3108,-2.3108,-2.3108,-2.3108,-2.3133,-2.3145,-2.3145,-2.3346,-2.3866,-2.4274,-2.4903,-1.0989,-1.0909,-1.0681,-1.0586,-1.0586,-1.0586,-1.0586,-1.0586,-1.0586,-1.0586,-1.0586,-1.0586,-1.0586,-1.0586,-1.0586,-1.0586,-1.0586,-1.0586,-1.0688,-1.0807,-1.1028,-1.156,-1.2305,-1.3147,-1.3893,-1.4529,-1.5118,-1.541,-1.542,-1.542,-1.542,-1.5332,-1.4961,-1.4541,-1.4133,-1.374,-1.3301,-1.3067,-1.3008,-1.2978,-1.2925,-1.2978,-1.3032,-1.3003,-1.3013,-1.3003,-1.2954,-1.2925,-1.2915,-1.2954,-1.3262,-1.3896,-1.46,-1.5117,-1.54,-1.541,-1.543,-1.5829,-1.6551,-1.6736,-1.7135,-1.7842,-1.8008,-1.8008,-1.8008,-1.8008,-1.8008,-1.8008,-1.8076,-1.8193,-1.849,-1.8637,-1.8695,-1.8695,-1.9319,-1.9775,-1.9961,-2.0273,-2.0576,-2.0527,-2.0691,-2.0964,-2.1156,-2.1405,-2.1606,-2.1911,-2.2354,-2.2879,-2.335,-2.4107,-2.485,-2.5452,-2.5738,-2.5701,-2.5448,-2.5121,-2.4236,-2.3509,-2.3321,-2.312,-2.3233,-2.3271,-2.3271,-2.3258,-2.3371,-2.3371,-2.3439,-2.3452,-2.3527,-2.3527,-2.3439,-2.3502,-2.3979,-2.4488,-2.4816,-1.1056,-1.074,-1.0633,-1.0586,-1.0586,-1.0586,-1.0586,-1.0586,-1.0586,-1.0586,-1.0586,-1.0586,-1.0586,-1.0586,-1.0586,-1.0586,-1.0586,-1.0593,-1.0719,-1.1021,-1.1421,-1.1973,-1.2712,-1.3554,-1.4371,-1.503,-1.5294,-1.542,-1.542,-1.542,-1.542,-1.5342,-1.5,-1.4736,-1.4551,-1.4114,-1.372,-1.3387,-1.3598,-1.3607,-1.3368,-1.3572,-1.3714,-1.3714,-1.3724,-1.3623,-1.332,-1.3062,-1.2925,-1.2925,-1.3281,-1.3896,-1.4668,-1.5186,-1.541,-1.5439,-1.5713,-1.6094,-1.6629,-1.7021,-1.7402,-1.7881,-1.8008,-1.8008,-1.8008,-1.8008,-1.8018,-1.8066,-1.8261,-1.8508,-1.864,-1.9163,-1.9416,-1.9465,-1.9718,-2.0059,-2.0321,-2.0507,-2.0595,-2.0644,-2.0886,-2.1262,-2.169,-2.2069,-2.2483,-2.292,-2.3364,-2.3852,-2.4407,-2.4886,-2.5523,-2.6107,-2.6252,-2.6233,-2.5816,-2.5423,-2.4808,-2.4061,-2.3684,-2.3409,-2.3459,-2.3559,-2.3521,-2.3559,-2.3659,-2.371,-2.3766,-2.3859,-2.396,-2.4147,-2.424,-2.4368,-2.4532,-2.4757,-2.5046,-1.1056,-1.0754,-1.064,-1.0586,-1.0586,-1.0586,-1.0586,-1.0586,-1.0586,-1.0586,-1.0586,-1.0586,-1.0586,-1.0586,-1.0586,-1.0586,-1.0586,-1.0586,-1.0846,-1.1303,-1.1779,-1.2366,-1.3139,-1.4103,-1.4844,-1.5294,-1.542,-1.542,-1.542,-1.542,-1.542,-1.5352,-1.5137,-1.4932,-1.4785,-1.4512,-1.4159,-1.3834,-1.3965,-1.3976,-1.3827,-1.3976,-1.4114,-1.4104,-1.4104,-1.3899,-1.3535,-1.3389,-1.3271,-1.3252,-1.3652,-1.4248,-1.4766,-1.5176,-1.5478,-1.5713,-1.5958,-1.6318,-1.6894,-1.7227,-1.7568,-1.791,-1.8008,-1.8008,-1.8008,-1.8008,-1.8057,-1.8247,-1.8424,-1.8744,-1.9088,-1.9504,-1.9923,-2.0146,-2.0156,-2.0312,-2.0556,-2.0644,-2.077,-2.0915,-2.131,-2.1863,-2.2408,-2.2947,-2.3438,-2.3902,-2.4301,-2.4683,-2.5158,-2.5535,-2.6037,-2.6349,-2.6405,-2.6276,-2.6025,-2.5674,-2.5322,-2.4782,-2.428,-2.4004,-2.3879,-2.401,-2.4073,-2.4161,-2.4261,-2.4261,-2.4318,-2.4469,-2.4589,-2.4804,-2.4906,-2.4773,-2.4725,-2.4851,-2.5124,-1.0989,-1.0935,-1.0707,-1.0586,-1.0586,-1.0586,-1.0586,-1.0586,-1.0586,-1.0586,-1.0586,-1.0586,-1.0586,-1.0586,-1.0586,-1.0586,-1.0586,-1.0586,-1.0965,-1.1553,-1.212,-1.2826,-1.3773,-1.4686,-1.5196,-1.5381,-1.542,-1.542,-1.542,-1.542,-1.542,-1.54,-1.5361,-1.5215,-1.4932,-1.4824,-1.4619,-1.4214,-1.4194,-1.4229,-1.4161,-1.4211,-1.4241,-1.426,-1.427,-1.4065,-1.3685,-1.3821,-1.387,-1.374,-1.4307,-1.4715,-1.4893,-1.5225,-1.5693,-1.6036,-1.6114,-1.6633,-1.721,-1.7441,-1.7627,-1.7959,-1.8008,-1.8008,-1.8008,-1.8086,-1.8208,-1.85,-1.8702,-1.9044,-1.965,-1.9961,-2.0166,-2.0517,-2.0527,-2.0566,-2.0595,-2.077,-2.1002,-2.1349,-2.1949,-2.2692,-2.3313,-2.3936,-2.4396,-2.4791,-2.5146,-2.5453,-2.5641,-2.5968,-2.6258,-2.6396,-2.6487,-2.6424,-2.621,-2.6084,-2.5745,-2.531,-2.4921,-2.4808,-2.4506,-2.4607,-2.4537,-2.4637,-2.4808,-2.48,-2.4933,-2.5066,-2.5187,-2.5327,-2.5219,-2.4946,-2.5048,-2.5298,-2.5425,-1.0901,-1.07,-1.062,-1.0586,-1.0586,-1.0586,-1.0586,-1.0586,-1.0586,-1.0586,-1.0586,-1.0586,-1.0586,-1.0586,-1.0586,-1.0586,-1.0586,-1.0586,-1.0972,-1.1646,-1.2466,-1.3606,-1.4667,-1.5147,-1.5362,-1.541,-1.542,-1.542,-1.542,-1.542,-1.542,-1.542,-1.541,-1.5361,-1.5254,-1.5225,-1.5013,-1.4725,-1.4925,-1.4869,-1.4686,-1.4907,-1.505,-1.504,-1.5011,-1.464,-1.4036,-1.4046,-1.425,-1.4453,-1.4549,-1.4834,-1.5244,-1.5732,-1.6085,-1.6222,-1.6721,-1.709,-1.7406,-1.7666,-1.7891,-1.7978,-1.8008,-1.8008,-1.8018,-1.8266,-1.8451,-1.8715,-1.9117,-1.964,-1.9932,-2.0195,-2.0468,-2.0566,-2.0615,-2.0615,-2.0654,-2.0925,-2.1272,-2.1766,-2.2531,-2.3423,-2.4251,-2.4874,-2.5347,-2.5804,-2.6025,-2.6129,-2.6176,-2.6211,-2.643,-2.6418,-2.6487,-2.6487,-2.6436,-2.6348,-2.6135,-2.5749,-2.5611,-2.5749,-2.546,-2.5297,-2.5096,-2.4901,-2.5146,-2.5222,-2.5511,-2.5757,-2.5833,-2.5757,-2.5871,-2.5762,-2.5959,-2.6136,-2.6111,-1.0747,-1.0586,-1.0586,-1.0586,-1.0586,-1.0586,-1.0586,-1.0586,-1.0586,-1.0586,-1.0586,-1.0586,-1.0586,-1.0586,-1.0586,-1.0586,-1.0586,-1.0586,-1.0965,-1.1747,-1.2873,-1.4133,-1.5118,-1.542,-1.542,-1.542,-1.542,-1.542,-1.542,-1.542,-1.542,-1.542,-1.542,-1.542,-1.5391,-1.541,-1.5303,-1.5138,-1.5303,-1.5264,-1.5071,-1.5264,-1.5371,-1.5361,-1.5264,-1.4853,-1.4443,-1.4211,-1.4377,-1.4873,-1.499,-1.5146,-1.5674,-1.6075,-1.6408,-1.6613,-1.7151,-1.7432,-1.7656,-1.7891,-1.7988,-1.8008,-1.8008,-1.8115,-1.8262,-1.8481,-1.8646,-1.9182,-1.9668,-1.9961,-2.0195,-2.0468,-2.0586,-2.0615,-2.0615,-2.0605,-2.0615,-2.1031,-2.1596,-2.2285,-2.3106,-2.4093,-2.5123,-2.5571,-2.6015,-2.6327,-2.6383,-2.6418,-2.6452,-2.6487,-2.6487,-2.6487,-2.6487,-2.6487,-2.6487,-2.6424,-2.6399,-2.6084,-2.6034,-2.6248,-2.6147,-2.5862,-2.5724,-2.5536,-2.5586,-2.5649,-2.5824,-2.6009,-2.6021,-2.6072,-2.6373,-2.6487,-2.6487,-2.6487,-2.6487,-1.0586,-1.0586,-1.0586,-1.0586,-1.0586,-1.0586,-1.0586,-1.0586,-1.0586,-1.0586,-1.0586,-1.0586,-1.0586,-1.0586,-1.0586,-1.0586,-1.0586,-1.0586,-1.1153,-1.205,-1.3238,-1.4469,-1.5294,-1.542,-1.542,-1.542,-1.542,-1.542,-1.542,-1.542,-1.542,-1.542,-1.542,-1.542,-1.542,-1.542,-1.542,-1.5381,-1.5381,-1.5322,-1.5205,-1.5244,-1.5186,-1.504,-1.4746,-1.4707,-1.459,-1.4397,-1.4465,-1.5371,-1.541,-1.5615,-1.6026,-1.6271,-1.675,-1.7197,-1.7412,-1.7646,-1.79,-1.7978,-1.8008,-1.8008,-1.8008,-1.8193,-1.8461,-1.8666,-1.9043,-1.9734,-1.9969,-2.0348,-2.0689,-2.0789,-2.0838,-2.0886,-2.0799,-2.076,-2.0838,-2.1233,-2.1863,-2.2686,-2.3647,-2.4612,-2.543,-2.598,-2.6305,-2.643,-2.6487,-2.6487,-2.6487,-2.6487,-2.6487,-2.6487,-2.6487,-2.6487,-2.6487,-2.6474,-2.6474,-2.6373,-2.6323,-2.6411,-2.6411,-2.6285,-2.6323,-2.6223,-2.5774,-2.5649,-2.5774,-2.59,-2.5971,-2.6142,-2.6283,-2.6414,-2.6487,-2.6487,-2.6487,-1.0586,-1.0586,-1.0586,-1.0586,-1.0586,-1.0586,-1.0586,-1.0586,-1.0586,-1.0586,-1.0586,-1.0586,-1.0586,-1.0586,-1.0586,-1.0586,-1.0618,-1.0713,-1.1327,-1.2734,-1.3511,-1.4499,-1.5245,-1.542,-1.542,-1.542,-1.542,-1.542,-1.542,-1.542,-1.542,-1.542,-1.542,-1.542,-1.542,-1.542,-1.542,-1.541,-1.54,-1.5212,-1.4986,-1.4936,-1.4766,-1.4436,-1.4072,-1.4219,-1.458,-1.4338,-1.4543,-1.5147,-1.5439,-1.5615,-1.6173,-1.7021,-1.7471,-1.7471,-1.7715,-1.791,-1.7988,-1.8008,-1.8008,-1.8008,-1.8027,-1.8193,-1.8568,-1.8919,-1.9419,-2.0098,-2.0605,-2.1044,-2.1489,-2.153,-2.1568,-2.1606,-2.1568,-2.1558,-2.1568,-2.1693,-2.2182,-2.3169,-2.4072,-2.504,-2.6094,-2.628,-2.6465,-2.6487,-2.6487,-2.6487,-2.6487,-2.6487,-2.6487,-2.6487,-2.6487,-2.6487,-2.6487,-2.6487,-2.6487,-2.6487,-2.6487,-2.6487,-2.6487,-2.6323,-2.6223,-2.6009,-2.5686,-2.5624,-2.5498,-2.5515,-2.5523,-2.5824,-2.6189,-2.6321,-2.6427,-2.644,-2.6487,-1.0586,-1.0586,-1.0586,-1.0586,-1.0586,-1.0586,-1.0586,-1.0586,-1.0586,-1.0586,-1.0586,-1.0586,-1.0586,-1.0586,-1.0586,-1.0586,-1.0681,-1.0972,-1.1763,-1.2917,-1.3692,-1.4499,-1.5245,-1.542,-1.542,-1.542,-1.542,-1.542,-1.542,-1.542,-1.542,-1.542,-1.542,-1.542,-1.542,-1.541,-1.542,-1.5352,-1.5195,-1.4995,-1.4825,-1.458,-1.4287,-1.3948,-1.3782,-1.4036,-1.4385,-1.4492,-1.4767,-1.5234,-1.542,-1.5644,-1.626,-1.7305,-1.7803,-1.7793,-1.7852,-1.8008,-1.8008,-1.8008,-1.8008,-1.8008,-1.8008,-1.8389,-1.8769,-1.918,-1.9738,-2.0522,-2.1242,-2.1804,-2.2483,-2.2585,-2.2585,-2.2585,-2.2596,-2.2585,-2.2547,-2.2253,-2.2456,-2.354,-2.4492,-2.5358,-2.6082,-2.6418,-2.6487,-2.6487,-2.6487,-2.6487,-2.6487,-2.6487,-2.6487,-2.6487,-2.6487,-2.6487,-2.6487,-2.6487,-2.6487,-2.6487,-2.6487,-2.6487,-2.6487,-2.6235,-2.5959,-2.5649,-2.5347,-2.5059,-2.4958,-2.4988,-2.5173,-2.5601,-2.5915,-2.6177,-2.6368,-2.6474,-2.6487,-1.0586,-1.0586,-1.0586,-1.0586,-1.0586,-1.0586,-1.0586,-1.0586,-1.0586,-1.0586,-1.0586,-1.0586,-1.0586,-1.0586,-1.0586,-1.0586,-1.0782,-1.131,-1.2073,-1.2978,-1.3692,-1.4499,-1.5206,-1.542,-1.542,-1.542,-1.542,-1.542,-1.542,-1.542,-1.542,-1.542,-1.542,-1.542,-1.542,-1.541,-1.5332,-1.5214,-1.4999,-1.468,-1.4502,-1.4188,-1.3867,-1.3701,-1.3753,-1.4055,-1.4346,-1.46,-1.4961,-1.5371,-1.542,-1.5762,-1.6455,-1.7324,-1.8008,-1.7988,-1.7998,-1.7998,-1.8008,-1.8008,-1.8008,-1.8008,-1.8105,-1.8511,-1.9125,-1.9577,-2.0252,-2.1162,-2.2031,-2.2798,-2.3526,-2.3647,-2.3635,-2.3635,-2.3672,-2.3708,-2.3576,-2.3,-2.3341,-2.4013,-2.4803,-2.5522,-2.6117,-2.6487,-2.6487,-2.6487,-2.6487,-2.6487,-2.6487,-2.6487,-2.6487,-2.6487,-2.6487,-2.6487,-2.6487,-2.6487,-2.6487,-2.6487,-2.6487,-2.6487,-2.6399,-2.585,-2.5485,-2.5247,-2.4958,-2.4619,-2.4381,-2.4381,-2.4691,-2.5277,-2.5701,-2.5952,-2.6202,-2.644,-2.6487,-1.0586,-1.0586,-1.0586,-1.0586,-1.0586,-1.0586,-1.0586,-1.0586,-1.0586,-1.0586,-1.0586,-1.0586,-1.0586,-1.0586,-1.0586,-1.0586,-1.0744,-1.131,-1.2089,-1.2945,-1.364,-1.4444,-1.51,-1.5244,-1.5312,-1.542,-1.5391,-1.5361,-1.541,-1.542,-1.542,-1.542,-1.542,-1.542,-1.542,-1.5391,-1.5244,-1.5055,-1.4831,-1.4471,-1.4003,-1.3702,-1.3623,-1.3506,-1.3672,-1.4043,-1.4551,-1.4746,-1.498,-1.5361,-1.541,-1.5879,-1.6599,-1.7529,-1.7949,-1.8008,-1.8008,-1.8008,-1.8008,-1.8008,-1.8008,-1.8076,-1.8256,-1.8762,-1.9453,-2.0096,-2.0944,-2.2147,-2.3191,-2.4022,-2.442,-2.4564,-2.4528,-2.4528,-2.4564,-2.4564,-2.4505,-2.4399,-2.4352,-2.4898,-2.5299,-2.558,-2.6104,-2.6487,-2.6487,-2.6487,-2.6487,-2.6487,-2.6487,-2.6487,-2.6487,-2.6487,-2.6487,-2.6487,-2.6487,-2.6487,-2.6487,-2.6487,-2.6487,-2.6487,-2.621,-2.5448,-2.5001,-2.5071,-2.4594,-2.4004,-2.3853,-2.3828,-2.4243,-2.482,-2.5282,-2.5726,-2.6143,-2.6487,-2.6487,-1.0586,-1.0586,-1.0586,-1.0586,-1.0586,-1.0586,-1.0586,-1.0586,-1.0586,-1.0586,-1.0586,-1.0586,-1.0586,-1.0586,-1.0586,-1.0586,-1.0776,-1.131,-1.2012,-1.2742,-1.3397,-1.4029,-1.4702,-1.4747,-1.4718,-1.4786,-1.4951,-1.5215,-1.54,-1.542,-1.542,-1.542,-1.542,-1.542,-1.542,-1.541,-1.5283,-1.5037,-1.4666,-1.4263,-1.3769,-1.3469,-1.3297,-1.3496,-1.375,-1.417,-1.4658,-1.5039,-1.5312,-1.5694,-1.5851,-1.6256,-1.6899,-1.7539,-1.8008,-1.8008,-1.8008,-1.8008,-1.8008,-1.8008,-1.8008,-1.8057,-1.8418,-1.896,-1.9709,-2.0559,-2.1834,-2.3366,-2.4335,-2.5123,-2.5594,-2.5581,-2.5616,-2.5616,-2.5606,-2.5606,-2.5629,-2.5615,-2.5664,-2.5737,-2.5984,-2.6193,-2.6255,-2.6487,-2.6487,-2.6487,-2.6487,-2.6487,-2.6487,-2.6487,-2.6487,-2.6487,-2.6487,-2.6487,-2.6487,-2.6487,-2.6487,-2.6487,-2.6487,-2.6487,-2.626,-2.5598,-2.536,-2.5322,-2.4607,-2.3735,-2.3421,-2.3477,-2.392,-2.4398,-2.4903,-2.5432,-2.6129,-2.6487,-2.6487,-1.0586,-1.0586,-1.0586,-1.0586,-1.0586,-1.0586,-1.0586,-1.0586,-1.0586,-1.0586,-1.0586,-1.0586,-1.0624,-1.0656,-1.0713,-1.0776,-1.0863,-1.1439,-1.1995,-1.2584,-1.3107,-1.3635,-1.3995,-1.4114,-1.4192,-1.4319,-1.4492,-1.4873,-1.5195,-1.5361,-1.541,-1.542,-1.542,-1.5342,-1.5273,-1.5342,-1.5342,-1.498,-1.4668,-1.4221,-1.3841,-1.333,-1.3145,-1.3558,-1.3938,-1.4328,-1.4922,-1.5195,-1.5566,-1.5979,-1.6317,-1.6636,-1.7093,-1.7652,-1.7998,-1.8008,-1.8008,-1.8008,-1.8027,-1.8154,-1.8203,-1.8336,-1.8758,-1.9437,-2.0391,-2.163,-2.2989,-2.4732,-2.5465,-2.5816,-2.6198,-2.6418,-2.6493,-2.6596,-2.6609,-2.6656,-2.6726,-2.6729,-2.6609,-2.6704,-2.6829,-2.6751,-2.6684,-2.6487,-2.6487,-2.6487,-2.6487,-2.6487,-2.6487,-2.6487,-2.6487,-2.6487,-2.6487,-2.6487,-2.6487,-2.6487,-2.6487,-2.6487,-2.6487,-2.6487,-2.6273,-2.5933,-2.5737,-2.5485,-2.4687,-2.3923,-2.3521,-2.3346,-2.3828,-2.4299,-2.4657,-2.5259,-2.6122,-2.6474,-2.6487,-1.0586,-1.0586,-1.0586,-1.0586,-1.0586,-1.0586,-1.0586,-1.0586,-1.0586,-1.0586,-1.0586,-1.0618,-1.0681,-1.087,-1.1153,-1.1341,-1.1542,-1.1798,-1.2244,-1.2765,-1.308,-1.3477,-1.3975,-1.4087,-1.3968,-1.3968,-1.4104,-1.4463,-1.4834,-1.5186,-1.54,-1.54,-1.5391,-1.5273,-1.5078,-1.5283,-1.4981,-1.4494,-1.458,-1.4346,-1.3675,-1.3203,-1.3428,-1.3851,-1.4153,-1.4494,-1.5146,-1.5391,-1.5635,-1.6134,-1.6682,-1.6995,-1.7194,-1.7662,-1.7949,-1.8008,-1.8008,-1.8008,-1.8096,-1.8276,-1.865,-1.8963,-1.9689,-2.0589,-2.1741,-2.3077,-2.4435,-2.5299,-2.5863,-2.6188,-2.643,-2.6524,-2.6751,-2.7014,-2.7178,-2.7406,-2.7632,-2.7383,-2.7346,-2.744,-2.7498,-2.7148,-2.6908,-2.6684,-2.6487,-2.6487,-2.6499,-2.6524,-2.6512,-2.6537,-2.6487,-2.6487,-2.6487,-2.6487,-2.6487,-2.6487,-2.6487,-2.6487,-2.6487,-2.6487,-2.6336,-2.6122,-2.5883,-2.5473,-2.4795,-2.4487,-2.4431,-2.4311,-2.4154,-2.4442,-2.5048,-2.5652,-2.6319,-2.6436,-2.6487,-1.0586,-1.0586,-1.0586,-1.0586,-1.0586,-1.0586,-1.0586,-1.0586,-1.0586,-1.0586,-1.0586,-1.0593,-1.0863,-1.1351,-1.1725,-1.2066,-1.2326,-1.2422,-1.2579,-1.2802,-1.2987,-1.3152,-1.332,-1.3402,-1.3428,-1.3545,-1.3675,-1.3987,-1.4424,-1.4834,-1.5137,-1.54,-1.541,-1.5361,-1.5078,-1.5312,-1.5205,-1.4961,-1.4785,-1.4463,-1.3948,-1.3704,-1.3867,-1.4463,-1.4492,-1.4844,-1.5244,-1.543,-1.5781,-1.6287,-1.6799,-1.7145,-1.7492,-1.7828,-1.8008,-1.8008,-1.8008,-1.8125,-1.835,-1.851,-1.8962,-1.9636,-2.0539,-2.1722,-2.325,-2.4388,-2.5382,-2.606,-2.6245,-2.6455,-2.659,-2.6801,-2.704,-2.7281,-2.7632,-2.7871,-2.8097,-2.7985,-2.7872,-2.8005,-2.8136,-2.7849,-2.7589,-2.7549,-2.7364,-2.7241,-2.709,-2.6914,-2.6801,-2.6663,-2.6587,-2.6487,-2.6487,-2.6487,-2.6487,-2.6487,-2.6487,-2.6487,-2.6487,-2.6487,-2.6461,-2.6285,-2.6072,-2.5875,-2.5498,-2.5335,-2.5368,-2.5071,-2.4705,-2.5053,-2.557,-2.5984,-2.6404,-2.6449,-2.6487,-1.0586,-1.0586,-1.0586,-1.0586,-1.0586,-1.0586,-1.0586,-1.0586,-1.0586,-1.0624,-1.0719,-1.0902,-1.1389,-1.1996,-1.242,-1.2826,-1.3196,-1.306,-1.3019,-1.2987,-1.2887,-1.2837,-1.2968,-1.2939,-1.2939,-1.2915,-1.3223,-1.3584,-1.3958,-1.4387,-1.4855,-1.5371,-1.541,-1.5312,-1.5293,-1.5352,-1.5342,-1.5303,-1.4941,-1.4619,-1.4299,-1.4124,-1.4355,-1.4629,-1.4824,-1.498,-1.5342,-1.542,-1.583,-1.649,-1.6709,-1.7106,-1.7779,-1.7969,-1.8008,-1.8008,-1.8008,-1.835,-1.8744,-1.909,-1.9463,-2.0375,-2.1613,-2.3178,-2.4625,-2.5394,-2.5845,-2.6621,-2.6694,-2.6779,-2.6952,-2.7341,-2.7582,-2.7858,-2.8122,-2.8298,-2.8473,-2.8524,-2.8637,-2.88,-2.8862,-2.8748,-2.8584,-2.857,-2.8381,-2.807,-2.7733,-2.7331,-2.704,-2.6751,-2.6612,-2.6487,-2.6487,-2.6487,-2.6487,-2.6487,-2.6487,-2.6487,-2.6487,-2.6487,-2.6461,-2.6461,-2.6361,-2.6197,-2.6,-2.6021,-2.5933,-2.5548,-2.5259,-2.5678,-2.6047,-2.6123,-2.6328,-2.6433,-2.6487,-1.0586,-1.0586,-1.0586,-1.0586,-1.0586,-1.0586,-1.0586,-1.0586,-1.0586,-1.0713,-1.0958,-1.1545,-1.2158,-1.2773,-1.3221,-1.3575,-1.3888,-1.3409,-1.3296,-1.3198,-1.2963,-1.2835,-1.2881,-1.2915,-1.2915,-1.2915,-1.3042,-1.3232,-1.3564,-1.3977,-1.4611,-1.5293,-1.5371,-1.5156,-1.5127,-1.5293,-1.54,-1.5352,-1.5049,-1.4863,-1.4658,-1.4465,-1.4463,-1.4736,-1.4844,-1.498,-1.5381,-1.5469,-1.584,-1.6648,-1.6763,-1.7109,-1.7818,-1.7988,-1.8008,-1.8042,-1.8076,-1.8621,-1.9429,-1.9834,-2.0488,-2.1692,-2.3145,-2.4542,-2.5657,-2.6007,-2.6507,-2.7132,-2.7316,-2.7505,-2.7745,-2.8072,-2.8222,-2.8436,-2.8674,-2.8976,-2.9164,-2.934,-2.9453,-2.9616,-2.9566,-2.9315,-2.9265,-2.9189,-2.8988,-2.8662,-2.7896,-2.7505,-2.6989,-2.6688,-2.6575,-2.6487,-2.6487,-2.6487,-2.6487,-2.6487,-2.6487,-2.6487,-2.6487,-2.6487,-2.6487,-2.6487,-2.6487,-2.6436,-2.6285,-2.6399,-2.6424,-2.6009,-2.5858,-2.6235,-2.6471,-2.6417,-2.6391,-2.6471,-2.6487,-1.0394,-1.0586,-1.0586,-1.0586,-1.0586,-1.0586,-1.0586,-1.0586,-1.0593,-1.0926,-1.1437,-1.2189,-1.2917,-1.3584,-1.4025,-1.4313,-1.4411,-1.3968,-1.3698,-1.3358,-1.3093,-1.2905,-1.2915,-1.2925,-1.2915,-1.2915,-1.2935,-1.313,-1.3516,-1.3724,-1.4268,-1.4824,-1.5254,-1.5322,-1.5274,-1.5303,-1.5381,-1.5391,-1.5264,-1.5166,-1.5137,-1.5059,-1.5,-1.5137,-1.5176,-1.5234,-1.5439,-1.5703,-1.6152,-1.6592,-1.6958,-1.7435,-1.7871,-1.7978,-1.8076,-1.8187,-1.8255,-1.9136,-2.0315,-2.0732,-2.1414,-2.3445,-2.4708,-2.5621,-2.6385,-2.6866,-2.7224,-2.7682,-2.7984,-2.8185,-2.8059,-2.8398,-2.8675,-2.8913,-2.9214,-2.9515,-2.9666,-2.9754,-2.9779,-2.9741,-2.9741,-2.9654,-2.9666,-2.9691,-2.9478,-2.9214,-2.8373,-2.7607,-2.719,-2.6751,-2.6675,-2.6562,-2.6549,-2.6499,-2.6487,-2.6487,-2.6487,-2.6487,-2.6487,-2.6487,-2.6487,-2.6487,-2.6487,-2.6487,-2.6487,-2.6474,-2.6424,-2.6298,-2.6311,-2.6449,-2.6487,-2.6461,-2.6474,-2.6487,-2.6487,-1.0241,-1.0452,-1.0459,-1.0512,-1.0586,-1.0586,-1.0586,-1.0586,-1.0586,-1.1052,-1.1841,-1.2551,-1.3351,-1.4103,-1.4608,-1.4828,-1.481,-1.4525,-1.4175,-1.3812,-1.3432,-1.315,-1.3052,-1.2983,-1.2915,-1.2915,-1.2925,-1.3101,-1.3271,-1.3529,-1.4016,-1.46,-1.5117,-1.5342,-1.54,-1.542,-1.542,-1.542,-1.542,-1.542,-1.5391,-1.5381,-1.5371,-1.5381,-1.5371,-1.5381,-1.5518,-1.5811,-1.623,-1.6701,-1.7103,-1.7566,-1.7856,-1.8042,-1.8144,-1.8411,-1.89,-1.9713,-2.088,-2.2061,-2.2904,-2.4708,-2.5394,-2.6251,-2.7049,-2.7467,-2.7582,-2.8298,-2.8599,-2.8712,-2.8499,-2.9001,-2.9189,-2.939,-2.949,-2.9716,-2.9729,-2.9779,-2.9779,-2.9767,-2.9779,-2.9779,-2.9779,-2.9754,-2.9528,-2.9302,-2.88,-2.8109,-2.7632,-2.7218,-2.6901,-2.6776,-2.6637,-2.6562,-2.6487,-2.6487,-2.6487,-2.6487,-2.6487,-2.6487,-2.6487,-2.6487,-2.6487,-2.6487,-2.6487,-2.6487,-2.6449,-2.6373,-2.6399,-2.6474,-2.6487,-2.6487,-2.6487,-2.6487,-2.6487,-1.0083,-1.0127,-1.0134,-1.0294,-1.0526,-1.0579,-1.0579,-1.0586,-1.0649,-1.1083,-1.1856,-1.2612,-1.3411,-1.4151,-1.4695,-1.4974,-1.5109,-1.4863,-1.4609,-1.4326,-1.3799,-1.3535,-1.3389,-1.3232,-1.3105,-1.2944,-1.3052,-1.3125,-1.3027,-1.3656,-1.4065,-1.4426,-1.5039,-1.542,-1.542,-1.542,-1.542,-1.542,-1.542,-1.542,-1.542,-1.542,-1.542,-1.542,-1.542,-1.542,-1.5508,-1.5947,-1.6367,-1.6709,-1.7217,-1.767,-1.8007,-1.8056,-1.8236,-1.8593,-1.9549,-2.0606,-2.1885,-2.357,-2.4732,-2.5487,-2.598,-2.6484,-2.7107,-2.7454,-2.7795,-2.8599,-2.89,-2.9214,-2.9453,-2.9691,-2.9666,-2.9679,-2.9754,-2.9779,-2.9779,-2.9779,-2.9779,-2.9779,-2.9779,-2.9779,-2.9779,-2.9716,-2.9478,-2.9214,-2.8976,-2.8612,-2.8134,-2.7695,-2.7293,-2.7014,-2.6851,-2.665,-2.6575,-2.6512,-2.6487,-2.6487,-2.6487,-2.6487,-2.6487,-2.6487,-2.6487,-2.6487,-2.6487,-2.6487,-2.6487,-2.6474,-2.6487,-2.6487,-2.6487,-2.6487,-2.6487,-2.6487,-2.6487,-0.9833,-0.9846,-1.0033,-1.0067,-1.0043,-1.0187,-1.0405,-1.0604,-1.087,-1.1233,-1.1841,-1.2581,-1.3373,-1.4103,-1.4569,-1.4887,-1.4963,-1.4922,-1.4707,-1.4346,-1.4033,-1.3938,-1.3812,-1.3695,-1.35,-1.3437,-1.3496,-1.3486,-1.334,-1.3909,-1.4289,-1.4668,-1.5078,-1.5371,-1.542,-1.542,-1.542,-1.542,-1.542,-1.542,-1.542,-1.542,-1.542,-1.542,-1.542,-1.543,-1.5508,-1.6084,-1.6512,-1.6814,-1.7353,-1.789,-1.8182,-1.8259,-1.8643,-1.9258,-2.0265,-2.1823,-2.343,-2.5042,-2.5767,-2.6107,-2.633,-2.6646,-2.7228,-2.7645,-2.821,-2.8812,-2.9264,-2.9541,-2.9729,-2.9754,-2.9741,-2.9741,-2.9779,-2.9779,-2.9779,-2.9779,-2.9779,-2.9779,-2.9779,-2.9818,-2.9818,-2.9895,-2.9693,-2.953,-2.9341,-2.9051,-2.8662,-2.8172,-2.7733,-2.7344,-2.7115,-2.6839,-2.6663,-2.6587,-2.6512,-2.6487,-2.6487,-2.6487,-2.6487,-2.6487,-2.6487,-2.6487,-2.6487,-2.6487,-2.6487,-2.6487,-2.6487,-2.6487,-2.6487,-2.6487,-2.6487,-2.6487,-2.6487,-0.9526,-0.9552,-0.9704,-0.9773,-0.9733,-0.9993,-1.0318,-1.0622,-1.0909,-1.124,-1.1686,-1.2282,-1.3017,-1.3773,-1.4264,-1.469,-1.482,-1.4896,-1.4951,-1.4533,-1.4377,-1.4348,-1.4309,-1.4192,-1.3899,-1.3831,-1.3899,-1.3929,-1.3743,-1.416,-1.458,-1.498,-1.5273,-1.5391,-1.542,-1.542,-1.542,-1.542,-1.542,-1.542,-1.542,-1.542,-1.542,-1.542,-1.5439,-1.5478,-1.5791,-1.626,-1.6775,-1.71,-1.7562,-1.8124,-1.8361,-1.871,-1.9123,-1.9942,-2.1495,-2.3038,-2.4746,-2.5738,-2.6242,-2.6418,-2.6487,-2.6864,-2.7429,-2.7871,-2.8499,-2.9089,-2.9541,-2.9704,-2.9779,-2.9779,-2.9779,-2.9779,-2.9779,-2.9779,-2.9779,-2.9779,-2.9779,-2.9779,-2.996,-2.996,-2.9998,-3.0011,-3.0024,-2.9847,-2.9682,-2.9454,-2.9214,-2.8737,-2.8284,-2.7907,-2.7379,-2.6964,-2.6751,-2.6637,-2.6562,-2.6499,-2.6487,-2.6487,-2.6487,-2.6487,-2.6487,-2.6487,-2.6487,-2.6487,-2.6487,-2.6487,-2.6487,-2.6487,-2.6487,-2.6487,-2.6487,-2.6487,-2.6487,-0.9183,-0.9176,-0.9183,-0.9377,-0.9659,-0.99,-1.0214,-1.0564,-1.069,-1.0927,-1.1246,-1.1681,-1.2318,-1.3158,-1.3704,-1.4282,-1.4816,-1.4992,-1.5148,-1.5196,-1.4932,-1.4853,-1.4687,-1.4455,-1.4309,-1.4192,-1.4231,-1.4367,-1.4211,-1.459,-1.501,-1.5264,-1.5371,-1.542,-1.542,-1.542,-1.542,-1.542,-1.542,-1.542,-1.542,-1.542,-1.542,-1.542,-1.543,-1.5664,-1.6037,-1.6538,-1.7,-1.7403,-1.7864,-1.8234,-1.8596,-1.9044,-1.9704,-2.0882,-2.279,-2.4209,-2.5348,-2.6104,-2.6515,-2.665,-2.6625,-2.7143,-2.7657,-2.8072,-2.8687,-2.9202,-2.9628,-2.9716,-2.9779,-2.9779,-2.9779,-2.9779,-2.9779,-2.9779,-2.9779,-2.9779,-2.9779,-2.9882,-3.0126,-3.0266,-3.0406,-3.0457,-3.0508,-3.0418,-3.0315,-3.0202,-2.9922,-2.9441,-2.9012,-2.856,-2.7907,-2.7115,-2.6876,-2.6751,-2.6575,-2.6487,-2.6487,-2.6487,-2.6487,-2.6487,-2.6487,-2.6487,-2.6487,-2.6487,-2.6487,-2.6487,-2.6487,-2.6487,-2.6487,-2.6487,-2.6487,-2.6487,-2.6487,-0.9091,-0.8931,-0.9124,-0.9144,-0.9105,-0.9344,-0.9624,-0.9943,-1.0023,-1.0082,-1.0208,-1.0753,-1.1443,-1.1916,-1.2764,-1.3618,-1.4252,-1.4736,-1.5089,-1.5187,-1.5225,-1.5234,-1.5166,-1.5029,-1.4853,-1.4775,-1.4795,-1.4814,-1.4736,-1.5029,-1.5225,-1.5362,-1.542,-1.542,-1.542,-1.542,-1.542,-1.542,-1.542,-1.5459,-1.5459,-1.5478,-1.5488,-1.5518,-1.5537,-1.5851,-1.6324,-1.6886,-1.741,-1.7971,-1.8517,-1.8954,-1.9419,-1.9889,-2.0606,-2.232,-2.3721,-2.4797,-2.554,-2.616,-2.6625,-2.6939,-2.7017,-2.714,-2.7632,-2.8247,-2.8825,-2.9289,-2.9654,-2.9754,-2.9779,-2.9779,-2.9779,-2.9779,-2.9818,-2.9856,-2.9895,-2.9934,-2.9972,-3.0292,-3.052,-3.0921,-3.102,-3.102,-3.1071,-3.0996,-3.0934,-3.0897,-3.067,-3.0199,-2.9694,-2.9263,-2.8347,-2.7517,-2.7065,-2.6876,-2.665,-2.6487,-2.6487,-2.6487,-2.6487,-2.6487,-2.6487,-2.6487,-2.6487,-2.6487,-2.6487,-2.6487,-2.6487,-2.6487,-2.6487,-2.6487,-2.6487,-2.6487,-2.6499,-0.8965,-0.8811,-0.8964,-0.8938,-0.8858,-0.8964,-0.9158,-0.9359,-0.9579,-0.9715,-0.9749,-1.0329,-1.074,-1.1271,-1.2118,-1.2978,-1.3833,-1.427,-1.4686,-1.5128,-1.5274,-1.5332,-1.5381,-1.54,-1.5244,-1.5205,-1.5205,-1.5215,-1.5137,-1.5215,-1.541,-1.5381,-1.542,-1.542,-1.542,-1.542,-1.542,-1.542,-1.5439,-1.5508,-1.5595,-1.5703,-1.5752,-1.5839,-1.5889,-1.6264,-1.6857,-1.7499,-1.8111,-1.8762,-1.9378,-1.9857,-2.0355,-2.0892,-2.1549,-2.3076,-2.4062,-2.4716,-2.5322,-2.6084,-2.6688,-2.7203,-2.7482,-2.777,-2.8059,-2.8599,-2.9001,-2.9377,-2.9603,-2.9779,-2.9779,-2.9779,-2.9779,-2.9779,-2.9856,-2.9934,-3.0049,-3.0126,-3.0368,-3.0735,-3.1121,-3.1589,-3.1723,-3.1686,-3.1723,-3.1809,-3.1809,-3.1773,-3.1479,-3.1029,-3.0514,-2.997,-2.8933,-2.7883,-2.7492,-2.7027,-2.6688,-2.6512,-2.6487,-2.6487,-2.6487,-2.6487,-2.6487,-2.6487,-2.6487,-2.6487,-2.6487,-2.6487,-2.6487,-2.6524,-2.6549,-2.6571,-2.6524,-2.6487,-2.6499,-0.8785,-0.8778,-0.8778,-0.8798,-0.8778,-0.8798,-0.8811,-0.8838,-0.9352,-0.9628,-0.969,-1.0112,-1.0467,-1.0824,-1.1562,-1.2336,-1.3078,-1.3601,-1.424,-1.4931,-1.5049,-1.5186,-1.5352,-1.541,-1.5361,-1.5391,-1.54,-1.5371,-1.54,-1.542,-1.542,-1.542,-1.542,-1.542,-1.542,-1.542,-1.5459,-1.5585,-1.5606,-1.5683,-1.5984,-1.6161,-1.6299,-1.6551,-1.6721,-1.6963,-1.776,-1.8413,-1.9019,-1.9717,-2.0333,-2.0794,-2.1313,-2.1839,-2.2555,-2.3269,-2.4248,-2.4755,-2.5297,-2.6009,-2.6776,-2.7354,-2.7808,-2.8298,-2.8699,-2.8988,-2.934,-2.9503,-2.9741,-2.9779,-2.9779,-2.9779,-2.9779,-2.9856,-2.9972,-3.0216,-3.0495,-3.0784,-3.1331,-3.1723,-3.2182,-3.2613,-3.272,-3.272,-3.2706,-3.2733,-3.2712,-3.2662,-3.2484,-3.2037,-3.1375,-3.0764,-2.9486,-2.8467,-2.788,-2.7389,-2.6776,-2.6549,-2.6512,-2.6487,-2.6487,-2.6487,-2.6487,-2.6487,-2.6487,-2.6487,-2.6487,-2.6499,-2.6562,-2.6735,-2.6747,-2.6672,-2.6659,-2.6763,-2.6575,-0.8778,-0.8778,-0.8778,-0.8778,-0.8778,-0.8778,-0.8778,-0.8811,-0.8938,-0.9045,-0.9112,-0.959,-0.9917,-1.0212,-1.0996,-1.1732,-1.2243,-1.2926,-1.3584,-1.4261,-1.4656,-1.501,-1.5323,-1.5362,-1.5391,-1.542,-1.542,-1.542,-1.542,-1.542,-1.542,-1.542,-1.542,-1.542,-1.542,-1.543,-1.5596,-1.5801,-1.5988,-1.6023,-1.6193,-1.643,-1.6629,-1.6736,-1.6826,-1.7288,-1.8042,-1.8797,-1.9532,-2.0299,-2.0994,-2.1565,-2.2068,-2.2543,-2.3114,-2.3766,-2.4374,-2.4895,-2.5435,-2.6084,-2.6826,-2.7519,-2.8109,-2.8737,-2.9202,-2.9453,-2.9628,-2.9729,-2.9779,-2.9779,-2.9818,-2.9818,-2.9856,-2.9998,-3.0177,-3.0595,-3.1007,-3.1659,-3.229,-3.2791,-3.3283,-3.3492,-3.3644,-3.3679,-3.3713,-3.3699,-3.3699,-3.3665,-3.3644,-3.3283,-3.242,-3.1621,-3.0125,-2.9103,-2.8475,-2.7689,-2.7014,-2.665,-2.6562,-2.6524,-2.6499,-2.6487,-2.6487,-2.6487,-2.6487,-2.6487,-2.6499,-2.6512,-2.6612,-2.6886,-2.7148,-2.716,-2.7406,-2.7535,-2.7118,-0.8778,-0.8778,-0.8778,-0.8778,-0.8778,-0.8778,-0.8778,-0.8778,-0.8778,-0.8778,-0.8891,-0.9385,-0.9715,-0.9809,-1.0602,-1.1146,-1.1632,-1.2189,-1.2986,-1.3653,-1.4201,-1.4715,-1.502,-1.5284,-1.5362,-1.5381,-1.542,-1.542,-1.542,-1.542,-1.542,-1.542,-1.542,-1.543,-1.542,-1.5586,-1.5822,-1.6095,-1.6424,-1.6638,-1.6645,-1.6873,-1.7135,-1.7197,-1.7409,-1.7813,-1.8537,-1.934,-2.0217,-2.1055,-2.1822,-2.2292,-2.2653,-2.2866,-2.3317,-2.391,-2.4494,-2.5046,-2.5598,-2.6223,-2.6889,-2.7494,-2.8047,-2.8549,-2.9114,-2.9365,-2.9679,-2.9779,-2.9921,-2.996,-3.0152,-3.019,-3.0356,-3.0533,-3.0947,-3.1429,-3.2037,-3.272,-3.3241,-3.3638,-3.4016,-3.4158,-3.4225,-3.4225,-3.4259,-3.4356,-3.4375,-3.4327,-3.4375,-3.4356,-3.3526,-3.2644,-3.12,-2.9978,-2.9213,-2.8246,-2.7228,-2.6914,-2.6725,-2.66,-2.6587,-2.6524,-2.6487,-2.6625,-2.6625,-2.6487,-2.6499,-2.67,-2.6876,-2.7115,-2.745,-2.7748,-2.8033,-2.8225,-2.7838,-0.8778,-0.8778,-0.8778,-0.8778,-0.8778,-0.8778,-0.8778,-0.8778,-0.8778,-0.8778,-0.8891,-0.9426,-0.9653,-0.9939,-1.0428,-1.0854,-1.1272,-1.167,-1.2382,-1.2986,-1.3571,-1.4172,-1.4686,-1.502,-1.5186,-1.5323,-1.542,-1.542,-1.542,-1.542,-1.542,-1.542,-1.543,-1.5449,-1.5596,-1.5851,-1.6177,-1.6507,-1.6888,-1.7304,-1.7421,-1.7494,-1.7695,-1.7895,-1.811,-1.8438,-1.9243,-2.0085,-2.0942,-2.1678,-2.2414,-2.2793,-2.2987,-2.3072,-2.3578,-2.4104,-2.4569,-2.5146,-2.5711,-2.626,-2.6788,-2.7304,-2.7745,-2.8247,-2.8762,-2.9139,-2.9491,-2.9745,-2.9847,-3.0241,-3.0431,-3.0722,-3.091,-3.1296,-3.1846,-3.2362,-3.3073,-3.3728,-3.4133,-3.4515,-3.462,-3.4791,-3.4791,-3.4758,-3.4791,-3.4887,-3.492,-3.492,-3.4887,-3.4773,-3.439,-3.3593,-3.2542,-3.1356,-3.0131,-2.8984,-2.7908,-2.7477,-2.7337,-2.6961,-2.6763,-2.7002,-2.7077,-2.6927,-2.6889,-2.6939,-2.7024,-2.7201,-2.7364,-2.7507,-2.7875,-2.8299,-2.8586,-2.8737,-2.8562,-0.8778,-0.8778,-0.8778,-0.8778,-0.8778,-0.8778,-0.8778,-0.8778,-0.8778,-0.8778,-0.8951,-0.9379,-0.9715,-0.9742,-1.0362,-1.0737,-1.087,-1.1185,-1.1545,-1.212,-1.2834,-1.3593,-1.4291,-1.4834,-1.5059,-1.5264,-1.542,-1.542,-1.542,-1.542,-1.542,-1.542,-1.5439,-1.5596,-1.5958,-1.6214,-1.6482,-1.6883,-1.7226,-1.7551,-1.7828,-1.79,-1.8031,-1.8192,-1.8337,-1.8931,-1.9639,-2.0505,-2.1325,-2.2068,-2.2653,-2.3017,-2.3145,-2.3246,-2.3735,-2.4343,-2.4808,-2.5372,-2.5984,-2.6336,-2.6788,-2.7128,-2.7507,-2.7733,-2.8196,-2.8558,-2.8896,-2.9244,-2.9582,-3.0433,-3.0773,-3.1309,-3.1642,-3.2335,-3.2939,-3.3512,-3.4143,-3.4624,-3.5049,-3.5162,-3.518,-3.5231,-3.5231,-3.5231,-3.5231,-3.5279,-3.5279,-3.5246,-3.5246,-3.5166,-3.507,-3.4355,-3.3568,-3.2305,-3.0931,-2.99,-2.8897,-2.8435,-2.794,-2.7591,-2.7482,-2.7758,-2.7758,-2.7469,-2.757,-2.7708,-2.7781,-2.7691,-2.8056,-2.8273,-2.8536,-2.8857,-2.9161,-2.9288,-2.9112]}]]